     2              OBSERVATION DATA    GPS                 RINEX VERSION / TYPE
teqc 1998Mar9 19980312 00:57:20UTC                          PGM / RUN BY / DATE
                                                            COMMENT
Original Marker Name: unknown                               COMMENT
Campaign Name: Cholame 1989                                 COMMENT
4-Character Station Name: HAT1                              COMMENT
6-Character Antenna Code: TI4100                            COMMENT
Vertical Measurement Point: PAE                             COMMENT
Vertical Offset to Rinex Ref. Point: 0.0000                 COMMENT
Radial Measurement Point: PAE                               COMMENT
Radial Offset to Rinex Ref. Point: 0.0842                   COMMENT
Antenna Height from Field Measurement: 1.0190 m             COMMENT
Original XYZ: -2607448.3184 -4483989.5752 3700385.0566      COMMENT
New XYZ position is based on association with SCEC monument COMMENT
E1F1F0F1+0011. Position of that monument is believed to be  COMMENT
valid to within 1 m horizontally; vertical accuracy         COMMENT
should be no worse than 3-times this value.                 COMMENT
                                                            COMMENT
Revised Rinex header created by UCSD GPS archive for        COMMENT
GSAC on 16-Apr-1999 (1999:106) 03:48:02 GMT                 COMMENT
For assistance contact dagnew@ucsd.edu or hjohnson@ucsd.edu COMMENT
                                                            COMMENT
HATCH RM 1                                                  MARKER NAME
unknown UNIV CALIF LOS ANGELES                              OBSERVER / AGENCY
UN02 TI 4100 1.9                                            REC # / TYPE / VERS
UN02 TI 4100                                                ANT # / TYPE
 -2607444.0000 -4483985.0000  3700381.0000                  APPROX POSITION XYZ
        1.0155        0.0000        0.0000                  ANTENNA: DELTA H/E/N
     1     1     0                                          WAVELENGTH FACT L1/2
     4    P1    P2    L1    L2                              # / TYPES OF OBSERV
     0                                                      INTERVAL
  1989    11    17    10    20   59.000000                  TIME OF FIRST OBS
  1989    11    17    16    40   59.000000                  TIME OF LAST OBS
     0                                                      # OF SATELLITES
                                                            END OF HEADER
 89 11 17 10 20 59.0800000  0  4G 2G 6G11G 9
  23590289.782    23590295.656     1279941.380 9   -604629.566 9
  21235210.825    21235214.144      773141.384 9  -1114697.158 9
  22534166.027    22534171.554      484287.829 9  -1102589.785 9
  23738501.808    23738507.503      506107.853 9  -1145948.916 8
 89 11 17 10 21 29.0800000  0  4G 2G 6G11G 9
  23605632.435    23605638.258     1360565.033 8   -541805.978 9
  21226276.723    21226280.172      726193.372 9  -1151280.005 9
  22515876.106    22515882.922      388177.792 9  -1177480.707 9
  23722022.655    23722025.332      419501.388 9  -1213434.462 9
 89 11 17 10 21 59.0800000  0  4G 2G 6G11G 9
  23620980.237    23620986.452     1441221.946 8   -478956.452 8
  21217379.224    21217381.657      679434.014 9  -1187715.854 8
  22497648.513    22497654.140      292388.512 9  -1252121.689 9
  23705539.997    23705543.496      332889.679 9  -1280924.113 8
 89 11 17 10 22 29.0800000  0  4G 2G 6G11G 9
  23636335.361    23636341.404     1521911.436 8   -416081.602 7
  21208517.097    21208520.975      632865.417 9  -1224003.065 9
  22479482.606    22479487.604      196923.106 9  -1326510.299 9
  23689058.376    23689061.374      246274.158 9  -1348416.674 8
 89 11 17 10 22 59.0800000  0  4G 2G 6G11G 9
  23651695.570    23651701.820     1602633.028 8   -353181.761 8
  21199692.046    21199695.321      586489.284 9  -1260140.292 9
  22461377.789    22461382.469      101784.005 9  -1400644.644 9
  23672574.345    23672579.396      159655.856 9  -1415911.423 9
 89 11 17 10 23 29.0800000  0  4G 2G 6G11G 9
  23667063.003    23667069.247     1683385.906 8   -290257.574 9
  21190903.325    21190907.531      540307.145 9  -1296126.357 8
  22443335.246    22443341.896        6973.956 9  -1474522.583 9
  23656091.621    23656096.186       73035.578 9  -1483407.697 8
 89 11 17 10 23 59.0800000  0  4G 2G 6G11G 9
  23682435.950    23682440.586     1764169.579 9   -227309.369 9
  21182153.497    21182156.689      494320.848 9  -1331959.835 7
  22425357.455    22425362.560      -87504.307 9  -1548141.986 9
  23639607.910    23639612.160      -13585.464 8  -1550904.580 8
 89 11 17 10 24 29.0800000  0  4G 2G 6G11G 9
  23697814.385    23697820.135     1844983.003 9   -164337.944 8
  21173438.883    21173442.819      448531.898 9  -1367639.532 9
  22407442.531    22407447.730     -181648.610 9  -1621501.161 9
  23623124.423    23623128.359     -100206.684 9  -1618401.584 9
 89 11 17 10 24 59.0800000  0  4G 2G 6G11G 9
  23713197.959    23713203.417     1925825.059 9   -101344.231 9
  21164763.821    21164766.697      402941.717 9  -1403164.341 9
  22389591.276    22389595.992     -275456.493 9  -1694598.172 9
  23606640.535    23606644.799     -186827.081 8  -1685897.984 8
 89 11 17 10 25 29.0800000  0  4G 2G 6G11G 9
  23728587.852    23728592.446     2006694.969 9    -38328.783 9
  21156126.119    21156129.812      357552.242 9  -1438532.747 8
  22371804.271    22371809.751     -368925.213 9  -1767430.916 9
  23590158.455    23590161.812     -273445.545 8  -1753392.854 9
 89 11 17 10 25 59.0800000  0  4G 2G 6G11G 9
  23743980.892    23743987.953     2087592.921 9     24708.490 9
  21147527.381    21147531.617      312365.889 9  -1473742.877 8
  22354084.338    22354088.698     -462051.661 9  -1839996.959 9
  23573676.727    23573679.439     -360060.196 8  -1820884.744 9
 89 11 17 10 26 29.0800000  0  4G 2G 6G11G 9
  23759381.259    23759387.941     2168518.727 9     87767.405 9
  21138967.552    21138971.515      267384.937 9  -1508792.958 8
  22336427.460    22336432.290     -554832.702 9  -1912293.850 9
  23557193.239    23557199.162     -446669.538 8  -1888372.528 9
 89 11 17 10 26 59.0800000  0  4G 2G 6G11G 9
  23774786.510    23774791.873     2249470.490 9    150846.577 9
  21130447.843    21130452.021      222609.459 9  -1543682.936 9
  22318837.730    22318843.633     -647267.274 9  -1984320.775 9
  23540712.899    23540719.080     -533273.932 8  -1955856.439 9
 89 11 17 10 27 29.0800000  0  4G 2G 6G11G 9
  23790196.273    23790201.796     2330449.152 9    213946.739 9
  21121967.270    21121970.819      178043.331 9  -1578409.801 8
  22301314.800    22301320.692     -739350.891 9  -2056074.218 8
  23524236.036    23524240.692     -619870.552 9  -2023334.264 8
 89 11 17 10 27 59.0800000  0  4G 2G 6G11G 9
  23805611.368    23805615.766     2411452.582 9    277066.240 9
  21113526.192    21113530.571      133686.607 8  -1612973.464 9
  22283858.845    22283864.312     -831082.719 9  -2127553.544 9
  23507757.928    23507763.580     -706459.748 9  -2090806.354 9
 89 11 17 10 28 29.0800000  0  4G 2G 6G11G 9
  23821029.494    23821035.146     2492480.768 9    340205.029 9
  21105126.138    21105129.586       89541.804 9  -1647372.014 9
  22266470.302    22266475.712     -922459.446 9  -2198756.174 8
  23491282.702    23491286.482     -793039.735 9  -2158271.253 7
 89 11 17 10 28 59.0800000  0  4G 2G 6G11G 9
  23836454.521    23836459.551     2573533.898 9    403363.269 9
  21096766.106    21096770.098       45611.117 9  -1681603.724 9
  22249150.534    22249154.505    -1013477.707 9  -2269679.471 9
  23474808.915    23474812.737     -879608.896 9  -2225727.746 9
 89 11 17 10 29 29.0800000  0  4G 2G 6G11G 9
  23851883.592    23851888.609     2654613.114 9    466541.787 8
  21088447.514    21088451.535        1898.458 9  -1715665.527 9
  22231898.867    22231904.812    -1104133.396 9  -2340320.249 9
  23458337.384    23458342.928     -966163.888 9  -2293173.178 9
 89 11 17 10 29 59.0800000  0  4G 2G 6G11G 9
  23867316.666    23867321.846     2735716.920 9    529739.438 9
  21080171.105    21080175.527      -41595.214 8  -1749556.711 9
  22214717.110    22214722.330    -1194424.450 9  -2410676.888 9
  23441869.149    23441873.965    -1052704.715 9  -2360607.626 8
 89 11 17 10 30 29.0800000  0  4G 2G 6G11G 9
  23882754.434    23882759.754     2816843.441 9    592954.786 9
  21071937.081    21071940.844      -84869.072 9  -1783276.593 9
  22197604.799    22197611.007    -1284349.734 9  -2480748.523 9
  23425404.399    23425407.832    -1139230.846 9  -2428030.594 9
 89 11 17 10 30 59.0800000  0  4G 2G 6G11G 9
  23898196.666    23898202.280     2897991.980 9    656187.316 9
  21063743.322    21063748.545     -127921.496 9  -1816823.944 9
  22180562.445    22180568.204    -1373907.192 9  -2550533.535 9
  23408940.485    23408947.016    -1225741.372 9  -2495441.394 8
 89 11 17 10 31 29.0800000  0  4G 2G 6G11G 9
  23913641.967    23913648.194     2979162.026 8    719436.629 9
  21055593.264    21055597.685     -170750.956 9  -1850197.538 9
  22163590.564    22163595.536    -1463094.291 9  -2620029.955 9
  23392483.439    23392488.633    -1312235.483 9  -2562839.404 9
 89 11 17 10 31 59.0800000  0  4G 2G 6G11G 9
  23929094.251    23929099.203     3060352.757 8    782702.029 8
  21047486.562    21047489.667     -213355.373 9  -1883395.804 8
  22146690.644    22146695.268    -1551908.686 9  -2689235.976 9
  23376027.139    23376030.881    -1398711.582 9  -2630223.419 9
 89 11 17 10 32 29.0800000  0  4G 2G 6G11G 9
  23944545.952    23944552.061     3141564.030 9    845983.432 9
  21039421.843    21039426.864     -255732.929 9  -1916417.291 8
  22129861.023    22129866.073    -1640347.635 9  -2758149.426 8
  23359575.468    23359580.247    -1485168.496 9  -2697592.499 9
 89 11 17 10 32 59.0800000  0  4G 2G 6G11G 9
  23960003.972    23960010.532     3222794.842 9    909280.067 8
  21031401.239    21031405.419     -297881.562 9  -1949260.390 9
  22113103.174    22113108.637    -1728408.337 9  -2826768.143 9
  23343126.658    23343129.432    -1571604.926 9  -2764945.561 9
 89 11 17 10 33 29.0800000  0  4G 2G 6G11G 9
  23975465.035    23975472.079     3304044.792 8    972591.612 8
  21023425.123    21023427.928     -339799.547 9  -1981923.765 8
  22096418.183    22096424.014    -1816088.503 9  -2895090.325 9
  23326682.676    23326687.132    -1658019.265 9  -2832281.396 9
 89 11 17 10 33 59.0800000  0  4G 2G 6G11G 9
  23990930.328    23990936.348     3385313.659 8   1035917.903 8
  21015492.451    21015495.942     -381485.026 8  -2014405.983 8
  22079806.148    22079811.581    -1903385.690 9  -2963114.091 9
  23310242.530    23310247.202    -1744410.716 8  -2899599.435 9
 89 11 17 10 34 29.0800000  0  4G 2G 6G11G 9
  24006398.475    24006405.136     3466600.717 8   1099258.359 8
  21007604.522    21007608.286     -422935.981 9  -2046705.411 9
  22063268.096    22063272.601    -1990297.454 9  -3030837.533 9
  23293807.150    23293813.832    -1830777.674 9  -2966898.380 9
 89 11 17 10 34 59.0800000  0  4G 2G 6G11G 9
  24021870.973    24021876.828     3547904.957 8   1162612.223 7
  20999762.025    20999764.873     -464150.626 9  -2078820.739 9
  22046802.566    22046807.496    -2076821.718 9  -3098259.029 9
  23277375.683    23277381.163    -1917118.901 9  -3034177.248 9
 89 11 17 10 35 29.0800000  0  4G 2G 6G11G 9
  24037344.233    24037351.447     3629226.217 8   1225979.292 8
  20991964.473    20991967.622     -505126.830 9  -2110750.249 8
  22030411.371    22030417.230    -2162955.553 9  -3165376.300 9
  23260952.851    23260957.273    -2003432.816 9  -3101434.844 9
 89 11 17 10 35 59.0800000  0  4G 2G 6G11G 9
  24052824.446    24052829.934     3710564.585 8   1289359.766 8
  20984212.396    20984216.533     -545862.868 9  -2142492.622 9
  22014095.499    22014101.473    -2248696.691 9  -3232187.562 8
  23244533.132    23244537.788    -2089718.308 9  -3168670.291 9
 89 11 17 10 36 29.0800000  0  4G 2G 6G11G 9
  24068306.725    24068312.632     3791919.525 9   1352753.167 9
  20976507.097    20976510.059     -586356.669 9  -2174046.247 9
  21997854.894    21997860.797    -2334042.653 9  -3298690.885 9
  23228119.279    23228122.921    -2175973.745 9  -3235882.291 9
 89 11 17 10 36 59.0800000  0  4G 2G 6G11G 9
  24083790.918    24083795.739     3873289.971 9   1416158.666 8
  20968846.827    20968852.151     -626606.504 9  -2205409.781 8
  21981689.813    21981695.373    -2418991.646 9  -3364884.895 9
  23211709.891    23211715.944    -2262198.249 9  -3303070.287 9
 89 11 17 10 37 29.0800000  0  4G 2G 6G11G 9
  24099276.662    24099283.148     3954675.508 9   1479575.914 8
  20961234.752    20961239.202     -666610.355 9  -2236581.637 9
  21965600.435    21965605.840    -2503540.934 9  -3430767.448 9
  23195310.090    23195314.640    -2348390.176 9  -3370232.828 9
 89 11 17 10 37 59.0800000  0  4G 2G 6G11G 9
  24114767.210    24114772.630     4036075.210 9   1543004.220 9
  20953669.967    20953672.873     -706366.199 9  -2267560.221 8
  21949588.400    21949592.399    -2587687.782 9  -3496336.406 9
  23178913.830    23178918.309    -2434548.175 9  -3437369.013 9
 89 11 17 10 38 29.0800000  0  4G 2G 6G11G 9
  24130260.163    24130265.433     4117489.152 9   1606443.609 9
  20946151.946    20946154.823     -745872.061 9  -2298344.012 9
  21933651.917    21933657.836    -2671430.189 9  -3561590.216 8
  23162525.785    23162530.434    -2520670.497 8  -3504477.397 9
 89 11 17 10 38 59.0800000  0  4G 2G 6G11G 9
  24145755.616    24145762.004     4198917.183 9   1669893.924 8
  20938681.802    20938685.480     -785126.011 9  -2328931.516 9
  21917793.737    21917799.674    -2754765.788 9  -3626527.036 9
  23146143.269    23146148.342    -2606755.784 9  -3571556.843 9
 89 11 17 10 39 29.0800000  0  4G 2G 6G11G 9
  24161253.161    24161259.321     4280359.056 9   1733355.024 9
  20931260.682    20931264.703     -824125.982 8  -2359321.119 9
  21902013.633    21902019.252    -2837691.874 9  -3691144.748 9
  23129769.519    23129775.370    -2692802.760 8  -3638606.556 9
 89 11 17 10 39 59.0800000  0  4G 2G 6G11G 9
  24176753.991    24176759.892     4361813.287 9   1796825.793 9
  20923888.400    20923891.978     -862870.125 9  -2389511.366 8
  21886311.894    21886316.734    -2920206.466 9  -3755441.826 8
  23113402.864    23113408.165    -2778809.753 9  -3705625.055 9
 89 11 17 10 40 29.0800000  0  4G 2G 6G11G 9
  24192256.204    24192262.603     4443279.787 9   1860306.103 8
  20916563.825    20916567.760     -901356.482 9  -2419500.758 8
  21870688.147    21870693.292    -3002307.405 9  -3819416.572 8
  23097044.244    23097049.153    -2864775.555 9  -3772611.477 9
 89 11 17 10 40 59.0800000  0  4G 2G 6G11G 9
  24207760.932    24207767.293     4524758.436 9   1923795.917 9
  20909289.761    20909294.054     -939583.075 9  -2449287.743 8
  21855144.067    21855149.111    -3083992.389 9  -3883067.197 9
  23080693.968    23080699.004    -2950698.317 9  -3839564.334 9
 89 11 17 10 41 29.0800000  0  4G 2G 6G11G 9
  24223267.747    24223274.275     4606248.762 9   1987294.841 9
  20902064.877    20902070.143     -977547.969 9  -2478870.806 9
  21839679.762    21839684.706    -3165258.918 9  -3946391.747 8
  23064352.691    23064356.605    -3036576.748 9  -3906482.625 9
 89 11 17 10 41 59.0800000  0  4G 2G 6G11G 9
  24238777.613    24238783.401     4687750.674 9   2050802.774 9
  20894891.321    20894895.085    -1015249.004 9  -2508248.246 9
  21824295.676    21824300.638    -3246104.431 9  -4009388.247 9
  23048018.726    23048023.627    -3122409.135 9  -3973365.012 9
 89 11 17 10 42 29.0800000  0  4G 2G 6G11G 9
  24254288.688    24254295.259     4769263.473 9   2114319.196 9
  20887767.617    20887771.309    -1052684.242 9  -2537418.587 9
  21808991.629    21808996.699    -3326527.084 9  -4072055.229 9
  23031694.384    23031699.551    -3208194.187 9  -4040210.521 9
 89 11 17 10 42 59.0800000  0  4G 2G 6G11G 9
  24269802.092    24269808.616     4850786.531 9   2177843.607 9
  20880694.740    20880698.504    -1089851.818 8  -2566380.361 8
  21793769.055    21793773.265    -3406524.716 9  -4134391.052 9
  23015379.417    23015384.161    -3293930.208 9  -4107017.812 8
 89 11 17 10 43 29.0800000  0  4G 2G 6G11G 9
  24285316.958    24285323.161     4932319.743 9   2241375.950 8
  20873673.534    20873676.869    -1126749.642 9  -2595131.943 9
  21778626.126    21778632.114    -3486095.289 9  -4196394.068 9
  22999074.335    22999078.950    -3379615.856 9  -4173785.881 8
 89 11 17 10 43 59.0800000  0  4G 2G 6G11G 9
  24300834.732    24300841.308     5013862.344 8   2304915.589 9
  20866703.139    20866707.776    -1163375.719 8  -2623671.765 9
  21763566.781    21763571.510    -3565236.340 9  -4258062.403 9
  22982778.876    22982783.855    -3465249.337 9  -4240513.308 9
 89 11 17 10 44 29.0800000  0  4G 2G 6G11G 9
  24316352.998    24316359.953     5095413.992 8   2368462.279 9
  20859786.190    20859789.539    -1199728.026 9  -2651998.281 9
  21748588.085    21748593.258    -3643945.921 9  -4319394.536 9
  22966493.435    22966496.711    -3550829.113 9  -4307198.862 9
 89 11 17 10 44 59.0800000  0  4G 2G 6G11G 9
  24331873.765    24331880.562     5176975.187 9   2432016.427 9
  20852921.384    20852924.703    -1235804.357 8  -2680109.738 9
  21733693.671    21733697.356    -3722221.208 9  -4380388.244 9
  22950218.853    22950223.461    -3636353.500 9  -4373841.276 9
 89 11 17 10 45 29.0800000  0  4G 2G 6G11G 9
  24347396.705    24347402.389     5258544.673 8   2495577.053 9
  20846109.192    20846112.868    -1271602.885 9  -2708004.725 9
  21718880.655    21718885.663    -3800060.368 9  -4441042.121 9
  22933954.768    22933959.518    -3721821.011 9  -4440439.403 9
 89 11 17 10 45 59.0800000  0  4G 2G 6G11G 9
  24362919.224    24362926.531     5340121.909 7   2559143.740 9
  20839350.500    20839354.636    -1307121.691 9  -2735681.760 9
  21704151.920    21704156.439    -3877461.345 9  -4501354.565 9
  22917701.521    22917705.013    -3807230.218 9  -4506992.083 8
 89 11 17 10 46 29.0800000  0  4G 2G 6G11G 9
  24378444.064    24378451.259     5421707.435 8   2622716.858 9
  20832644.225    20832648.261    -1342358.754 8  -2763139.250 8
  21689507.105    21689511.969    -3954422.122 9  -4561323.990 9
  22901460.359    22901464.801    -3892579.387 9  -4573497.921 8
 89 11 17 10 46 59.0800000  0  4G 2G 6G11G 9
  24393970.733    24393977.712     5503300.589 7   2686295.934 9
  20825993.155    20825996.918    -1377312.058 9  -2790375.623 9
  21674945.759    21674951.431    -4030940.528 9  -4620948.706 9
  22885231.145    22885235.638    -3977866.894 9  -4639955.735 9
 89 11 17 10 47 29.0800000  0  4G 2G 6G11G 9
  24409499.518    24409506.214     5584900.620 8   2749880.392 9
  20819396.673    20819400.523    -1411979.686 9  -2817389.370 9
  21660469.716    21660474.731    -4107014.713 9  -4680227.275 8
  22869013.436    22869018.028    -4063091.209 9  -4706364.308 8
 89 11 17 10 47 59.0800000  0  3G 6G11G 9
  20812854.038    20812858.045    -1446359.646 9  -2844178.974 9
  21646077.266    21646083.185    -4182642.453 9  -4739157.976 9
  22852807.666    22852811.960    -4148250.786 9  -4772722.424 9
 89 11 17 10 48 29.0800000  0  3G 6G11G 9
  20806367.280    20806370.943    -1480449.565 9  -2870742.569 8
  21631771.672    21631776.450    -4257821.329 9  -4797738.892 9
  22836615.342    22836619.741    -4233343.483 9  -4839028.446 9
 89 11 17 10 48 59.0800000  0  3G 6G11G 9
  20799934.382    20799939.905    -1514247.675 9  -2897078.760 9
  21617551.834    21617556.495    -4332549.687 9  -4855968.749 9
  22820435.437    22820440.696    -4318367.670 9  -4905281.059 9
 89 11 17 10 49 29.0800000  0  3G 6G11G 9
  20793559.035    20793563.500    -1547752.023 9  -2923186.068 9
  21603417.371    21603422.207    -4406825.325 9  -4913845.846 8
  22804269.770    22804273.584    -4403322.100 9  -4971479.308 8
 89 11 17 10 49 59.0800000  0  3G 6G11G 9
  20787239.237    20787244.330    -1580960.482 9  -2949062.826 8
  21589370.175    21589374.022    -4480646.434 9  -4971368.773 9
  22788116.896    22788121.904    -4488204.855 9  -5037621.730 9
 89 11 17 10 50 29.0800000  0  3G 6G11G 9
  20780977.719    20780981.769    -1613870.898 9  -2974707.341 8
  21575409.242    21575413.863    -4554011.035 9  -5028535.967 8
  22771978.323    22771983.381    -4573013.877 9  -5103706.654 9
 89 11 17 10 50 59.0800000  0  3G 6G11G 9
  20774772.065    20774775.901    -1646481.556 8  -3000118.278 8
  21561534.823    21561540.008    -4626917.083 9  -5085345.847 9
  22755854.317    22755858.281    -4657748.031 9  -5169733.262 9
 89 11 17 10 51 29.0800000  0  3G 6G11G 9
  20768623.920    20768627.268    -1678790.251 9  -3025293.896 9
  21547749.533    21547753.897    -4699362.731 9  -5141796.973 8
  22739744.171    22739748.892    -4742405.322 9  -5235699.979 9
 89 11 17 10 51 59.0800000  0  3G 6G11G 9
  20762533.584    20762537.646    -1710794.823 9  -3050232.538 9
  21534051.757    21534055.827    -4771345.735 9  -5197887.614 8
  22723649.140    22723653.555    -4826984.037 9  -5301605.488 9
 89 11 17 10 52 29.0800000  0  3G 6G11G 9
  20756501.143    20756505.206    -1742493.315 9  -3074932.664 8
  21520441.488    21520445.906    -4842864.263 9  -5253616.318 8
  22707569.787    22707574.888    -4911482.151 9  -5367448.184 9
 89 11 17 10 52 59.0800000  0  3G 6G11G 9
  20750528.700    20750531.003    -1773883.808 9  -3099392.811 9
  21506920.850    21506925.543    -4913916.442 9  -5308981.642 8
  22691506.115    22691510.631    -4995898.037 9  -5433226.773 9
 89 11 17 10 53 29.0800000  0  3G 6G11G 9
  20744614.109    20744618.271    -1804964.270 9  -3123611.359 9
  21493488.796    21493495.025    -4984500.551 9  -5363982.233 8
  22675458.228    22675462.656    -5080230.163 9  -5498940.095 8
 89 11 17 10 53 59.0800000  0  3G 6G11G 9
  20738759.330    20738762.292    -1835732.348 9  -3147586.476 9
  21480147.015    21480151.919    -5054614.311 9  -5418616.304 9
  22659426.373    22659430.930    -5164476.200 9  -5564586.327 9
 89 11 17 10 54 29.0800000  0  3G 6G11G 9
  20732963.692    20732968.213    -1866186.393 9  -3171316.886 8
  21466894.666    21466900.262    -5124256.469 9  -5472882.896 9
  22643411.296    22643416.411    -5248634.901 9  -5630164.504 9
 89 11 17 10 54 59.0800000  0  3G 6G11G 9
  20727228.008    20727232.516    -1896324.540 9  -3194801.155 9
  21453732.559    21453738.083    -5193425.267 9  -5526780.642 8
  22627412.668    22627417.662    -5332704.552 9  -5695673.308 9
 89 11 17 10 55 29.0800000  0  3G 6G11G 9
  20721553.684    20721557.232    -1926144.521 9  -3218037.519 9
  21440659.952    21440665.102    -5262118.461 9  -5580307.787 9
  22611432.670    22611437.921    -5416682.921 9  -5761110.953 9
 89 11 17 10 55 59.0800000  0  3G 6G11G 9
  20715940.687    20715945.338    -1955644.364 9  -3241024.403 9
  21427678.999    21427684.024    -5330334.452 9  -5633463.091 9
  22595469.664    22595475.051    -5500568.493 9  -5826476.304 9
 89 11 17 10 56 29.0800000  0  3G 6G11G 9
  20710387.332    20710391.854    -1984821.923 9  -3263760.148 9
  21414789.302    21414793.605    -5398071.679 9  -5686245.325 8
  22579525.130    22579530.210    -5584359.135 9  -5891767.708 9
 89 11 17 10 56 59.0800000  0  3G 6G11G 9
  20704897.667    20704901.388    -2013675.385 9  -3286243.369 8
  21401990.612    21401996.013    -5465328.369 9  -5738653.130 9
  22563598.727    22563603.027    -5668053.137 9  -5956983.770 9
 89 11 17 10 57 29.0800000  0  3G 6G11G 9
  20699468.242    20699473.366    -2042202.349 8  -3308472.183 9
  21389284.283    21389288.813    -5532102.489 9  -5790684.896 9
  22547691.292    22547695.442    -5751648.351 9  -6022122.860 9
 89 11 17 10 57 59.0800000  0  3G 6G11G 9
  20694103.080    20694106.902    -2070400.844 9  -3330445.038 9
  21376669.664    21376674.336    -5598391.991 9  -5842339.029 9
  22531802.457    22531807.051    -5835142.985 9  -6087183.579 9
 89 11 17 10 58 29.0800000  0  3G 6G11G 9
  20688799.451    20688804.030    -2098269.188 9  -3352160.628 9
  21364146.826    21364152.320    -5664195.633 9  -5893614.577 9
  22515933.863    22515937.841    -5918535.456 9  -6152164.702 9
 89 11 17 10 58 59.0800000  0  3G 6G11G 9
  20683559.997    20683564.262    -2125805.240 9  -3373617.276 8
  21351718.305    21351722.886    -5729511.645 9  -5944510.147 9
  22500084.816    22500088.929    -6001823.733 9  -6217064.579 8
 89 11 17 10 59 29.0800000  0  3G 6G11G 9
  20678383.675    20678387.538    -2153006.746 9  -3394813.221 8
  21339381.369    21339387.161    -5794338.282 9  -5995024.370 9
  22484254.714    22484259.737    -6085005.627 9  -6281881.606 8
 89 11 17 10 59 59.0800000  0  3G 6G11G 9
  20673271.370    20673274.977    -2179871.714 9  -3415746.978 9
  21327139.840    21327144.025    -5858673.754 9  -6045155.901 9
  22468446.376    22468452.177    -6168079.377 9  -6346614.356 8
 89 11 17 11  0 29.0800000  0  3G 6G11G 9
  20668222.788    20668226.665    -2206398.475 9  -3436417.167 9
  21314990.210    21314995.383    -5922516.780 9  -6094903.685 9
  22452658.793    22452663.836    -6251043.095 9  -6411261.386 9
 89 11 17 11  0 59.0800000  0  3G 6G11G 9
  20663239.939    20663245.434    -2232584.692 9  -3456821.995 9
  21302934.619    21302941.345    -5985865.682 9  -6144266.429 9
  22436892.845    22436897.840    -6333894.942 9  -6475821.267 8
 89 11 17 11  1 29.0800000  0  3G 6G11G 9
  20658322.168    20658325.962    -2258428.134 9  -3476959.723 8
  21290974.615    21290980.027    -6048718.439 9  -6193242.581 9
  22421148.012    22421153.571    -6416632.401 9  -6540292.004 9
 89 11 17 11  1 59.0800000  0  3G 6G11G 9
  20653470.107    20653473.685    -2283927.261 9  -3496829.147 8
  21279109.180    21279113.718    -6111074.045 9  -6241831.335 8
  22405426.001    22405430.817    -6499254.058 9  -6604672.502 9
 89 11 17 11  2 29.0800000  0  4G13G 6G11G 9
                  24548535.329   -14890140.211 9
  20648684.540    20648687.403    -2309079.865 9  -3516428.551 9
  21267338.185    21267343.264    -6172931.063 9  -6290031.576 8
  22389727.073    22389730.782    -6581757.806 9  -6668961.087 9
 89 11 17 11  2 59.0800000  0  4G13G 6G11G 9
  24526070.732    24526077.776   -15008337.773 7  18998451.249 9
  20643963.360    20643967.683    -2333883.842 9  -3535756.313 9
  21255661.632    21255667.120    -6234287.685 9  -6337841.905 9
  22374049.088    22374054.022    -6664141.539 9  -6733156.198 9
 89 11 17 11  3 29.0800000  0  4G13G 6G11G 9
  24503601.301    24503605.933   -15126423.080 8  18906436.708 8
  20639310.453    20639313.732    -2358337.419 8  -3554811.073 9
  21244081.329    21244086.436    -6295142.612 9  -6385261.292 9
  22358395.257    22358400.387    -6746403.318 9  -6797256.271 8
 89 11 17 11  3 59.0800000  0  4G13G 6G11G 9
  24481152.375    24481157.305   -15244393.762 8  18814511.476 8
  20634724.056    20634727.520    -2382438.376 9  -3573591.078 9
  21232597.383    21232602.268    -6355494.349 9  -6432288.583 8
  22342764.941    22342769.656    -6828541.027 9  -6861259.652 8
 89 11 17 11  4 29.0800000  0  4G13G 6G11G 9
  24458724.542    24458731.237   -15362247.239 9  18722677.549 8
  20630205.712    20630208.761    -2406184.832 9  -3592094.824 9
  21221208.502    21221213.570    -6415341.136 9  -6478922.426 8
  22327158.134    22327163.496    -6910552.765 9  -6925164.870 9
 89 11 17 11  4 59.0800000  0  4G13G 6G11G 9
  24436321.969    24436326.513   -15479981.004 9  18630936.907 9
  20625754.520    20625758.341    -2429574.498 8  -3610320.502 9
  21209915.802    21209921.548    -6474681.424 9  -6525161.579 8
  22311576.565    22311580.767    -6992436.368 9  -6988970.260 9
 89 11 17 11  5 29.0800000  0  4G13G 6G11G 9
  24413941.404    24413946.491   -15597592.221 9  18539291.754 9
  20621371.568    20621376.464    -2452605.677 9  -3628266.860 9
  21198721.258    21198725.902    -6533514.109 9  -6571005.192 9
  22296019.545    22296023.394    -7074189.865 9  -7052674.241 9
 89 11 17 11  5 59.0800000  0  4G13G 6G11G 9
  24391584.884    24391590.860   -15715077.892 9  18447744.424 8
  20617057.675    20617061.779    -2475276.080 9  -3645932.106 9
  21187621.870    21187627.301    -6591837.673 9  -6616452.099 8
  22280487.820    22280491.445    -7155811.086 8  -7116275.183 9
 89 11 17 11  6 29.0800000  0  4G13G 6G11G 9
  24369252.458    24369256.888   -15832435.788 9  18356296.644 8
  20612812.778    20612816.416    -2497583.872 9  -3663314.813 8
  21176621.272    21176626.176    -6649650.603 9  -6661501.117 9
  22264980.920    22264986.341    -7237297.851 9  -7179771.327 9
 89 11 17 11  6 59.0800000  0  4G13G 6G11G 9
  24346944.268    24346949.453   -15949663.017 9  18264950.685 8
  20608637.223    20608640.990    -2519527.062 9  -3680413.373 8
  21165716.563    21165722.225    -6706951.771 9  -6706151.335 8
  22249500.863    22249505.091    -7318648.327 9  -7243161.262 9
 89 11 17 11  7 29.0800000  0  4G13G 6G11G 9
  24324662.443    24324668.319   -16066757.268 9  18173708.359 9
  20604531.258    20604534.191    -2541103.723 9  -3697226.328 8
  21154910.724    21154914.633    -6763739.815 9  -6750401.733 9
  22234045.934    22234050.984    -7399860.131 9  -7306443.148 8
 89 11 17 11  7 59.0800000  0  4G13G 6G11G 9
  24302405.598    24302411.198   -16183716.542 9  18082571.208 7
  20600495.005    20600499.571    -2562311.796 9  -3713752.076 9
  21144202.143    21144206.678    -6820013.450 9  -6794251.287 8
  22218618.886    22218623.565    -7480931.475 9  -7369615.589 9
 89 11 17 11  8 29.0800000  0  4G13G 6G11G 9
  24280175.886    24280180.801   -16300537.338 9  17991541.962 7
  20596530.196    20596534.063    -2583149.586 9  -3729989.309 9
  21133592.094    21133595.997    -6875771.524 9  -6837699.094 9
  22203219.092    22203223.214    -7561860.346 9  -7432677.019 9
 89 11 17 11  8 59.0800000  0  4G13G 6G11G 9
  24257971.811    24257976.373   -16417217.401 9  17900622.381 7
  20592635.673    20592639.471    -2603614.810 9  -3745936.194 8
  21123079.897    21123084.882    -6931012.705 9  -6880744.148 8
  22187845.586    22187850.599    -7642644.453 9  -7495625.628 8
 89 11 17 11  9 29.0800000  0  4G13G 6G11G 9
  24235795.132    24235800.175   -16533754.413 9  17809814.303 6
  20588811.856    20588816.539    -2623705.904 9  -3761591.566 8
  21112666.131    21112670.784    -6985735.829 9  -6923385.502 9
  22172501.329    22172504.782    -7723281.906 9  -7558459.980 8
 89 11 17 11  9 59.0800000  0  4G13G 6G11G 9
  24213647.383    24213650.833   -16650145.614 9  17719119.843 7
  20585060.441    20585064.347    -2643420.632 9  -3776953.651 8
  21102351.613    21102356.936    -7039939.587 9  -6965622.168 8
  22157185.161    22157188.844    -7803770.389 9  -7621178.268 8
 89 11 17 11 10 29.0800000  0  4G13G 6G11G 9
  24191527.379    24191532.724   -16766388.286 8  17628541.117 7
  20581381.531    20581385.283    -2662757.125 9  -3792021.023 8
  21092135.628    21092141.377    -7093622.704 9  -7007453.134 9
  22141897.150    22141901.963    -7884107.750 8  -7683778.811 8
 89 11 17 11 10 59.0800000  0  4G13G 6G11G 9
  24169434.619    24169439.860   -16882479.988 8  17538080.055 8
  20577773.539    20577777.073    -2681713.514 9  -3806792.209 9
  21082019.190    21082023.865    -7146784.091 9  -7048877.541 9
  22126638.282    22126642.441    -7964291.865 9  -7746259.935 9
 89 11 17 11 11 29.0800000  0  4G13G 6G11G 9
  24147373.256    24147378.559   -16998417.580 8  17447739.105 8
  20574239.176    20574242.790    -2700287.567 9  -3821265.472 8
  21072002.784    21072007.849    -7199422.337 9  -7089894.322 8
  22111409.090    22111414.142    -8044320.305 9  -7808619.728 9
 89 11 17 11 11 59.0800000  0  4G13G 6G11G 9
  24125340.067    24125347.973   -17114199.089 9  17357519.787 8
  20570777.409    20570781.448    -2718477.562 9  -3835439.494 8
  21062085.964    21062090.909    -7251536.782 9  -7130502.961 9
  22096210.786    22096216.111    -8124191.091 9  -7870856.654 9
 89 11 17 11 12 29.0800000  0  4G13G 6G11G 9
  24103338.829    24103343.187   -17229821.986 8  17267424.061 8
  20567389.821    20567393.031    -2736281.583 9  -3849312.747 8
  21052268.324    21052273.189    -7303126.252 9  -7170702.517 9
  22081042.351    22081046.641    -8203902.052 9  -7932969.056 9
 89 11 17 11 12 59.0800000  0  4G13G 6G11G 9
  24081366.791    24081371.631   -17345283.047 9  17177454.441 8
  20564075.438    20564079.162    -2753697.504 9  -3862883.609 8
  21042550.580    21042556.375    -7354189.069 9  -7210491.686 9
  22065904.223    22065908.212    -8283450.889 9  -7994955.120 9
 89 11 17 11 13 29.0800000  0  4G13G 6G11G 9
  24059426.615    24059432.218   -17460580.342 9  17087612.428 9
  20560835.490    20560839.099    -2770724.028 9  -3876150.994 8
  21032934.390    21032939.613    -7404724.862 9  -7249870.206 9
  22050798.405    22050802.708    -8362835.967 9  -8056813.579 8
 89 11 17 11 13 59.0800000  0  4G13G 6G11G 9
  24037517.426    24037523.109   -17575711.211 9  16997900.114 8
  20557670.150    20557673.702    -2787358.554 9  -3889112.976 9
  21023418.869    21023423.926    -7454731.978 9  -7288836.762 9
  22035723.044    22035728.105    -8442054.349 9  -8118542.192 9
 89 11 17 11 14 29.0800000  0  4G13G 6G11G 9
  24015641.152    24015646.001   -17690672.657 9  16908319.808 9
  20554579.965    20554583.058    -2803599.108 9  -3901767.947 8
  21014003.284    21014007.770    -7504209.190 9  -7327390.393 8
  22020680.306    22020685.082    -8521103.724 9  -8180139.039 9
 89 11 17 11 14 59.0800000  0  4G13G 6G11G 9
  23993797.976    23993801.862   -17805461.831 9  16818873.738 9
  20551564.686    20551567.592    -2819443.943 9  -3914114.546 9
  21004689.413    21004693.825    -7553155.908 9  -7365530.660 9
  22005670.716    22005675.465    -8599982.106 8  -8241602.687 9
 89 11 17 11 15 29.0800000  0  4G13G 6G11G 9
  23971986.624    23971993.292   -17920076.541 9  16729563.619 9
  20548624.718    20548628.024    -2834891.071 9  -3926151.274 9
  20995475.741    20995480.345    -7601571.006 9  -7403256.688 8
  21990693.311    21990697.241    -8678687.005 9  -8302931.175 9
 89 11 17 11 15 59.0800000  0  4G13G 6G11G 9
  23950210.199    23950216.085   -18034514.286 9  16640391.392 9
  20545760.805    20545764.811    -2849938.665 9  -3937876.622 9
  20986364.443    20986369.248    -7649453.772 9  -7440567.907 8
  21975748.972    21975753.974    -8757216.402 9  -8364122.890 9
 89 11 17 11 16 29.0800000  0  4G13G 6G11G 9
  23928467.738    23928474.090   -18148772.182 9  16551359.299 9
  20542974.242    20542977.864    -2864585.133 9  -3949289.464 8
  20977353.779    20977359.562    -7696803.327 9  -7477463.632 8
  21960840.064    21960844.624    -8835568.071 9  -8425176.100 9
 89 11 17 11 16 59.0800000  0  4G13G 6G11G 9
  23906758.875    23906765.172   -18262848.216 9  16462468.931 9
  20540263.992    20540267.529    -2878828.267 9  -3960388.002 8
  20968446.015    20968449.915    -7743618.300 9  -7513942.829 9
  21945964.032    21945968.400    -8913739.547 8  -8486088.878 9
 89 11 17 11 17 29.0800000  0  4G13G 6G11G 9
  23885086.649    23885092.516   -18376740.060 9  16373722.082 8
  20537630.556    20537634.176    -2892666.187 9  -3971170.776 7
  20959639.165    20959644.090    -7789897.833 9  -7550004.780 8
  21931123.682    21931127.697    -8991728.484 9  -8546859.417 9
 89 11 17 11 17 59.0800000  0  4G13G 6G11G 9
  23863448.861    23863455.214   -18490444.688 9  16285121.132 9
  20535074.700    20535078.921    -2906097.028 9  -3981636.330 8
  20950933.659    20950938.669    -7835641.150 9  -7585648.886 8
  21916317.821    21916322.330    -9069532.786 9  -8607486.139 9
 89 11 17 11 18 29.0800000  0  4G13G 6G11G 9
  23841848.290    23841852.827   -18603959.607 9  16196668.028 8
  20532597.275    20532600.829    -2919119.055 8  -3991783.357 9
  20942332.066    20942336.318    -7880847.430 9  -7620874.549 8
  21901547.721    21901552.211    -9147150.169 9  -8667967.223 9
 89 11 17 11 18 59.0800000  0  4G13G 6G11G 9
  23820284.226    23820288.799   -18717281.991 9  16108364.936 9
  20530196.776    20530200.345    -2931730.337 8  -4001610.329 8
  20933831.261    20933835.939    -7925516.028 9  -7655681.226 8
  21886813.824    21886818.597    -9224578.141 9  -8728300.703 9
 89 11 17 11 19 29.0800000  0  4G13G 6G11G 9
  23798756.005    23798760.744   -18830409.781 8  16020213.484 7
  20527875.096    20527878.505    -2943929.343 9  -4011116.070 9
  20925433.144    20925437.654    -7969646.407 9  -7690068.514 8
  21872116.117    21872120.874    -9301814.627 9  -8788484.987 8
 89 11 17 11 19 59.0800000  0  4G13G 6G11G 9
  23777264.486    23777271.564   -18943340.741 8  15932215.379 8
  20525633.267    20525636.707    -2955714.083 9  -4020298.992 8
  20917138.329    20917142.501    -8013237.146 8  -7724035.300 8
  21857455.482    21857459.563    -9378857.281 9  -8848518.224 9
 89 11 17 11 20 29.0800000  0  4G13G 6G11G 9
  23755813.217    23755818.666   -19056071.905 9  15844372.984 8
  20523468.975    20523473.641    -2967082.676 8  -4029157.654 8
  20908945.360    20908950.855    -8056287.636 8  -7757581.130 9
  21842832.688    21842836.475    -9455703.746 9  -8908398.618 9
 89 11 17 11 20 59.0800000  0  4G13G 6G11G 9
  23734400.449    23734405.621   -19168600.551 9  15756688.372 8
  20521385.739    20521389.478    -2978033.414 9  -4037690.695 8
  20900856.552    20900861.384    -8098797.513 9  -7790705.688 8
  21828245.906    21828250.916    -9532351.588 9  -8968124.189 8
 89 11 17 11 21 29.0800000  0  4G13G 6G11G 9
  23713025.324    23713031.475   -19280924.475 8  15669163.292 7
  20519382.478    20519385.243    -2988564.283 9  -4045896.531 9
  20892870.105    20892874.609    -8140765.525 9  -7823408.029 9
  21813698.854    21813703.467    -9608798.291 9  -9027692.983 9
 89 11 17 11 21 59.0800000  0  4G13G 6G11G 9
  23691690.795    23691695.353   -19393041.185 9  15581799.678 8
  20517458.033    20517461.141    -2998673.682 9  -4053774.006 9
  20884987.343    20884992.983    -8182191.417 9  -7855687.943 8
  21799190.404    21799194.968    -9685041.735 9  -9087103.449 8
 89 11 17 11 22 29.0800000  0  4G13G 6G11G 9
  23670395.518    23670401.298   -19504947.863 9  15494599.701 8
  20515614.747    20515618.117    -3008359.868 9  -4061321.697 8
  20877207.876    20877211.993    -8223074.475 9  -7887544.863 8
  21784721.263    21784724.179    -9761079.445 9  -9146353.562 8
 89 11 17 11 22 59.0800000  0  4G13G 6G11G 9
  23649140.199    23649145.706   -19616642.421 9  15407565.041 8
  20513852.310    20513856.221    -3017621.046 9  -4068538.204 8
  20869532.019    20869534.937    -8263414.052 9  -7918978.276 8
  21770290.786    21770295.934    -9836909.227 9  -9205441.657 8
 89 11 17 11 23 29.0800000  0  4G13G 6G11G 9
  23627926.463    23627930.803   -19728122.272 9  15320697.679 9
  20512171.105    20512174.343    -3026455.265 9  -4075421.981 8
  20861957.969    20861963.354    -8303209.313 9  -7949987.566 9
  21755900.791    21755904.809    -9912528.522 9  -9264365.743 9
 89 11 17 11 23 59.0800000  0  4G13G 6G11G 9
  23606754.003    23606759.344   -19839384.608 9  15233999.801 8
  20510571.664    20510575.404    -3034860.668 9  -4081971.616 8
  20854489.852    20854493.532    -8342459.839 9  -7980572.402 8
  21741551.529    21741555.876    -9987934.912 9  -9323123.917 9
 89 11 17 11 24 29.0800000  0  4G13G 6G11G 9
  23585623.372    23585628.944   -19950426.923 9  15147473.365 9
  20509053.658    20509058.338    -3042835.724 8  -4088185.910 9
  20847124.041    20847127.655    -8381165.100 9  -8010732.343 7
  21727243.178    21727246.808   -10063125.851 9  -9381714.179 8
 89 11 17 11 24 59.0800000  0  4G13G 6G11G 9
  23564535.413    23564540.442   -20061246.994 9  15061120.128 9
  20507619.015    20507623.495    -3050378.725 8  -4094063.572 8
  20839862.521    20839866.993    -8419324.463 9  -8040466.911 8
  21712976.075    21712979.781   -10138099.105 9  -9440134.845 9
 89 11 17 11 25 29.0800000  0  4G13G 6G11G 9
  23543489.087    23543494.107   -20171842.541 9  14974941.827 8
  20506266.119    20506268.702    -3057487.895 9  -4099603.181 9
  20832704.565    20832709.578    -8456937.344 9  -8069775.636 7
  21698750.224    21698755.501   -10212852.355 9  -9498384.069 9
 89 11 17 11 25 59.0800000  0  4G13G 6G11G 9
  23522486.783    23522491.663   -20282211.019 9  14888940.469 8
  20504995.791    20504999.445    -3064161.503 9  -4104803.421 8
  20825652.211    20825656.472    -8494003.201 9  -8098658.119 8
  21684568.489    21684572.497   -10287382.931 9  -9556459.748 9
 89 11 17 11 26 29.0800000  0  4G13G 6G11G 9
  23501526.806    23501532.679   -20392349.701 9  14803118.174 8
  20503809.067    20503812.606    -3070397.914 9  -4109662.981 9
  20818702.231    20818707.896    -8530521.785 9  -8127114.145 8
  21670427.651    21670432.985   -10361688.652 9  -9614360.292 9
 89 11 17 11 26 59.0800000  0  4G13G 6G11G 9
  23480613.127    23480617.906   -20502256.491 9  14717476.572 9
  20502705.729    20502709.738    -3076195.418 9  -4114180.493 9
  20811857.526    20811862.470    -8566492.800 9  -8155143.513 8
  21656332.421    21656335.036   -10435767.138 9  -9672083.775 9
 89 11 17 11 27 29.0800000  0  4G13G 6G11G 9
  23459742.706    23459748.584   -20611928.381 9  14632018.011 9
  20501685.580    20501688.830    -3081552.379 9  -4118354.751 9
  20805116.116    20805121.173    -8601915.312 8  -8182745.473 8
  21642278.930    21642283.372   -10509615.738 9  -9729628.109 9
 89 11 17 11 27 59.0800000  0  4G13G 6G11G 9
  23438918.625    23438924.013   -20721363.657 9  14546743.831 9
  20500751.113    20500754.039    -3086467.101 8  -4122184.397 8
  20798480.228    20798483.759    -8636789.082 9  -8209919.814 8
  21628269.797    21628274.370   -10583232.139 9  -9786991.472 8
 89 11 17 11 28 29.0800000  0  4G13G 6G11G 9
  23418138.987    23418144.560   -20830559.758 8  14461656.005 8
  20499899.388    20499904.041    -3090937.784 9  -4125668.029 9
  20791947.859    20791952.297    -8671113.712 9  -8236666.273 8
  21614305.864    21614309.704   -10656613.708 9  -9844171.830 9
 89 11 17 11 28 59.0800000  0  4G13G 6G11G 9
  23397405.985    23397411.048   -20939514.088 9  14376756.569 9
  20499134.301    20499138.009    -3094962.919 9  -4128804.498 8
  20785521.435    20785525.681    -8704888.716 9  -8262984.422 8
  21600386.659    21600391.135   -10729758.116 9  -9901167.457 9
 89 11 17 11 29 29.0800000  0  4G13G 6G11G 9
  23376718.939    23376725.341   -21048224.200 9  14292047.434 8
  20498453.866    20498457.892    -3098540.871 9  -4131592.550 8
  20779198.987    20779203.236    -8738114.034 9  -8288874.291 8
  21586513.541    21586517.534   -10802662.909 9  -9957976.362 9
 89 11 17 11 29 59.0800000  0  4G13G 6G11G 9
  23356079.564    23356084.430   -21156687.573 9  14207530.542 8
  20497857.613    20497861.512    -3101669.879 9  -4134030.753 8
  20772980.641    20772985.400    -8770789.298 8  -8314335.527 8
  21572686.318    21572690.124   -10875325.506 9 -10014596.586 9
 89 11 17 11 30 29.0800000  0  4G13G 6G11G 9
  23335486.611    23335491.790   -21264901.915 9  14123207.723 8
  20497348.492    20497351.926    -3104348.432 8  -4136117.960 9
  20766867.525    20766872.862    -8802914.417 9  -8339368.094 8
  21558905.838    21558909.888   -10947743.369 9 -10071026.029 8
 89 11 17 11 30 59.0800000  0  4G13G 6G11G 9
  23314942.287    23314947.916   -21372864.844 9  14039080.785 9
  20496925.178    20496928.915    -3106574.853 9  -4137852.849 8
  20760858.792    20760864.049    -8834488.747 8  -8363971.459 8
  21545171.302    21545175.658   -11019914.107 9 -10127262.942 9
 89 11 17 11 31 29.0800000  0  4G13G 6G11G 9
  23294446.143    23294450.514   -21480573.803 9  13955151.755 8
  20496587.949    20496590.785    -3108347.569 8  -4139234.190 9
  20754955.449    20754960.239    -8865512.172 9  -8388145.548 8
  21531485.676    21531490.033   -11091835.335 9 -10183305.452 9
 89 11 17 11 31 59.0800000  0  4G13G 6G11G 9
  23273998.276    23274003.120   -21588026.654 9  13871422.258 8
  20496336.650    20496340.143    -3109665.050 9  -4140260.805 8
  20749157.130    20749160.892    -8895984.643 9  -8411890.349 8
  21517847.454    21517851.171   -11163504.237 9 -10239151.338 9
 89 11 17 11 32 29.0800000  0  4G13G 6G11G 9
  23253599.642    23253603.863   -21695220.518 9  13787894.583 8
  20496173.063    20496177.445    -3110525.601 9  -4140931.409 8
  20743463.657    20743468.733    -8925905.956 8  -8435205.661 8
  21504258.001    21504261.704   -11234918.617 9 -10294798.899 9
 89 11 17 11 32 59.0800000  0  4G13G 6G11G 9
  23233250.852    23233256.275   -21802153.288 9  13704570.361 8
  20496096.565    20496100.029    -3110927.632 9  -4141244.710 8
  20737874.979    20737878.567    -8955275.378 8  -8458090.912 7
  21490717.098    21490720.851   -11306075.472 9 -10350245.745 9
 89 11 17 11 33 29.0800000  0  4G13G 6G11G 9
  23212952.210    23212958.347   -21908823.024 9  13621451.100 8
  20496107.539    20496110.816    -3110870.004 9  -4141199.794 9
  20732390.523    20732395.550    -8984093.376 9  -8480546.478 8
  21477225.888    21477229.849   -11376972.950 9 -10405490.530 8
 89 11 17 11 33 59.0800000  0  4G13G 6G11G 9
  23192704.446    23192708.826   -22015227.457 9  13538538.566 8
  20496206.753    20496210.578    -3110350.901 9  -4140795.314 8
  20727011.348    20727016.024    -9012359.598 8  -8502572.084 8
  21463785.039    21463789.263   -11447608.069 9 -10460530.875 9
 89 11 17 11 34 29.0800000  0  4G13G 6G11G 9
  23172507.854    23172512.344   -22121363.671 9  13455835.028 9
  20496392.754    20496398.026    -3109368.777 8  -4140030.015 8
  20721737.810    20721742.881    -9040073.784 9  -8524167.546 8
  21450393.903    21450398.323   -11517978.496 9 -10515364.966 9
 89 11 17 11 34 59.0800000  0  4G13G 6G11G 9
  23152362.375    23152366.619   -22227229.209 9  13373342.407 8
  20496668.507    20496671.700    -3107922.162 9  -4138902.789 8
  20716568.563    20716572.812    -9067236.108 9  -8545332.965 8
  21437053.091    21437056.252   -11588081.480 9 -10569990.619 8
 89 11 17 11 35 29.0800000  0  4G13G 6G11G 9
  23132267.764    23132273.586   -22332822.177 9  13291062.182 9
  20497032.415    20497036.095    -3106009.631 9  -4137412.516 8
  20711504.877    20711510.194    -9093846.381 8  -8566068.224 8
  21423764.107    21423768.079   -11657914.792 8 -10624406.163 9
 89 11 17 11 35 59.0800000  0  4G13G 6G11G 9
  23112225.743    23112231.850   -22438140.138 9  13208996.273 8
  20497485.499    20497489.521    -3103629.710 9  -4135558.031 8
  20706546.210    20706552.047    -9119904.391 8  -8586373.171 9
  21410527.319    21410530.883   -11727475.621 9 -10678609.393 9
 89 11 17 11 36 29.0800000  0  4G13G 6G11G 9
  23092237.809    23092242.981   -22543180.784 9  13127146.434 8
  20498027.454    20498030.492    -3100780.716 9  -4133337.979 8
  20701692.824    20701697.943    -9145410.400 8  -8606247.958 9
  21397342.644    21397346.416   -11796761.490 9 -10732598.401 8
 89 11 17 11 36 59.0800000  0  4G13G 6G11G 9
  23072303.145    23072308.015   -22647941.654 9  13045514.601 8
  20498659.674    20498663.125    -3097461.470 8  -4130751.588 8
  20696943.878    20696949.183    -9170364.508 8  -8625692.726 8
  21384210.939    21384214.871   -11865769.826 9 -10786371.096 9
 89 11 17 11 37 29.0800000  0  4G13G 6G11G 9
  23052420.631    23052425.100   -22752420.320 9  12964102.660 8
  20499381.210    20499384.793    -3093670.344 9  -4127797.482 8
  20692300.539    20692305.750    -9194766.586 9  -8644707.310 9
  21371132.243    21371136.698   -11934498.016 9 -10839925.567 9
 89 11 17 11 37 59.0800000  0  4G13G 6G11G 9
  23032592.969    23032598.656   -22856614.809 9  12882912.170 8
  20500191.997    20500197.320    -3089406.040 9  -4124474.636 8
  20687761.646    20687767.738    -9218616.496 9  -8663291.621 8
  21358107.692    21358111.643   -12002943.454 9 -10893259.690 8
 89 11 17 11 38 29.0800000  0  4G13G 6G11G 9
  23012820.626    23012825.884   -22960522.650 9  12801945.025 8
  20501093.376    20501097.742    -3084666.836 8  -4120781.775 8
  20683328.309    20683333.360    -9241914.391 9  -8681445.854 9
  21345136.634    21345141.220   -12071103.620 9 -10946371.534 9
 89 11 17 11 38 59.0800000  0  4G13G 6G11G 9
  22993102.937    22993107.764   -23064141.779 9  12721202.857 9
  20502085.771    20502090.422    -3079451.440 9  -4116717.817 9
  20678999.733    20679005.393    -9264660.346 9  -8699170.014 8
  21332221.438    21332225.687   -12138975.772 9 -10999258.941 9
 89 11 17 11 39 29.0800000  0  4G13G 6G11G 9
  22973439.828    22973445.009   -23167469.859 9  12640687.468 8
  20503169.288    20503172.195    -3073758.718 8  -4112281.938 8
  20674776.655    20674782.112    -9286854.649 8  -8716464.266 9
  21319361.652    21319364.347   -12206557.396 9 -11051919.913 9
 89 11 17 11 39 59.0800000  0  4G13G 6G11G 9
  22953832.906    22953837.399   -23270504.556 9  12560400.698 9
  20504343.971    20504348.779    -3067587.246 9  -4107473.007 9
  20670658.956    20670663.145    -9308497.309 8  -8733328.658 9
  21306556.823    21306560.656   -12273845.838 9 -11104352.441 8
 89 11 17 11 40 29.0800000  0  4G13G 6G11G 9
  22934282.934    22934287.501   -23373243.955 9  12480344.009 8
  20505609.829    20505612.022    -3060935.558 9  -4102289.835 8
  20666645.182    20666649.008    -9329588.601 8  -8749763.416 8
  21293807.736    21293811.930   -12340839.008 9 -11156554.914 9
 89 11 17 11 40 59.0800000  0  4G13G 6G11G 9
  22914788.799    22914792.840   -23475685.062 9  12400519.778 8
  20506967.580    20506970.191    -3053802.365 9  -4096731.519 8
  20662736.174    20662740.815    -9350128.455 8  -8765768.489 8
  21281116.550    21281120.126   -12407533.754 9 -11208524.862 8
 89 11 17 11 41 29.0800000  0  4G13G 6G11G 9
  22895351.603    22895357.228   -23577825.969 9  12320929.464 8
  20508416.830    20508420.824    -3046186.416 9  -4090797.015 9
  20658932.184    20658937.063    -9370117.558 8  -8781344.438 7
  21268482.607    21268485.464   -12473927.707 9 -11260260.368 9
 89 11 17 11 41 59.0800000  0  4G13G 6G11G 9
  22875972.365    22875978.058   -23679664.970 9  12241574.399 8
  20509957.982    20509961.919    -3038086.468 9  -4084485.342 9
  20655232.084    20655238.085    -9389556.193 9  -8796491.420 8
  21255905.395    21255909.795   -12540018.444 9 -11311759.592 9
 89 11 17 11 42 29.0800000  0  4G13G 6G11G 9
  22856650.304    22856655.751   -23781199.584 9  12162456.518 8
  20511591.230    20511595.195    -3029501.150 9  -4077795.444 9
  20651639.401    20651643.507    -9408444.297 8  -8811209.359 9
  21243387.423    21243390.721   -12605803.048 9 -11363020.271 8
 89 11 17 11 42 59.0800000  0  4G13G 6G11G 9
  22837387.594    22837392.477   -23882427.647 9  12083577.502 8
  20513317.473    20513321.341    -3020429.313 9  -4070726.433 8
  20648149.710    20648153.836    -9426782.557 8  -8825498.888 9
  21230927.705    21230931.098   -12671279.140 9 -11414040.533 9
 89 11 17 11 43 29.0800000  0  4G13G 6G11G 9
  22818183.139    22818188.779   -23983346.771 9  12004939.232 8
  20515136.898    20515139.238    -3010869.832 8  -4063277.477 9
  20644763.892    20644769.597    -9444571.105 8  -8839360.091 8
  21218526.480    21218530.965   -12736444.338 9 -11464818.599 9
 89 11 17 11 43 59.0800000  0  4G13G 6G11G 9
  22799038.629    22799043.961   -24083954.717 9  11926543.444 8
  20517048.919    20517053.311    -3000821.148 9  -4055447.286 8
  20641483.687    20641488.236    -9461810.205 9  -8852793.126 9
  21206185.570    21206188.876   -12801295.820 9 -11515352.212 8
 89 11 17 11 44 29.0800000  0  4G13G 6G11G 9
  22779952.752    22779958.772   -24184249.748 9  11848391.477 8
  20519054.235    20519058.284    -2990282.333 9  -4047235.242 8
  20638307.367    20638312.950    -9478500.038 8  -8865798.151 9
  21193904.967    21193908.784   -12865830.910 9 -11565639.287 9
 89 11 17 11 44 59.0800000  0  4G13G 6G11G 9
  22760927.304    22760932.778   -24284229.403 9  11770485.246 8
  20521154.048    20521157.242    -2979251.950 9  -4038640.132 8
  20635234.965    20635240.929    -9494641.249 9  -8878375.717 8
  21181685.644    21181689.471   -12930047.055 9 -11615677.833 8
 89 11 17 11 45 29.0800000  0  4G13G 6G11G 9
  22741961.758    22741967.323   -24383891.839 9  11692826.208 9
  20523347.314    20523350.036    -2967728.955 8  -4029661.156 9
  20632268.779    20632274.422    -9510234.322 9  -8890526.185 7
  21169526.345    21169529.855   -12993941.764 9 -11665465.893 9
 89 11 17 11 45 59.0800000  0  4G13G 6G11G 9
  22723058.094    22723062.829   -24483234.940 9  11615416.007 9
  20525632.621    20525636.046    -2955712.221 9  -4020297.477 9
  20629407.015    20629410.709    -9525279.690 8  -8902249.799 8
  21157428.634    21157433.998   -13057512.266 9 -11715001.354 9
 89 11 17 11 46 29.0800000  0  4G13G 6G11G 9
  22704214.303    22704219.512   -24582256.051 9  11538256.686 8
  20528014.209    20528017.288    -2943200.737 9  -4010548.299 8
  20626647.321    20626651.470    -9539777.815 9  -8913547.054 8
  21145394.477    21145398.866   -13120756.006 9 -11764282.191 9
 89 11 17 11 46 59.0800000  0  4G13G 6G11G 9
  22685433.778    22685439.423   -24680953.211 9  11461349.826 9
  20530489.326    20530492.945    -2930193.058 9  -4000412.435 8
  20623992.290    20623996.760    -9553728.719 8  -8924417.896 8
  21133421.909    21133426.308   -13183670.208 9 -11813306.227 9
 89 11 17 11 47 29.0800000  0  4G13G 6G11G 9
  22666714.007    22666718.678   -24779324.257 9  11384697.081 9
  20533059.408    20533062.558    -2916688.232 8  -3989889.196 8
  20621441.734    20621445.660    -9567133.580 9  -8934863.281 8
  21121513.844    21121517.482   -13246252.708 9 -11862071.825 8
 89 11 17 11 47 59.0800000  0  4G13G 6G11G 9
  22648056.506    22648062.652   -24877367.306 9  11308299.911 8
  20535723.704    20535727.586    -2902685.133 9  -3978977.715 8
  20618994.714    20618999.243    -9579992.362 9  -8944883.096 8
  21109667.693    21109672.469   -13308500.486 9 -11910576.588 9
 89 11 17 11 48 29.0800000  0  4G13G 6G11G 9
  22629462.852    22629467.742   -24975080.665 9  11232159.651 9
  20538482.714    20538486.683    -2888182.584 9  -3967677.001 8
  20616651.641    20616656.245    -9592305.968 9  -8954478.126 8
  21097887.134    21097890.788   -13370410.865 9 -11958818.423 9
 89 11 17 11 48 59.0800000  0  4G13G 6G11G 9
  22610931.326    22610937.734   -25072462.237 9  11156277.912 9
  20541337.827    20541341.848    -2873179.667 8  -3955986.472 9
  20614411.623    20614416.724    -9604074.600 9  -8963648.480 8
  21086170.301    21086174.536   -13431981.522 9 -12006795.530 8
 89 11 17 11 49 29.0800000  0  4G13G 6G11G 9
  22592464.271    22592469.481   -25169509.247 9  11080656.879 9
  20544289.223    20544292.543    -2857675.317 9  -3943905.206 8
  20612276.050    20612280.113    -9615299.292 8  -8972394.997 9
  21074518.456    21074522.429   -13493209.700 9 -12054505.776 8
 89 11 17 11 49 59.0800000  0  4G13G 6G11G 9
  22574060.593    22574064.787   -25266219.852 9  11005297.998 9
  20547334.872    20547338.511    -2841668.415 9  -3931432.284 9
  20610242.485    20610247.939    -9625980.468 9  -8980717.979 8
  21062933.120    21062938.119   -13554092.797 8 -12101947.139 9
 89 11 17 11 50 29.0800000  0  4G13G 6G11G 9
  22555721.996    22555726.753   -25362592.343 9  10930202.567 8
  20550477.181    20550480.519    -2825157.977 9  -3918567.042 9
  20608313.268    20608319.303    -9636118.714 8  -8988617.881 9
  21051414.265    21051418.410   -13614628.209 9 -12149117.604 8
 89 11 17 11 50 59.0800000  0  4G13G 6G11G 9
  22537447.039    22537451.690   -25458624.741 9  10855372.138 8
  20553715.237    20553718.114    -2808143.025 8  -3905308.619 9
  20606487.478    20606492.643    -9645714.783 8  -8996095.366 7
  21039960.917    21039964.914   -13674813.380 9 -12196015.165 9
 89 11 17 11 51 29.0800000  0  4G13G 6G11G 9
  22519238.310    22519243.183   -25554314.857 9  10780808.420 8
  20557047.497    20557051.811    -2790622.585 9  -3891656.300 8
  20604765.813    20604769.793    -9654769.044 8  -9003150.636 9
  21028575.146    21028579.159   -13734645.304 9 -12242637.441 9
 89 11 17 11 51 59.0800000  0  4G13G 6G11G 9
  22501094.360    22501099.489   -25649660.649 9  10706513.006 9
  20560479.784    20560482.260    -2772595.624 9  -3877609.296 8
  20603144.731    20603149.721    -9663282.252 8  -9009784.326 8
  21017257.268    21017260.875   -13794121.655 9 -12288982.627 8
 89 11 17 11 52 29.0800000  0  4G13G 6G11G 9
  22483016.673    22483021.047   -25744660.253 9  10632487.345 8
  20564006.640    20564009.994    -2754061.387 9  -3863167.039 9
  20601627.556    20601632.368    -9671255.013 9  -9015996.890 7
  21006007.074    21006011.927   -13853239.721 9 -12335048.648 9
 89 11 17 11 52 59.0800000  0  4G13G 6G11G 9
  22465005.321    22465009.494   -25839311.541 9  10558733.129 9
  20567629.294    20567633.674    -2735018.748 9  -3848328.616 8
  20600213.767    20600218.217    -9678688.550 9  -9021789.297 8
  20994826.345    20994830.837   -13911996.975 9 -12380833.512 8
 89 11 17 11 53 29.0800000  0  4G13G 6G11G 9
  22447059.988    22447065.855   -25933612.218 9  10485252.087 8
  20571350.413    20571353.544    -2715466.834 9  -3833093.322 8
  20598900.630    20598905.646    -9685583.305 8  -9027161.844 8
  20983714.363    20983719.599   -13970390.757 8 -12426335.168 9
 89 11 17 11 53 59.0800000  0  4G13G 6G11G 9
  22429182.173    22429187.154   -26027560.460 9  10412045.682 9
  20575167.731    20575172.126    -2695404.767 9  -3817460.547 9
  20597690.879    20597696.594    -9691940.176 8  -9032115.254 8
  20972672.374    20972676.072   -14028418.246 9 -12471551.398 8
 89 11 17 11 54 29.0800000  0  4G13G 6G11G 9
  22411371.929    22411377.052   -26121155.151 9  10339114.765 8
  20579082.532    20579086.975    -2674831.704 9  -3801429.605 9
  20596584.109    20596588.621    -9697760.019 9  -9036650.200 9
  20961700.147    20961703.240   -14086076.965 9 -12516480.223 8
 89 11 17 11 54 59.0800000  0  4G13G 6G11G 9
  22393629.479    22393633.192   -26214393.876 9  10266461.248 8
  20583095.643    20583099.581    -2653746.992 9  -3784999.973 9
  20595578.676    20595583.618    -9703043.634 9  -9040767.335 8
  20950798.229    20950802.109   -14143364.311 9 -12561119.671 9
 89 11 17 11 55 29.0800000  0  4G13G 6G11G 9
  22375955.296    22375959.680   -26307273.229 9  10194087.731 8
  20587204.339    20587209.209    -2632148.559 9  -3768170.059 8
  20594675.755    20594680.591    -9707790.780 9  -9044466.402 8
  20939968.415    20939973.201   -14200276.865 9 -12605467.099 8
 89 11 17 11 55 59.0800000  0  4G13G 6G11G 9
  22358349.107    22358353.309   -26399792.718 9  10121994.644 8
  20591412.643    20591417.224    -2610036.431 8  -3750939.786 9
  20593874.091    20593878.037    -9712003.028 8  -9047748.662 8
  20929209.545    20929214.035   -14256812.679 9 -12649520.948 8
 89 11 17 11 56 29.0800000  0  4G13G 6G11G 9
  22340811.430    22340817.747   -26491950.839 9  10050183.152 8
  20595718.975    20595722.715    -2587410.300 9  -3733309.019 9
  20593172.775    20593177.361    -9715681.834 8  -9050615.256 8
  20918523.656    20918527.386   -14312969.352 9 -12693279.350 9
 89 11 17 11 56 59.0800000  0  4G13G 6G11G 9
  22323344.149    22323348.826   -26583745.363 9   9978654.970 8
  20600121.437    20600126.533    -2564269.306 9  -3715277.045 9
  20592575.286    20592579.372    -9718827.952 9  -9053066.776 8
  20907909.877    20907913.021   -14368744.456 9 -12736740.422 9
 89 11 17 11 57 29.0800000  0  4G13G 6G11G 9
  22305945.879    22305951.080   -26675174.335 9   9907411.636 8
  20604624.482    20604627.286    -2540612.628 8  -3696843.254 8
  20592078.184    20592083.083    -9721442.196 9  -9055103.861 8
  20897369.354    20897373.785   -14424135.225 9 -12779902.069 9
 89 11 17 11 57 59.0800000  0  4G13G 6G11G 9
  22288616.639    22288621.998   -26766235.922 9   9836454.583 9
  20609223.436    20609227.746    -2516439.407 9  -3678006.988 8
  20591680.698    20591685.737    -9723525.241 8  -9056727.019 7
  20886903.026    20886907.777   -14479138.866 9 -12822762.058 8
 89 11 17 11 58 29.0800000  0  4G13G 6G11G 9
  22271358.883    22271364.473   -26856928.111 9   9765785.358 9
  20613921.928    20613925.683    -2491749.011 9  -3658767.703 9
  20591385.304    20591390.487    -9725078.577 9  -9057937.397 7
  20876510.238    20876513.811   -14533752.959 9 -12865318.459 8
 89 11 17 11 58 59.0800000  0  4G13G 6G11G 9
  22254170.815    22254176.558   -26947249.529 9   9695405.054 9
  20618719.124    20618723.178    -2466540.811 9  -3639124.957 8
  20591189.223    20591195.670    -9726102.851 8  -9058735.535 8
  20866192.153    20866195.665   -14587974.832 9 -12907569.219 9
 89 11 17 11 59 29.0800000  0  4G13G 6G11G 9
  22237054.735    22237058.695   -27037197.952 9   9625315.402 8
  20623614.783    20623619.351    -2440813.966 9  -3619078.049 9
  20591096.202    20591100.869    -9726598.942 8  -9059122.120 7
  20855949.457    20855952.575   -14641801.801 9 -12949512.294 9
 89 11 17 11 59 59.0800000  0  4G13G 6G11G 9
  22220008.980    22220013.374   -27126772.110 9   9555517.371 9
  20628609.618    20628613.512    -2414568.223 9  -3598626.855 9
  20591101.628    20591106.830    -9726568.069 8  -9059098.043 9
  20845781.630    20845785.532   -14695231.614 9 -12991145.870 8
 89 11 17 12  0 29.0800000  0  4G13G 6G11G 9
  22203035.042    22203040.211   -27215969.574 9   9486012.874 8
  20633703.445    20633706.265    -2387802.240 9  -3577770.258 8
  20591207.264    20591213.371    -9726011.039 8  -9058663.982 9
  20835691.552    20835694.425   -14748261.251 8 -13032467.696 7
 89 11 17 12  0 59.0800000  0  4G13G 6G11G 9
  22186132.773    22186139.627   -27304789.081 8   9416802.903 8
  20638895.445    20638899.753    -2360515.990 9  -3556508.250 9
  20591413.883    20591419.411    -9724929.173 8  -9057820.984 8
  20825675.873    20825679.880   -14800888.463 9 -13073475.911 8
 89 11 17 12  1 29.0800000  0  4G13G 6G11G 9
  22169303.821    22169309.326   -27393228.871 9   9347888.809 9
  20644185.923    20644191.122    -2332708.738 9  -3534840.297 9
  20591719.281    20591724.094    -9723323.914 8  -9056570.132 8
  20815738.003    20815742.235   -14853110.337 9 -13114168.258 9
 89 11 17 12  1 59.0800000  0  4G13G 6G11G 9
  22152547.162    22152552.562   -27481287.035 9   9279272.073 8
  20649577.508    20649581.332    -2304379.890 9  -3512765.839 9
  20592124.266    20592129.247    -9721196.066 8  -9054912.093 8
  20805877.873    20805882.544   -14904924.541 9 -13154542.929 8
 89 11 17 12  2 29.0800000  0  4G13G 6G11G 9
  22135863.497    22135868.041   -27568962.139 9   9210953.836 9
  20655067.270    20655071.480    -2275528.968 9  -3490284.614 9
  20592628.458    20592633.380    -9718546.558 9  -9052847.553 9
  20796095.863    20796100.022   -14956328.494 9 -13194597.892 8
 89 11 17 12  2 59.0800000  0  4G13G 6G11G 9
  22119252.325    22119257.285   -27656251.974 9   9142935.802 9
  20660657.423    20660661.905    -2246155.397 9  -3467396.125 9
  20593231.958    20593236.707    -9715377.043 8  -9050377.805 9
  20786392.992    20786397.128   -15007319.424 9 -13234330.992 8
 89 11 17 12  3 29.0800000  0  4G13G 6G11G 9
  22102716.028    22102721.310   -27743155.134 9   9075219.063 8
  20666346.797    20666350.633    -2216258.577 9  -3444099.892 8
  20593933.938    20593938.694    -9711688.163 9  -9047503.369 8
  20776769.539    20776772.777   -15057895.324 9 -13273740.818 9
 89 11 17 12  3 59.0800000  0  4G13G 6G11G 9
  22086252.104    22086256.648   -27829669.541 9   9007805.253 8
  20672134.789    20672138.728    -2185838.151 9  -3420395.635 9
  20594733.358    20594739.928    -9707481.070 8  -9044225.138 8
  20767224.020    20767228.406   -15108053.249 9 -13312824.921 8
 89 11 17 12  4 29.0800000  0  4G13G 6G11G 9
  22069863.786    22069867.284   -27915793.879 9   8940695.400 9
  20678024.253    20678027.044    -2154893.705 9  -3396283.066 9
  20595632.971    20595638.099    -9702757.353 8  -9040544.339 8
  20757759.036    20757763.546   -15157790.380 9 -13351581.118 9
 89 11 17 12  4 59.0800000  0  4G13G 6G11G 9
  22053549.237    22053553.762   -28001526.481 9   8873890.802 8
  20684012.472    20684015.724    -2123424.736 9  -3371761.769 9
  20596629.681    20596635.461    -9697518.164 8  -9036461.832 8
  20748375.403    20748379.149   -15207104.803 9 -13390007.934 9
 89 11 17 12  5 29.0800000  0  4G13G 6G11G 9
  22037309.602    22037314.410   -28086866.025 9   8807392.458 9
  20690100.055    20690103.795    -2091431.047 8  -3346831.628 9
  20597723.859    20597729.356    -9691764.918 8  -9031978.780 8
  20739071.831    20739075.238   -15255993.776 9 -13428103.284 8
 89 11 17 12  5 59.0800000  0  4G13G 6G11G 9
  22021143.992    22021148.662   -28171810.582 9   8741201.914 8
  20696289.019    20696291.801    -2058911.923 9  -3321492.029 9
  20598917.738    20598922.393    -9685498.661 8  -9027095.980 7
  20729850.488    20729854.129   -15304454.754 9 -13465865.151 8
 89 11 17 12  6 29.0800000  0  4G13G 6G11G 9
  22005056.111    22005060.684   -28256358.432 9   8675320.498 9
  20702576.594    20702579.858    -2025867.118 9  -3295742.823 8
  20600207.053    20600210.939    -9678720.520 8  -9021814.329 7
  20720710.772    20720714.048   -15352484.790 8 -13503291.142 9
 89 11 17 12  6 59.0800000  0  4G13G 6G11G 9
  21989043.394    21989047.737   -28340508.068 9   8609749.377 8
  20708965.242    20708969.309    -1992296.136 9  -3269583.601 9
  20601594.702    20601598.215    -9671431.889 8  -9016134.872 8
  20711652.212    20711656.809   -15400081.809 8 -13540379.756 8
 89 11 17 12  7 29.0800000  0  4G13G 6G11G 9
  21973105.492    21973110.573   -28424258.015 9   8544489.691 9
  20715454.285    20715457.752    -1958198.657 9  -3243014.119 9
  20603077.466    20603083.152    -9663634.022 8  -9010058.597 9
  20702678.454    20702682.971   -15447243.008 9 -13577128.741 8
 89 11 17 12  7 59.0800000  0  4G13G 6G11G 9
  21957245.523    21957249.465   -28507606.415 9   8479542.912 8
  20722043.040    20722045.615    -1923574.432 9  -3216034.200 9
  20604658.866    20604663.204    -9655328.519 8  -9003586.764 8
  20693787.376    20693790.223   -15493965.933 9 -13613536.207 8
 89 11 17 12  8 29.0800000  0  4G13G 6G11G 9
  21941460.564    21941465.042   -28590551.668 9   8414910.267 8
  20728731.447    20728735.619    -1888423.021 9  -3188643.467 9
  20606334.147    20606340.708    -9646516.325 8  -8996720.099 8
  20684980.042    20684984.309   -15540248.029 9 -13649600.129 7
 89 11 17 12  8 59.0800000  0  4G13G 6G11G 9
  21925753.253    21925758.284   -28673092.652 9   8350592.638 8
  20735520.431    20735525.326    -1852744.373 9  -3160841.937 9
  20608108.463    20608113.998    -9637198.814 8  -8989459.697 8
  20676257.562    20676261.809   -15586086.830 8 -13685318.650 9
 89 11 17 12  9 29.0800000  0  4G13G 6G11G 9
  21910124.302    21910128.930   -28755227.178 9   8286591.729 9
  20742410.446    20742413.910    -1816538.085 9  -3132629.234 9
  20609977.782    20609982.194    -9627377.655 8  -8981806.846 8
  20667618.989    20667623.284   -15631480.155 9 -13720690.060 9
 89 11 17 12  9 59.0800000  0  4G13G 6G11G 9
  21894571.183    21894576.626   -28836954.441 9   8222908.177 8
  20749401.312    20749404.492    -1779804.013 9  -3104005.278 9
  20611940.866    20611946.697    -9617054.134 8  -8973762.544 8
  20659066.072    20659069.490   -15676425.177 8 -13755712.116 8
 89 11 17 12 10 29.0800000  0  4G13G 6G11G 9
  21879096.953    21879103.427   -28918273.285 9   8159542.844 8
  20756491.315    20756495.836    -1742541.868 9  -3074969.817 9
  20614001.756    20614006.420    -9606229.616 8  -8965327.865 9
  20650599.469    20650602.963   -15720919.663 9 -13790383.128 8
 89 11 17 12 10 59.0800000  0  4G13G 6G11G 9
  21863700.695    21863705.661   -28999182.093 9   8096497.069 8
  20763683.382    20763686.863    -1704751.548 9  -3045522.818 9
  20616157.183    20616162.097    -9594905.671 8  -8956504.014 8
  20642219.029    20642222.662   -15764960.941 9 -13824700.983 9
 89 11 17 12 11 29.0800000  0  4G13G 6G11G 9
  21848382.788    21848387.942   -29079678.701 9   8033772.457 8
  20770974.755    20770977.333    -1666432.797 9  -3015664.065 9
  20618406.486    20618410.500    -9583083.749 9  -8947292.152 8
  20633924.865    20633927.513   -15808546.790 9 -13858663.985 8
 89 11 17 12 11 59.0800000  0  4G13G 6G11G 9
  21833143.527    21833148.040   -29159761.882 9   7971370.004 9
  20778366.939    20778370.149    -1627585.559 9  -2985393.463 9
  20620749.702    20620755.562    -9570764.984 9  -8937693.106 9
  20625718.084    20625721.275   -15851674.723 8 -13892270.157 9
 89 11 17 12 12 29.0800000  0  4G13G 6G11G 9
  21817983.161    21817988.263   -29239430.238 9   7909290.792 7
  20785860.273    20785864.470    -1588209.542 9  -2954710.854 9
  20623188.446    20623193.196    -9557951.099 8  -8927708.222 8
  20617598.249    20617602.186   -15894342.108 9 -13925517.475 9
 89 11 17 12 12 59.0800000  0  4G13G 6G11G 9
  21802902.878    21802907.274   -29318682.278 9   7847535.990 8
  20793453.570    20793457.667    -1548304.862 9  -2923616.308 9
  20625721.808    20625726.347    -9544643.745 9  -8917338.840 7
  20609568.012    20609570.382   -15936546.606 9 -13958404.120 9
 89 11 17 12 13 29.0800000  0  4G13G 6G11G 9
  21787900.806    21787904.754   -29397516.912 9   7786106.424 8
  20801148.079    20801151.001    -1507871.291 8  -2892109.647 9
  20628347.682    20628350.275    -9530844.023 8  -8906585.801 8
  20601624.337    20601627.807   -15978285.619 9 -13990928.022 8
 89 11 17 12 13 59.0800000  0  4G13G 6G11G 9
  21772978.762    21772982.910   -29475932.855 9   7725003.113 8
  20808943.125    20808946.931    -1466908.820 9  -2860190.838 8
  20631066.492    20631071.545    -9516553.880 9  -8895450.603 8
  20593770.716    20593773.933   -16019557.052 9 -14023087.589 8
 89 11 17 12 14 29.0800000  0  4G13G 6G11G 9
  21758136.215    21758140.929   -29553927.976 9   7664227.718 8
  20816838.674    20816842.371    -1425417.428 9  -2827859.880 9
  20633878.603    20633883.562    -9501774.773 9  -8883934.433 8
  20586006.101    20586010.511   -16060358.295 9 -14054880.681 9
 89 11 17 12 14 59.0800000  0  4G13G 6G11G 9
  21743374.255    21743378.958   -29631501.495 9   7603780.843 8
  20824834.218    20824837.855    -1383396.989 9  -2795116.668 8
  20636783.335    20636788.689    -9486508.322 9  -8872038.535 8
  20578332.122    20578335.826   -16100687.059 9 -14086305.699 8
 89 11 17 12 15 29.0800000  0  4G13G 6G11G 9
  21728692.928    21728698.363   -29708652.016 9   7543663.573 8
  20832931.258    20832935.565    -1340847.606 9  -2761961.311 9
  20639781.030    20639785.357    -9470756.152 8  -8859764.185 8
  20570748.572    20570750.191   -16140540.969 9 -14117360.673 7
 89 11 17 12 15 59.0800000  0  4G13G 6G11G 9
  21714092.713    21714098.057   -29785378.299 9   7483876.875 8
  20841129.746    20841132.813    -1297769.306 9  -2728393.789 8
  20642870.282    20642875.730    -9454519.554 9  -8847112.314 8
  20563254.802    20563258.291   -16179917.511 9 -14148043.651 7
 89 11 17 12 16 29.0800000  0  4G13G 6G11G 9
  21699573.631    21699578.889   -29861679.309 9   7424421.574 8
  20849426.986    20849431.167    -1254162.137 9  -2694414.189 9
  20646052.996    20646058.023    -9437800.369 9  -8834084.404 8
  20555852.096    20555857.560   -16218814.556 9 -14178353.025 8
 89 11 17 12 16 59.0800000  0  4G13G 6G11G 9
  21685134.410    21685139.909   -29937553.429 9   7365298.906 8
  20857825.534    20857830.088    -1210026.083 9  -2660022.464 9
  20649325.862    20649330.613    -9420599.952 9  -8820681.498 8
  20548542.801    20548547.082   -16257229.681 8 -14208286.874 8
 89 11 17 12 17 29.0800000  0  4G13G 6G11G 9
  21670777.676    21670782.615   -30012999.384 9   7306509.877 8
  20866325.690    20866329.514    -1165361.196 9  -2625218.680 8
  20652689.593    20652695.903    -9402920.166 8  -8806905.040 8
  20541324.670    20541329.336   -16295160.333 9 -14237843.240 8
 89 11 17 12 17 59.0800000  0  4G13G 6G11G 9
  21656503.673    21656506.872   -30088016.088 9   7248055.325 8
  20874925.369    20874929.249    -1120167.639 9  -2590002.933 8
  20656145.898    20656150.586    -9384762.717 8  -8792756.408 9
  20534199.750    20534203.703   -16332604.302 9 -14267020.376 8
 89 11 17 12 18 29.0800000  0  4G13G 6G11G 9
  21642309.657    21642313.436   -30162602.071 9   7189936.397 9
  20883625.757    20883630.756    -1074445.630 9  -2554375.419 9
  20659690.778    20659697.050    -9366129.337 8  -8778236.877 8
  20527167.407    20527171.216   -16369559.449 9 -14295816.608 8
 89 11 17 12 18 59.0800000  0  4G13G 6G11G 9
  21628198.164    21628203.136   -30236756.152 9   7132154.007 8
  20892426.764    20892431.619    -1028195.359 9  -2518336.263 9
  20663327.802    20663333.279    -9347021.588 8  -8763347.743 8
  20520228.086    20520231.696   -16406023.167 9 -14324229.875 8
 89 11 17 12 19 29.0800000  0  4G13G 6G11G 9
  21614169.734    21614173.550   -30310477.407 9   7074708.899 9
  20901329.126    20901333.878     -981416.878 9  -2481885.511 9
  20667054.276    20667058.145    -9327440.858 9  -8748090.037 9
  20513383.590    20513388.329   -16441993.151 8 -14352258.434 8
 89 11 17 12 19 59.0800000  0  4G13G 6G11G 9
  21600224.011    21600228.789   -30383764.057 9   7017602.440 8
  20910330.434    20910334.640     -934110.354 9  -2445023.276 9
  20670868.586    20670874.767    -9307389.012 9  -8732465.258 8
  20506632.340    20506637.967   -16477467.292 9 -14379900.595 9
 89 11 17 12 20 29.0800000  0  4G13G 6G11G 9
  21586360.307    21586364.782   -30456615.250 9   6960835.298 8
  20919433.006    20919437.862     -886276.089 9  -2407749.837 9
  20674775.253    20674779.815    -9286867.876 8  -8716474.768 8
  20499977.740    20499981.411   -16512443.511 9 -14407154.801 8
 89 11 17 12 20 59.0800000  0  4G13G 6G11G 9
  21572580.313    21572585.212   -30529030.543 9   6904407.831 8
  20928637.607    20928640.985     -837914.486 9  -2370065.494 9
  20678768.817    20678773.642    -9265879.241 8  -8700120.022 9
  20493417.354    20493420.801   -16546919.344 8 -14434019.117 8
 89 11 17 12 21 29.0800000  0  4G13G 6G11G 9
  21558883.844    21558887.202   -30601008.122 9   6848321.424 7
  20937938.980    20937944.507     -789025.626 9  -2331970.284 9
  20682851.361    20682855.771    -9244424.840 8  -8683402.299 9
  20486951.471    20486955.719   -16580892.601 8 -14460491.802 8
 89 11 17 12 21 59.0800000  0  4G13G 6G11G 9
  21545269.983    21545274.411   -30672547.294 9   6792576.648 8
  20947343.879    20947347.332     -739609.917 8  -2293464.552 9
  20687022.668    20687027.029    -9222506.443 8  -8666323.059 8
  20480582.453    20480586.861   -16614360.765 8 -14486570.830 8
 89 11 17 12 22 29.0800000  0  4G13G 6G11G 9
  21531740.016    21531744.846   -30743646.714 9   6737174.524 8
  20956847.082    20956851.062     -689667.668 9  -2254548.519 9
  20691281.038    20691284.981    -9200125.864 9  -8648883.663 8
  20474310.933    20474314.259   -16647321.987 8 -14512254.878 8
 89 11 17 12 22 59.0800000  0  4G13G 6G11G 9
  21518294.781    21518298.173   -30814305.677 9   6682115.619 8
  20966451.123    20966454.387     -639199.243 9  -2215222.479 9
  20695627.764    20695632.171    -9177285.030 8  -8631085.633 8
  20468134.868    20468140.531   -16679774.212 9 -14537542.321 8
 89 11 17 12 23 29.0800000  0  4G13G 6G11G 9
  21504932.311    21504937.157   -30884522.302 9   6627401.396 9
  20976154.340    20976159.310     -588204.709 9  -2175486.481 9
  20700062.011    20700065.562    -9153985.563 8  -8612930.230 9
  20462057.052    20462061.056   -16711714.717 8 -14562430.992 8
 89 11 17 12 23 59.0800000  0  4G13G 6G11G 9
  21491655.009    21491659.709   -30954295.872 9   6573032.408 9
  20985959.066    20985962.933     -536684.688 9  -2135341.043 9
  20704581.060    20704587.258    -9130229.259 8  -8594418.833 8
  20456076.840    20456080.189   -16743141.548 8 -14586919.421 8
 89 11 17 12 24 29.0800000  0  4G13G 6G11G 9
  21478461.925    21478465.902   -31023625.831 9   6519009.093 9
  20995863.142    20995866.350     -484639.572 9  -2094786.404 9
  20709188.992    20709194.569    -9106018.055 9  -8575552.991 8
  20450194.041    20450198.108   -16774052.483 9 -14611005.843 8
 89 11 17 12 24 59.0800000  0  4G13G 6G11G 9
  21465352.756    21465358.004   -31092510.872 9   6465332.477 8
  21005866.825    21005870.274     -432069.836 9  -2053822.980 9
  20713883.300    20713886.940    -9081353.860 8  -8556334.205 8
  20444410.095    20444415.422   -16804445.513 8 -14634688.658 9
 89 11 17 12 25 29.0800000  0  4G13G 6G11G 9
  21452329.649    21452334.135   -31160950.077 9   6412003.250 9
  21015969.641    21015973.992     -378975.698 9  -2012450.919 9
  20718661.460    20718666.155    -9056238.215 8  -8536763.602 8
  20438726.856    20438729.542   -16834318.580 8 -14657966.349 9
 89 11 17 12 25 59.0800000  0  4G13G 6G11G 9
  21439391.767    21439395.540   -31228941.850 9   6359022.675 8
  21026173.408    21026177.015     -325357.766 9  -1970670.710 9
  20723527.369    20723532.529    -9030673.215 9  -8516842.826 8
  20433141.144    20433145.155   -16863669.267 8 -14680836.980 8
 89 11 17 12 26 29.0800000  0  4G13G 6G11G 9
  21426538.205    21426542.669   -31296485.768 9   6306391.093 8
  21036475.792    21036479.546     -271216.489 9  -1928482.703 9
  20728476.272    20728481.860    -9004660.904 8  -8496573.518 9
  20427655.056    20427659.051   -16892495.754 9 -14703299.135 9
 89 11 17 12 26 59.0800000  0  4G13G 6G11G 9
  21413770.317    21413774.402   -31363581.077 9   6254109.053 9
  21046877.913    21046882.183     -216552.473 9  -1885887.365 9
  20733511.379    20733516.401    -8978203.059 8  -8475956.975 9
  20422269.904    20422274.705   -16920795.848 8 -14725351.151 8
 89 11 17 12 27 29.0800000  0  4G13G 6G11G 9
  21401087.727    21401092.612   -31430226.842 9   6202177.314 9
  21057379.972    21057384.322     -161366.331 9  -1842885.179 9
  20738630.304    20738635.343    -8951301.546 7  -8454994.790 9
  20416986.423    20416989.293   -16948567.737 9 -14746991.564 8
 89 11 17 12 27 59.0800000  0  4G13G 6G11G 9
  21388491.800    21388496.248   -31496421.896 9   6150596.772 9
  21067980.359    21067984.424     -105658.264 9  -1799476.300 8
  20743833.882    20743839.665    -8923957.790 8  -8433688.012 8
  20411801.007    20411805.389   -16975808.879 8 -14768218.421 7
 89 11 17 12 28 29.0800000  0  4G13G 6G11G 9
  21375981.255    21375985.620   -31562165.702 9   6099367.865 8
  21078681.112    21078683.890      -49429.164 9  -1755661.426 9
  20749119.886    20749126.144    -8896174.402 8  -8412038.637 8
  20406719.118    20406722.489   -17002517.405 8 -14789030.251 8
 89 11 17 12 28 59.0800000  0  4G13G 6G11G 9
  21363556.138    21363561.347   -31627457.083 9   6048491.494 9
  21089479.841    21089483.241        7320.450 9  -1711440.967 9
  20754491.099    20754496.713    -8867952.782 9  -8390047.766 8
  20401737.109    20401741.612   -17028691.505 9 -14809425.633 8
 89 11 17 12 29 29.0800000  0  4G13G 6G11G 9
  21351217.446    21351221.840   -31692295.425 9   5997968.143 8
  21100377.551    21100381.830       64590.095 9  -1666815.267 9
  20759945.305    20759949.468    -8839295.136 9  -8367717.151 8
  20396859.432    20396863.862   -17054328.816 8 -14829402.728 8
 89 11 17 12 29 59.0800000  0  4G13G 6G11G 9
  21338965.986    21338970.356   -31756679.743 9   5947798.561 9
  21111374.204    21111378.326      122378.911 9  -1621785.025 9
  20765480.742    20765485.978    -8810203.266 8  -8345048.166 7
  20392084.152    20392088.188   -17079427.614 8 -14848960.247 8
 89 11 17 12 30 29.0800000  0  4G13G 6G11G 9
  21326800.931    21326805.500   -31820609.221 9   5897983.410 8
  21122470.220    21122473.412      180686.339 9  -1576350.653 9
  20771098.416    20771103.764    -8780679.465 8  -8322042.610 9
  20387409.620    20387414.199   -17103985.891 8 -14868096.563 8
 89 11 17 12 30 59.0800000  0  4G13G 6G11G 9
  21314721.807    21314726.913   -31884083.074 9   5848523.297 8
  21133664.170    21133668.435      239511.792 9  -1530512.633 9
  20776799.004    20776804.274    -8750725.635 8  -8298701.985 8
  20382839.851    20382843.433   -17128001.635 9 -14886810.108 8
 89 11 17 12 31 29.0800000  0  4G13G 6G11G 9
  21302729.344    21302735.315   -31947100.350 9   5799418.937 8
  21144956.482    21144960.562      298854.480 9  -1484271.580 8
  20782580.198    20782585.403    -8720343.375 8  -8275027.488 8
  20378373.895    20378377.519   -17151472.894 9 -14905099.398 7
 89 11 17 12 31 59.0800000  0  4G13G 6G11G 9
  21290825.301    21290829.222   -32009660.695 9   5750670.646 8
  21156347.566    21156350.847      358713.554 9  -1437628.148 9
  20788442.508    20788447.739    -8689534.918 8  -8251020.923 8
  20374011.159    20374015.230   -17174397.697 9 -14922962.858 7
 89 11 17 12 32 29.0800000  0  4G13G 6G11G 9
  21279007.801    21279011.572   -32071763.444 9   5702278.909 9
  21167836.814    21167840.006      419088.305 9  -1390582.888 9
  20794386.787    20794391.414    -8658302.449 9  -8226683.917 8
  20369753.262    20369757.332   -17196774.239 7 -14940399.104 9
 89 11 17 12 32 59.0800000  0  4G13G 6G11G 9
  21267277.311    21267281.595   -32133408.352 9   5654243.932 8
  21179423.835    21179427.040      479978.108 9  -1343136.286 9
  20800409.298    20800415.806    -8626647.877 9  -8202018.008 7
  20365599.261    20365603.242   -17218600.657 9 -14957406.684 7
 89 11 17 12 33 29.0800000  0  4G13G 6G11G 9
  21255633.433    21255637.484   -32194593.671 9   5606567.090 8
  21191108.798    21191111.636      541382.074 9  -1295289.039 9
  20806512.855    20806519.170    -8594573.255 9  -8177024.823 8
  20361550.972    20361555.876   -17239874.976 9 -14973984.055 8
 89 11 17 12 33 59.0800000  0  4G13G 6G11G 9
  21244078.108    21244081.873   -32255319.200 9   5559248.498 8
  21202891.290    21202894.647      603299.342 9  -1247041.809 9
  20812697.148    20812700.888    -8562080.762 8  -8151705.999 8
  20357607.505    20357611.014   -17260595.506 9 -14990129.912 7
 89 11 17 12 34 29.0800000  0  4G13G 6G11G 9
  21232610.327    21232614.172   -32315584.105 9   5512288.863 8
  21214770.315    21214775.044      665729.124 9  -1198395.240 9
  20818958.971    20818964.172    -8529172.248 8  -8126062.992 9
  20353770.686    20353774.335   -17280760.043 8 -15005842.512 8
 89 11 17 12 34 59.0800000  0  4G13G 6G11G 9
  21221229.831    21221233.248   -32375387.784 9   5465688.610 9
  21226747.800    21226751.737      728670.654 9  -1149349.887 9
  20825299.437    20825304.404    -8495849.729 8  -8100097.405 8
  20350040.777    20350044.163   -17300367.040 8 -15021120.664 7
 89 11 17 12 35 29.0800000  0  4G13G 6G11G 9
  21209937.260    21209940.720   -32434729.793 9   5419448.105 8
  21238822.014    21238825.844      792122.881 9  -1099906.581 8
  20831719.002    20831725.775    -8462115.337 8  -8073810.885 8
  20346415.460    20346419.433   -17319414.689 8 -15035962.978 8
 89 11 17 12 35 59.0800000  0  4G13G 6G11G 9
  21198732.388    21198736.801   -32493609.538 9   5373567.800 8
  21250994.092    21250997.927      856084.895 9  -1050066.063 8
  20838217.425    20838221.783    -8427971.149 9  -8047205.042 8
  20342896.734    20342901.105   -17337901.262 8 -15050368.068 8
 89 11 17 12 36 29.0800000  0  4G13G 6G11G 9
  21187615.954    21187621.054   -32552026.742 9   5328047.918 8
  21263262.724    21263265.469      920555.878 9   -999828.940 9
  20844792.251    20844797.120    -8393419.111 9  -8020281.413 8
  20339486.151    20339490.095   -17355824.980 8 -15064334.588 8
 89 11 17 12 36 59.0800000  0  4G13G 6G11G 9
  21176588.342    21176592.433   -32609980.937 9   5282888.815 8
  21275627.608    21275631.359      985534.867 9   -949195.957 9
  20851443.570    20851450.679    -8358461.451 9  -7993041.714 9
  20336184.088    20336187.009   -17373184.191 8 -15077861.245 7
 89 11 17 12 37 29.0800000  0  4G13G 6G11G 9
  21165648.086    21165652.283   -32667470.586 9   5238091.711 8
  21288088.796    21288093.224     1051020.787 9   -898167.969 9
  20858173.460    20858177.052    -8323100.339 9  -7965487.585 9
  20332987.862    20332991.909   -17389976.954 8 -15090946.503 8
 89 11 17 12 37 59.0800000  0  4G13G 6G11G 9
  21154796.874    21154799.855   -32724495.612 9   5193656.639 8
  21300646.895    21300650.186     1117013.013 9   -846745.462 9
  20864978.959    20864983.507    -8287337.666 8  -7937620.582 7
  20329899.483    20329903.657   -17406201.547 9 -15103589.027 9
 89 11 17 12 38 29.0800000  0  4G13G 6G11G 9
  21144033.402    21144036.824   -32781055.642 9   5149583.910 8
  21313300.975    21313304.175     1183510.246 9   -794929.441 8
  20871861.263    20871866.212    -8251175.664 8  -7909442.415 9
  20326921.284    20326924.433   -17421856.483 8 -15115787.668 8
 89 11 17 12 38 59.0800000  0  4G13G 6G11G 9
  21133359.334    21133363.243   -32837150.137 9   5105873.933 8
  21326051.013    21326054.683     1250511.593 9   -742720.602 9
  20878818.113    20878822.008    -8214616.215 9  -7880954.544 8
  20324050.879    20324055.422   -17436939.839 9 -15127540.939 8
 89 11 17 12 39 29.0800000  0  4G13G 6G11G 9
  21122773.220    21122776.072   -32892778.526 9   5062527.157 9
  21338896.367    21338899.948     1318015.875 9   -690119.866 9
  20885849.885    20885854.512    -8177662.008 9  -7852159.085 8
  20321289.570    20321292.361   -17451450.291 8 -15138847.782 8
 89 11 17 12 39 59.0800000  0  4G13G 6G11G 9
  21112276.106    21112280.332   -32947940.601 9   5019543.732 8
  21351837.748    21351841.399     1386022.102 9   -637128.010 8
  20892956.844    20892961.805    -8140314.721 9  -7823057.307 8
  20318637.374    20318640.817   -17465386.153 8 -15149706.874 8
 89 11 17 12 40 29.0800000  0  4G13G 6G11G 9
  21101868.323    21101873.245   -33002635.772 9   4976924.144 9
  21364874.370    21364878.872     1454529.013 9   -583745.999 9
  20900137.645    20900142.595    -8102576.605 9  -7793650.999 8
  20316095.147    20316098.146   -17478745.550 8 -15160116.766 8
 89 11 17 12 40 59.0800000  0  4G13G 6G11G 9
  21091548.634    21091552.621   -33056863.466 9   4934668.828 8
  21378006.324    21378009.972     1523535.658 9   -529974.604 9
  20907393.613    20907397.684    -8064449.628 9  -7763941.675 8
  20313663.980    20313667.356   -17491527.276 7 -15170076.529 9
 89 11 17 12 41 29.0800000  0  4G13G 6G11G 9
  21081319.128    21081323.935   -33110623.658 9   4892777.793 9
  21391232.458    21391235.847     1593040.919 9   -475814.667 9
  20914722.657    20914726.852    -8025936.038 9  -7733931.101 8
  20311341.139    20311345.098   -17503729.731 8 -15179584.937 8
 89 11 17 12 41 59.0800000  0  4G13G 6G11G 9
  21071178.144    21071182.278   -33163915.659 9   4851251.554 8
  21404552.967    21404557.345     1663043.663 9   -421267.078 9
  20922123.915    20922129.122    -7987037.912 9  -7703620.865 8
  20309129.858    20309133.606   -17515351.165 8 -15188640.599 8
 89 11 17 12 42 29.0800000  0  4G13G 6G11G 9
  21061125.419    21061129.670   -33216739.352 9   4810090.247 8
  21417968.411    21417972.497     1733542.817 9   -366332.690 9
  20929599.663    20929604.791    -7947757.284 8  -7673012.608 8
  20307029.155    20307033.117   -17526389.941 7 -15197242.222 7
 89 11 17 12 42 59.0800000  0  4G13G 6G11G 9
  21051162.907    21051166.982   -33269094.412 9   4769294.112 8
  21431479.252    21431482.333     1804536.998 9   -311012.550 9
  20937146.951    20937151.382    -7908096.815 9  -7642108.377 9
  20305038.902    20305042.942   -17536844.884 7 -15205388.906 8
 89 11 17 12 43 29.0800000  0  4G13G 6G11G 9
  21041289.914    21041293.565   -33320980.429 9   4728863.462 8
  21445083.010    21445086.123     1876025.031 9   -255307.617 8
  20944765.896    20944770.259    -7868058.538 9  -7610909.719 8
  20303160.533    20303164.022   -17546714.462 8 -15213079.471 8
 89 11 17 12 43 59.0800000  0  4G13G 6G11G 9
  21031504.628    21031508.854   -33372397.419 9   4688798.298 8
  21458780.304    21458784.110     1948005.697 9   -199218.799 9
  20952456.292    20952460.299    -7827644.503 9  -7579418.305 8
  20301394.381    20301398.275   -17555997.212 8 -15220312.746 8
 89 11 17 12 44 29.0800000  0  4G13G 6G11G 9
  21021809.830    21021814.360   -33423344.850 9   4649099.017 8
  21472570.559    21472574.698     2020477.764 9   -142747.070 9
  20960217.916    20960221.727    -7786856.976 9  -7547635.824 8
  20299739.962    20299743.526   -17564691.573 7 -15227087.557 7
 89 11 17 12 44 59.0800000  0  4G13G 6G11G 9
  21012204.056    21012208.170   -33473822.598 9   4609765.727 9
  21486454.948    21486458.444     2093439.991 9    -85893.394 9
  20968050.274    20968054.838    -7745698.174 9  -7515564.065 8
  20298198.493    20298201.394   -17572796.350 8 -15233402.951 8
 89 11 17 12 45 29.0800000  0  4G13G 6G11G 9
  21002688.297    21002691.619   -33523830.144 9   4570798.837 8
  21500432.285    21500435.969     2166891.158 9    -28658.742 9
  20975952.662    20975957.219    -7704170.132 9  -7483204.549 9
  20296767.861    20296772.603   -17580310.053 8 -15239257.785 7
 89 11 17 12 45 59.0800000  0  4G13G 6G11G 9
  20993261.570    20993264.466   -33573367.290 9   4532198.487 8
  21514502.031    21514505.472     2240829.864 9     28955.815 9
  20983925.791    20983929.188    -7662275.050 9  -7450559.044 9
  20295451.352    20295455.491   -17587231.130 7 -15244650.814 8
 89 11 17 12 46 29.0800000  0  4G13G 6G11G 9
  20983924.857    20983929.350   -33622433.757 9   4493964.899 9
  21528665.196    21528668.359     2315254.770 9     86949.242 9
  20991966.714    20991971.588    -7620014.990 9  -7417629.124 8
  20294246.432    20294249.910   -17593558.434 8 -15249581.161 8
 89 11 17 12 46 59.0800000  0  4G13G 6G11G 9
  20974676.764    20974680.661   -33671029.605 9   4456098.028 8
  21542919.588    21542923.544     2390164.576 9    145320.499 9
  21000077.238    21000082.213    -7577392.453 9  -7384416.791 8
  20293157.715    20293160.764   -17599290.690 8 -15254047.840 7
 89 11 17 12 47 29.0800000  0  4G13G 6G11G 9
  20965519.413    20965522.349   -33719154.350 9   4418598.253 8
  21557266.777    21557271.156     2465558.014 9    204068.600 8
  21008256.508    21008261.493    -7534409.630 9  -7350923.693 9
  20292178.090    20292182.327   -17604426.450 9 -15258049.705 8
 89 11 17 12 47 59.0800000  0  4G13G 6G11G 9
  20956450.205    20956455.078   -33766807.953 9   4381465.589 8
  21571705.737    21571709.491     2541433.542 9    263192.364 9
  21016504.905    21016508.769    -7491068.678 9  -7317151.554 9
  20291314.102    20291318.816   -17608964.566 7 -15261585.883 7
 89 11 17 12 48 29.0800000  0  4G13G 6G11G 9
  20947471.613    20947476.781   -33813990.456 9   4344700.025 8
  21586235.757    21586238.552     2617789.797 9    322690.720 9
  21024819.725    21024824.890    -7447371.683 9  -7283101.951 9
  20290565.676    20290569.245   -17612903.786 8 -15264655.386 8
 89 11 17 12 48 59.0800000  0  4G13G 6G11G 9
  20938583.551    20938587.568   -33860701.658 9   4308301.706 8
  21600857.360    21600860.776     2694625.378 9    382562.579 9
  21033202.129    21033207.207    -7403320.916 9  -7248776.741 8
  20289930.913    20289934.299   -17616242.744 8 -15267257.162 8
 89 11 17 12 49 29.0800000  0  4G13G 6G11G 9
  20929784.022    20929789.402   -33906941.171 9   4272270.941 8
  21615569.944    21615573.581     2771938.859 9    442806.815 9
  21041651.863    21041657.027    -7358918.537 9  -7214177.492 8
  20289408.924    20289412.270   -17618980.297 7 -15269390.303 7
 89 11 17 12 49 59.0800000  0  4G13G 6G11G 9
  20921074.509    20921078.527   -33952709.600 9   4236607.250 8
  21630371.700    21630376.154     2849728.730 9    503422.258 9
  21050168.318    21050172.310    -7314167.100 9  -7179306.260 9
  20289003.071    20289006.557   -17621115.426 7 -15271054.023 8
 89 11 17 12 50 29.0800000  0  4G13G 6G11G 9
  20912455.076    20912459.454   -33998006.288 9   4201311.148 8
  21645265.108    21645269.718     2927993.434 9    564407.716 9
  21058749.359    21058755.030    -7269068.837 9  -7144164.810 9
  20288711.011    20288716.049   -17622646.999 7 -15272247.426 7
 89 11 17 12 50 59.0800000  0  4G13G 6G11G 9
  20903925.078    20903928.983   -34042831.607 9   4166382.344 8
  21660248.937    21660252.231     3006731.433 9    625761.986 9
  21067396.389    21067402.195    -7223625.927 9  -7108754.793 8
  20288534.887    20288538.417   -17623573.869 7 -15272969.663 8
 89 11 17 12 51 29.0800000  0  4G13G 6G11G 9
  20895484.901    20895488.901   -34087185.865 9   4131820.607 8
  21675321.991    21675325.877     3085941.400 9    687483.994 9
  21076110.511    21076115.231    -7177840.275 9  -7073077.680 9
  20288473.407    20288477.111   -17623894.770 7 -15273219.697 8
 89 11 17 12 51 59.0800000  0  4G13G 6G11G 9
  20887134.189    20887138.401   -34131068.633 9   4097626.263 8
  21690485.078    21690488.314     3165621.677 9    749572.503 9
  21084887.550    21084892.230    -7131714.521 8  -7037135.553 8
  20288528.031    20288531.337   -17623608.745 8 -15272996.806 8
 89 11 17 12 52 29.0800000  0  4G13G 6G11G 9
  20878872.951    20878876.766   -34174479.613 9   4063799.530 8
  21705736.322    21705740.672     3245770.820 9    812026.343 9
  21093728.109    21093734.756    -7085250.776 9  -7000930.088 8
  20288699.066    20288702.120   -17622714.864 8 -15272300.271 8
 89 11 17 12 52 59.0800000  0  4G13G 6G11G 9
  20870701.544    20870707.099   -34217419.377 9   4030339.995 9
  21721077.223    21721081.007     3326387.100 9    874844.201 9
  21102635.171    21102639.336    -7038451.111 9  -6964462.840 9
  20288985.118    20288986.935   -17621211.839 8 -15271129.077 8
 89 11 17 12 53 29.0800000  0  4G13G 6G11G 9
  20862620.569    20862623.499   -34259887.912 9   3997247.657 9
  21736506.731    21736510.654     3407469.144 9    938024.980 8
  21111603.944    21111609.151    -6991318.033 9  -6927735.745 9
  20289386.311    20289390.815   -17619098.708 8 -15269482.481 8
 89 11 17 12 53 59.0800000  0  4G13G 6G11G 9
  20854628.459    20854633.601   -34301884.964 9   3964522.704 8
  21752024.347    21752028.333     3489015.146 9   1001567.286 9
  21120636.128    21120641.833    -6943853.720 9  -6890750.552 9
  20289904.763    20289909.424   -17616374.627 8 -15267359.804 8
 89 11 17 12 54 29.0800000  0  4G13G 6G11G 9
  20846726.565    20846732.146   -34343410.540 9   3932165.123 8
  21767630.565    21767633.875     3571023.566 9   1065469.907 9
  21129731.225    21129735.236    -6896060.304 9  -6853508.928 9
  20290540.095    20290543.274   -17613038.518 9 -15264760.228 7
 89 11 17 12 54 59.0800000  0  4G13G 6G11G 9
  20838914.801    20838918.319   -34384465.193 9   3900174.504 9
  21783323.162    21783327.876     3653492.731 9   1129731.571 9
  21138887.814    21138892.381    -6847940.017 9  -6816012.637 8
  20291291.223    20291296.475   -17609089.553 7 -15261683.098 7
 89 11 17 12 55 29.0800000  0  4G13G 6G11G 9
  20831191.812    20831196.742   -34425048.762 9   3868550.961 8
  21799104.639    21799108.472     3736421.003 9   1194350.973 9
  21148106.225    21148111.226    -6799495.044 9  -6778263.298 9
  20292159.488    20292164.015   -17604527.045 8 -15258127.868 8
 89 11 17 12 55 59.0800000  0  4G13G 6G11G 9
  20823557.895    20823561.781   -34465161.569 9   3837294.259 7
  21814971.951    21814975.238     3819806.662 9   1259326.774 9
  21157387.052    21157392.631    -6750727.845 9  -6740262.901 8
  20293144.841    20293148.638   -17599349.821 7 -15254093.645 7
 89 11 17 12 56 29.0800000  0  4G13G 6G11G 9
  20816014.682    20816018.742   -34504803.797 9   3806404.234 8
  21830926.345    21830929.672     3903648.108 9   1324657.737 8
  21166727.835    21166732.962    -6701640.427 9  -6702013.012 9
  20294247.175    20294250.949   -17593556.854 8 -15249579.654 7
 89 11 17 12 56 59.0800000  0  4G13G 6G11G 9
  20808560.432    20808564.896   -34543975.644 9   3775880.733 8
  21846967.783    21846970.894     3987943.527 9   1390342.434 8
  21176129.050    21176134.449    -6652235.301 9  -6663515.503 9
  20295465.851    20295471.341   -17587147.634 8 -15244585.443 7
 89 11 17 12 57 29.0800000  0  4G13G 6G11G 9
  20801195.783    20801200.671   -34582677.266 9   3745723.634 8
  21863095.064    21863098.084     4072691.181 9   1456379.517 9
  21185590.387    21185596.494    -6602514.833 9  -6624772.296 8
  20296804.383    20296808.052   -17580121.292 9 -15239110.355 8
 89 11 17 12 57 59.0800000  0  4G13G 6G11G 9
  20793920.126    20793925.220   -34620909.233 9   3715932.513 8
  21879306.688    21879310.850     4157889.393 9   1522767.695 9
  21195112.390    21195116.716    -6552481.250 9  -6585785.075 9
  20298259.278    20298262.491   -17572476.921 7 -15233153.691 7
 89 11 17 12 58 29.0800000  0  4G13G 6G11G 9
  20786734.238    20786738.559   -34658671.386 9   3686507.475 8
  21895605.385    21895609.216     4243536.530 9   1589505.694 9
  21204692.293    21204697.157    -6502136.809 9  -6546555.648 8
  20299830.665    20299834.558   -17564213.969 8 -15226715.017 8
 89 11 17 12 58 59.0800000  0  4G13G 6G11G 9
  20779637.229    20779642.803   -34695963.889 9   3657448.385 8
  21911988.809    21911992.916     4329630.587 9   1656591.931 9
  21214331.842    21214335.829    -6451483.633 9  -6507085.643 9
  20301522.071    20301525.350   -17555331.658 8 -15219793.729 9
 89 11 17 12 59 29.0800000  0  4G13G 6G11G 9
  20772631.240    20772634.413   -34732787.287 9   3628754.850 8
  21928456.224    21928460.652     4416169.831 9   1724025.079 9
  21224028.832    21224033.146    -6400523.690 9  -6467376.549 8
  20303330.012    20303332.910   -17545829.012 8 -15212389.052 7
 89 11 17 12 59 59.0800000  0  4G13G 6G11G 9
  20765712.534    20765716.182   -34769141.630 9   3600426.813 8
  21945008.828    21945012.763     4503152.431 9   1791803.695 9
  21233783.500    21233788.496    -6349259.866 9  -6427430.714 8
  20305255.944    20305258.310   -17535705.711 8 -15204500.746 9
 89 11 17 13  0 29.0800000  0  4G13G 6G11G 9
  20758883.138    20758886.995   -34805026.898 9   3572464.278 8
  21961644.642    21961648.851     4590576.528 9   1859926.327 8
  21243597.205    21243601.005    -6297694.155 9  -6387249.638 8
  20307301.083    20307304.347   -17524961.081 8 -15196128.279 8
 89 11 17 13  0 59.0800000  0  4G13G 6G11G 9
  20752144.301    20752147.915   -34840444.031 9   3544866.534 9
  21978365.067    21978368.939     4678440.420 9   1928391.657 9
  21253465.616    21253470.766    -6245828.674 9  -6346834.990 8
  20309463.383    20309466.848   -17513594.302 8 -15187271.035 7
 89 11 17 13  1 29.0800000  0  4G13G 6G11G 9
  20745493.409    20745497.461   -34875393.443 9   3517633.244 8
  21995167.399    21995172.293     4766742.146 9   1997198.176 9
  21263392.608    21263397.143    -6193665.952 9  -6306188.704 8
  20311745.293    20311747.797   -17501604.995 9 -15177928.701 8
 89 11 17 13  1 59.0800000  0  4G13G 6G11G 9
  20738931.949    20738936.261   -34909875.041 9   3490764.483 8
  22012054.670    22012057.367     4855479.788 9   2066344.350 9
  21273374.560    21273380.248    -6141208.213 9  -6265312.555 8
  20314145.778    20314149.434   -17488992.411 7 -15168100.693 7
 89 11 17 13  2 29.0800000  0  4G13G 6G11G 9
  20732459.318    20732463.293   -34943889.587 9   3464259.660 8
  22029023.353    22029026.687     4944651.594 9   2135828.856 9
  21283412.306    21283418.057    -6088457.298 9  -6224207.948 9
  20316662.946    20316667.291   -17475756.071 8 -15157786.650 8
 89 11 17 13  2 59.0800000  0  4G13G 6G11G 9
  20726075.126    20726079.041   -34977437.569 9   3438118.392 8
  22046074.444    22046078.544     5034255.490 9   2205650.033 9
  21293506.197    21293510.618    -6035415.664 9  -6182876.825 8
  20319301.686    20319305.994   -17461895.395 8 -15146986.117 7
 89 11 17 13  3 29.0800000  0  4G13G 6G11G 9
  20719779.898    20719784.513   -35010518.955 9   3412340.714 8
  22063207.178    22063211.386     5124289.690 9   2275806.520 9
  21303654.324    21303659.057    -5982085.754 9  -6141321.054 9
  20322058.726    20322060.791   -17447410.034 8 -15135698.797 8
 89 11 17 13  3 59.0800000  0  4G13G 6G11G 9
  20713572.928    20713577.329   -35043134.022 9   3386926.378 8
  22080421.427    22080425.417     5214752.258 9   2346296.826 9
  21313857.322    21313861.880    -5928469.851 9  -6099542.447 8
  20324933.567    20324936.184   -17432299.499 8 -15123924.344 7
 89 11 17 13  4 29.0800000  0  4G13G 6G11G 9
  20707455.343    20707459.229   -35075283.565 9   3361874.804 8
  22097716.555    22097721.796     5305641.160 9   2417119.327 9
  21324113.597    21324119.808    -5874570.309 9  -6057542.809 8
  20327928.066    20327931.743   -17416563.291 8 -15111662.350 9
 89 11 17 13  4 59.0800000  0  4G13G 6G11G 9
  20701425.850    20701431.453   -35106967.802 9   3337185.812 8
  22115093.589    22115098.125     5396954.374 9   2488272.466 9
  21334424.563    21334429.148    -5820389.180 9  -6015323.744 8
  20331041.232    20331043.861   -17400201.133 8 -15098912.600 8
 89 11 17 13  5 29.0800000  0  4G13G 6G11G 9
  20695485.172    20695488.932   -35138187.836 9   3312858.526 7
  22132550.476    22132555.037     5488689.948 9   2559754.701 9
  21344787.956    21344793.559    -5765928.694 9  -5972887.014 8
  20334273.758    20334278.680   -17383212.575 9 -15085674.746 9
 89 11 17 13  5 59.0800000  0  4G13G 6G11G 9
  20689632.950    20689637.240   -35168943.822 9   3288892.839 9
  22150086.927    22150090.241     5580845.915 8   2631564.534 9
  21355203.980    21355208.569    -5711191.168 9  -5930234.409 9
  20337626.813    20337630.017   -17365597.254 7 -15071948.501 8
 89 11 17 13  6 29.0800000  0  4G13G 6G11G 9
  20683867.829    20683872.290   -35199236.428 9   3265288.217 8
  22167703.113    22167707.217     5673420.101 9   2703700.238 9
  21365672.588    21365677.323    -5656178.874 9  -5887367.700 8
  20341097.004    20341101.687   -17347354.841 9 -15057733.622 8
 89 11 17 13  6 59.0800000  0  4G13G 6G11G 9
  20678191.570    20678196.469   -35229066.397 9   3242044.111 8
  22185398.595    22185403.450     5766410.449 9   2776160.232 9
  21376192.550    21376198.502    -5600894.321 9  -5844288.837 8
  20344687.907    20344691.894   -17328485.347 8 -15043030.101 8
 89 11 17 13  7 29.0800000  0  4G13G 6G11G 9
  20672603.427    20672607.620   -35258433.851 9   3219160.394 8
  22203173.425    22203177.487     5859815.023 9   2848943.002 9
  21386764.019    21386769.331    -5545339.652 9  -5800999.456 9
  20348398.864    20348402.545   -17308988.259 7 -15027837.560 8
 89 11 17 13  7 59.0800000  0  4G13G 6G11G 9
  20667102.465    20667107.035   -35287339.455 9   3196636.569 9
  22221026.313    22221029.856     5953631.980 9   2922047.113 8
  21397386.937    21397392.106    -5489516.735 9  -5757501.076 9
  20352228.617    20352231.911   -17288863.109 8 -15012155.614 8
 89 11 17 13  8 29.0800000  0  4G13G 6G11G 9
  20661689.750    20661693.530   -35315783.789 9   3174472.163 8
  22238957.058    22238960.906     6047858.917 9   2995470.679 9
  21408060.497    21408064.907    -5433428.048 9  -5713795.616 8
  20356177.893    20356180.253   -17268110.098 8 -14995984.429 7
 89 11 17 13  8 59.0800000  0  4G13G 6G11G 9
  20656364.496    20656368.605   -35343767.637 9   3152666.581 8
  22256964.805    22256969.453     6142493.829 9   3069212.157 9
  21418783.939    21418789.710    -5377075.702 9  -5669884.672 9
  20360246.159    20360249.281   -17246728.893 9 -14979323.744 8
 89 11 17 13  9 29.0800000  0  4G13G 6G11G 9
  20651126.673    20651130.914   -35371291.661 9   3131219.325 8
  22275050.910    22275055.239     6237534.476 9   3143269.766 9
  21429557.527    21429562.872    -5320462.183 9  -5625770.193 8
  20364434.034    20364438.501   -17224719.322 9 -14962173.392 8
 89 11 17 13  9 59.0800000  0  4G13G 6G11G 9
  20645976.719    20645981.677   -35398356.351 9   3110129.958 8
  22293212.796    22293218.390     6332978.928 9   3217642.038 9
  21440379.156    21440384.551    -5263589.905 9  -5581454.144 9
  20368742.364    20368745.844   -17202081.478 9 -14944533.519 9
 89 11 17 13 10 29.0800000  0  4G13G 6G11G 9
  20640913.096    20640917.597   -35424962.717 9   3089397.729 8
  22311452.486    22311456.577     6428824.825 9   3292327.135 9
  21451251.458    21451256.761    -5206461.172 9  -5536938.302 8
  20373169.445    20373172.952   -17178814.998 8 -14926403.786 8
 89 11 17 13 10 59.0800000  0  4G13G 6G11G 9
  20635938.520    20635941.576   -35451110.718 9   3069022.686 8
  22329766.957    22329772.111     6525070.197 9   3367323.499 9
  21462170.408    21462176.304    -5149077.592 9  -5492223.812 9
  20377716.550    20377719.692   -17154919.911 8 -14907784.214 7
 89 11 17 13 11 29.0800000  0  4G13G 6G11G 9
  20631048.569    20631052.772   -35476801.736 9   3049003.714 8
  22348157.265    22348161.197     6621712.940 9   3442629.541 8
  21473138.620    21473144.479    -5091441.932 9  -5447312.925 8
  20382384.671    20382387.369   -17130396.012 8 -14888674.676 8
 89 11 17 13 11 59.0800000  0  4G13G 6G11G 9
  20626247.606    20626251.666   -35502035.642 9   3029340.953 7
  22366623.755    22366627.802     6718750.755 9   3518243.411 9
  21484154.545    21484158.611    -5033556.181 9  -5402207.180 8
  20387170.527    20387173.156   -17105243.509 8 -14869075.309 9
 89 11 17 13 12 29.0800000  0  4G13G 6G11G 9
  20621532.064    20621536.513   -35526813.730 9   3010033.369 7
  22385164.177    22385167.899     6816181.441 9   3594163.413 9
  21495216.622    21495220.791    -4975422.578 9  -5356908.259 9
  20392076.969    20392079.387   -17079462.401 8 -14848986.122 8
 89 11 17 13 12 59.0800000  0  4G13G 6G11G 9
  20616903.590    20616907.811   -35551136.791 9   2991080.340 8
  22403778.664    22403782.556     6914002.788 9   3670387.832 9
  21506325.398    21506330.165    -4917043.171 9  -5311417.783 8
  20397102.218    20397105.327   -17053052.597 8 -14828407.036 8
 89 11 17 13 13 29.0800000  0  4G13G 6G11G 9
  20612360.654    20612365.604   -35575005.694 9   2972481.220 8
  22422467.270    22422471.370     7012212.586 9   3746914.926 9
  21517481.976    21517486.218    -4858420.467 9  -5265737.746 8
  20402246.316    20402249.823   -17026014.328 8 -14807338.247 8
 89 11 17 13 13 59.0800000  0  4G13G 6G11G 9
  20607905.962    20607910.077   -35598420.812 9   2954235.675 8
  22441229.799    22441233.096     7110808.641 9   3823742.981 9
  21528682.343    21528687.424    -4799556.626 9  -5219869.834 9
  20407512.429    20407515.158   -16998347.567 8 -14785779.730 8
 89 11 17 13 14 29.0800000  0  4G13G 6G11G 9
  20603536.625    20603540.267   -35621383.089 9   2936343.004 8
  22460065.182    22460069.305     7209788.665 9   3900870.240 9
  21539929.260    21539934.488    -4740453.993 9  -5173815.835 8
  20412896.071    20412899.276   -16970052.270 8 -14763731.432 8
 89 11 17 13 14 59.0800000  0  4G13G 6G11G 9
  20599252.508    20599255.100   -35643893.254 9   2918802.632 7
  22478972.557    22478976.566     7309150.420 9   3978294.973 9
  21551220.904    21551225.920    -4681114.967 9  -5127577.644 8
  20418399.873    20418404.204   -16941129.058 8 -14741193.857 9
 89 11 17 13 15 29.0800000  0  4G13G 6G11G 9
  20595054.102    20595059.164   -35665952.324 9   2901613.748 7
  22497952.584    22497957.386     7408891.621 9   4056015.373 9
  21562558.217    21562563.335    -4621541.580 9  -5081156.817 8
  20424022.972    20424026.933   -16911577.816 9 -14718166.906 8
 89 11 17 13 15 59.0800000  0  4G13G 6G11G 9
  20590943.040    20590946.164   -35687561.135 9   2884775.727 8
  22517005.151    22517008.722     7509010.095 9   4134029.754 9
  21573938.261    21573943.493    -4561735.609 9  -5034554.789 8
  20429766.314    20429769.437   -16881398.720 8 -14694650.726 8
 89 11 17 13 16 29.0800000  0  4G13G 6G 3G 9
  20586916.212    20586919.600   -35708720.572 9   2868287.865 8
  22536127.562    22536132.750     7609503.358 9   4212336.163 9
                  23973356.630   -63094495.229 9
  20435628.277    20435631.479   -16850592.099 8 -14670645.571 8
 89 11 17 13 16 59.0800000  0  4G13G 6G 3G 9
  20582974.807    20582979.401   -35729431.404 9   2852149.576 8
  22555322.068    22555326.550     7710369.378 9   4290933.048 9
  23956974.797    23956978.297   -63180805.015 9  80113849.997 9
  20441610.258    20441615.081   -16819158.086 7 -14646151.520 8
 89 11 17 13 17 29.0800000  0  4G13G 6G 3G 9
  20579118.973    20579123.515   -35749694.349 9   2836360.257 7
  22574587.629    22574590.809     7811605.828 9   4369818.579 9
  23940596.768    23940599.998   -63266875.579 9  80046782.043 9
  20447711.234    20447714.629   -16787096.987 7 -14621168.850 7
 89 11 17 13 17 59.0800000  0  4G13G 6G 3G 9
  20575347.786    20575353.241   -35769510.486 9   2820919.122 8
  22593921.461    22593926.216     7913210.023 9   4448990.644 9
  23924262.598    23924266.943   -63352706.714 9  79979900.642 9
  20453929.935    20453934.784   -16754409.302 8 -14595697.915 8
 89 11 17 13 18 29.0800000  0  4G13G 6G 3G 9
  20571662.379    20571666.124   -35788880.907 9   2805825.304 8
  22613325.724    22613330.100     8015179.802 9   4528447.602 9
  23907976.081    23907979.037   -63438297.438 9  79913206.584 8
  20460270.247    20460274.463   -16721095.490 8 -14569739.095 9
 89 11 17 13 18 59.0800000  0  4G13G 6G 3G 9
  20568060.270    20568064.182   -35807806.289 9   2791078.259 8
  22632799.140    22632803.722     8117512.838 9   4608187.598 9
  23891733.626    23891738.352   -63523646.748 9  79846700.630 8
  20466728.696    20466732.978   -16687155.532 7 -14543292.395 8
 89 11 17 13 19 29.0800000  0  4G13G 6G 3G 9
  20564542.989    20564547.217   -35826287.333 9   2776677.443 8
  22652340.480    22652345.236     8220206.822 9   4688208.860 9
  23875538.370    23875542.399   -63608754.024 9  79780383.285 8
  20473305.910    20473310.382   -16652590.057 8 -14516358.238 8
 89 11 17 13 19 59.0800000  0  4G13G 6G 3G 9
  20561110.971    20561116.477   -35844325.363 9   2762621.849 9
  22671951.453    22671955.980     8323259.294 9   4768509.459 9
  23859389.950    23859393.751   -63693618.398 9  79714255.210 9
  20480002.607    20480007.768   -16617399.322 7 -14488936.880 8
 89 11 17 13 20 29.0800000  0  4G13G 6G 3G 9
  20557762.967    20557767.461   -35861921.095 9   2748910.897 8
  22691629.319    22691634.206     8426667.917 9   4849087.558 9
  23843286.304    23843290.502   -63778239.026 8  79648317.065 9
  20486818.661    20486822.518   -16581583.956 7 -14461028.786 8
 89 11 17 13 20 59.0800000  0  4G13G 6G 3G 9
  20554498.018    20554502.949   -35879075.794 9   2735543.591 8
  22711374.410    22711379.260     8530430.225 9   4929941.247 9
  23827230.695    23827234.807   -63862615.026 9  79582569.546 8
  20493752.643    20493757.272   -16545144.396 7 -14432634.328 8
 89 11 17 13 21 29.0800000  0  4G13G 6G 3G 9
  20551318.237    20551321.618   -35895790.613 9   2722519.057 8
  22731187.711    22731191.500     8634544.073 9   5011068.890 9
  23811220.595    23811225.112   -63946745.711 9  79517013.168 9
  20500805.942    20500809.369   -16508081.079 8 -14403753.821 8
 89 11 17 13 21 59.0800000  0  4G13G 6G 3G 9
  20548220.384    20548224.434   -35912066.018 9   2709836.935 7
  22751066.150    22751070.079     8739006.837 9   5092468.413 9
  23795258.725    23795262.128   -64030630.201 9  79451648.644 8
  20507976.931    20507981.296   -16470394.575 9 -14374387.709 8
 89 11 17 13 22 29.0800000  0  4G13G 6G 3G 9
  20545207.103    20545211.354   -35927903.051 9   2697496.407 8
  22771010.511    22771014.163     8843816.039 9   5174137.881 9
  23779342.982    23779346.694   -64114267.905 9  79386476.411 9
  20515266.206    20515271.021   -16432085.569 7 -14344536.545 8
 89 11 17 13 22 59.0800000  0  4G13G 6G 3G 9
  20542275.895    20542280.621   -35943302.829 8   2685496.576 7
  22791020.551    22791025.430     8948969.321 9   5256075.468 9
  23763473.708    23763478.144   -64197658.089 9  79321497.071 9
  20522674.179    20522679.921   -16393154.520 8 -14314200.674 8
 89 11 17 13 23 29.0800000  0  4G13G 6G 3G 9
  20539428.886    20539433.346   -35958266.850 9   2673836.305 8
  22811095.669    22811100.292     9054464.044 9   5338279.085 9
  23747652.932    23747656.337   -64280799.543 9  79256711.540 8
  20530201.793    20530205.017   -16353602.138 8 -14283380.624 7
 89 11 17 13 23 59.0800000  0  4G13G 6G 3G 9
  20536663.873    20536668.839   -35972795.855 9   2662515.011 8
  22831234.499    22831239.139     9160298.029 9   5420747.050 9
  23731879.396    23731882.943   -64363691.912 9  79192120.098 8
  20537847.286    20537850.664   -16313428.964 9 -14252076.858 8
 89 11 17 13 24 29.0800000  0  4G13G 6G 3G 9
  20533981.475    20533986.021   -35986890.198 9   2651532.414 7
  22851438.805    22851442.758     9266468.833 9   5503477.489 9
  23716152.280    23716156.609   -64446334.365 9  79127723.412 9
  20545609.125    20545612.528   -16272635.510 8 -14220289.740 7
 89 11 17 13 24 59.0800000  0  4G13G 6G 3G 9
  20531382.509    20531387.045   -36000551.607 9   2640887.176 8
  22871705.216    22871710.126     9372973.917 9   5586468.397 9
  23700473.601    23700477.570   -64528726.308 9  79063521.921 8
  20553489.031    20553493.368   -16231222.850 8 -14188020.141 8
 89 11 17 13 25 29.0800000  0  4G13G 6G 3G 9
  20528865.181    20528869.978   -36013781.498 9   2630578.174 8
  22892036.575    22892040.479     9479810.662 9   5669717.739 9
  23684843.174    23684847.888   -64610867.036 9  78999516.173 9
  20561487.853    20561491.749   -16189191.591 8 -14155268.525 8
 89 11 17 13 25 59.0800000  0  4G13G 6G 3G 9
  20526429.196    20526433.622   -36026581.023 9   2620604.529 8
  22912429.050    22912433.792     9586976.504 9   5753223.533 9
  23669259.639    23669263.794   -64692755.973 9  78935706.645 9
  20569604.440    20569607.955   -16146542.775 8 -14122035.662 7
 89 11 17 13 26 29.0800000  0  4G13G 6G 3G 9
  20524076.049    20524079.569   -36038950.763 9   2610965.768 8
  22932884.470    22932888.684     9694469.137 9   5836983.955 8
  23653725.228    23653729.945   -64774392.043 9  78872094.135 8
  20577837.406    20577841.181   -16103276.572 8 -14088321.733 7
 89 11 17 13 26 59.0800000  0  4G13G 6G 3G 9
  20521803.126    20521808.032   -36050892.076 9   2601660.857 8
  22953401.141    22953406.087     9802286.012 9   5920997.040 9
  23638237.895    23638242.451   -64855774.707 9  78808679.109 8
  20586188.022    20586192.350   -16059393.989 8 -14054127.521 7
 89 11 17 13 27 29.0800000  0  4G13G 6G 3G 9
  20519612.196    20519616.210   -36062406.263 9   2592688.761 8
  22973980.429    22973984.469     9910424.525 9   6005260.744 9
  23622800.423    23622804.701   -64936903.389 9  78745461.963 9
  20594655.658    20594658.776   -16014896.234 9 -14019453.957 7
 89 11 17 13 27 59.0800000  0  4G13G 6G 3G 9
  20517500.881    20517505.896   -36073494.529 9   2584048.557 6
  22994619.100    22994623.012    10018882.128 9   6089773.092 9
  23607410.181    23607414.001   -65017777.703 9  78682443.030 8
  20603240.006    20603243.777   -15969783.985 8 -13984301.557 8
 89 11 17 13 28 29.0800000  0  4G13G 6G 3G 9
  20515472.095    20515477.963   -36084157.745 9   2575739.571 8
  23015318.344    23015321.434    10127656.324 9   6174532.136 9
  23592068.219    23592073.634   -65098396.797 9  78619622.955 9
  20611942.445    20611943.840   -15924058.229 8 -13948671.105 7
 89 11 17 13 28 59.0800000  0  4G13G 6G 3G 9
  20513524.167    20513527.578   -36094397.678 9   2567760.403 8
  23036076.742    23036080.742    10236744.443 9   6259535.797 9
  23576775.441    23576780.790   -65178760.017 9  78557002.254 9
  20620760.549    20620764.311   -15877719.683 8 -13912563.134 7
 89 11 17 13 29 29.0800000  0  4G13G 6G 3G 9
  20511655.618    20511660.206   -36104215.064 9   2560110.490 7
  23056895.088    23056898.843    10346144.095 9   6344782.218 9
  23561532.285    23561536.825   -65258866.797 9  78494581.394 9
  20629694.848    20629697.453   -15830769.309 8 -13875978.428 8
 89 11 17 13 29 59.0800000  0  4G13G 6G 3G 9
  20509867.636    20509871.865   -36113610.959 9   2552789.014 8
  23077772.064    23077776.598    10455852.686 9   6430269.365 9
  23546336.157    23546341.991   -65338716.276 9  78432361.018 9
  20638744.961    20638749.629   -15783208.260 9 -13838917.873 8
 89 11 17 13 30 29.0800000  0  4G13G 6G 3G 9
  20508159.923    20508164.463   -36122587.211 9   2545794.536 8
  23098707.087    23098711.430    10565867.576 9   6515995.184 9
  23531191.675    23531195.866   -65418308.186 9  78370341.339 9
  20647912.420    20647913.943   -15735037.334 8 -13801382.087 8
 89 11 17 13 30 59.0800000  0  4G13G 6G 3G 9
  20506530.969    20506536.141   -36131144.742 8   2539126.327 7
  23119699.833    23119704.011    10676186.080 9   6601957.586 9
  23516094.803    23516099.743   -65497641.751 9  78308522.980 9
  20657194.175    20657196.537   -15686257.843 9 -13763372.101 8
 89 11 17 13 31 29.0800000  0  4G13G 6G 3G 9
  20504982.149    20504986.350   -36139285.067 9   2532783.222 8
  23140750.069    23140754.519    10786805.775 9   6688154.678 9
  23501047.706    23501051.645   -65576716.293 9  78246906.442 9
  20666591.566    20666595.499   -15636870.546 9 -13724888.484 7
 89 11 17 13 31 59.0800000  0  4G13G 6G 3G 9
  20503512.450    20503517.183   -36147009.373 8   2526764.295 8
  23161856.598    23161861.914    10897724.007 9   6774584.405 9
  23486051.134    23486054.399   -65655531.319 9  78185492.140 9
  20676104.999    20676109.584   -15586876.612 8 -13685932.181 7
 89 11 17 13 32 29.0800000  0  4G13G 6G 3G 9
  20502121.239    20502125.875   -36154318.452 9   2521068.911 7
  23183020.919    23183024.997    11008938.166 9   6861244.723 9
  23471101.157    23471105.351   -65734086.421 9  78124280.364 8
  20685734.158    20685738.108   -15536277.114 8 -13646503.995 8
 89 11 17 13 32 59.0800000  0  4G13G 6G 3G 9
  20500808.947    20500813.474   -36161213.547 9   2515696.135 8
  23204239.628    23204244.067    11120445.731 9   6948133.682 9
  23456203.129    23456206.782   -65812380.739 9  78063271.816 8
  20695477.064    20695481.699   -15485073.199 9 -13606604.846 8
 89 11 17 13 33 29.0800000  0  4G13G 6G 3G 9
  20499575.588    20499580.482   -36167696.044 9   2510644.857 8
  23225513.754    23225518.400    11232244.030 8   7035249.162 9
  23441353.088    23441357.007   -65890414.004 8  78002466.680 8
  20705336.676    20705339.620   -15433265.877 9 -13566235.511 8
 89 11 17 13 33 59.0800000  0  4G13G 6G 3G 9
  20498420.065    20498424.181   -36173767.798 8   2505913.609 8
  23246843.682    23246849.217    11344330.092 9   7122588.870 8
  23426553.954    23426557.717   -65968185.681 8  77941865.384 8
  20715308.341    20715313.135   -15380856.744 8 -13525397.231 7
 89 11 17 13 34 29.0800000  0  4G13G 6G 3G 9
  20497342.620    20497346.757   -36179429.751 9   2501501.702 8
  23268226.672    23268231.810    11456701.710 8   7210151.079 9
  23411804.374    23411808.080   -66045695.025 9  77881468.495 9
  20725397.060    20725401.256   -15327846.750 8 -13484090.752 8
 89 11 17 13 34 59.0800000  0  4G13G 6G 3G 9
  20496342.958    20496347.571   -36184683.092 9   2497408.185 7
  23289664.385    23289669.499    11569356.059 9   7297933.587 8
  23397104.808    23397108.618   -66122941.734 9  77821276.256 9
  20735599.057    20735602.947   -15274237.239 8 -13442317.116 8
 89 11 17 13 35 29.0800000  0  4G13G 6G 3G 9
  20495420.161    20495425.340   -36189529.427 8   2493631.808 7
  23311154.694    23311159.408    11682290.318 9   7385934.206 9
  23382454.854    23382458.697   -66199925.487 9  77761288.916 8
  20745913.272    20745917.754   -15220029.455 8 -13400077.294 7
 89 11 17 13 35 59.0800000  0  4G13G 6G 3G 9
  20494576.613    20494580.608   -36193970.198 9   2490171.447 7
  23332698.054    23332703.149    11795501.994 9   7474150.989 9
  23367855.094    23367860.385   -66276645.547 9  77701507.056 9
  20756342.848    20756346.623   -15165224.672 8 -13357372.272 8
 89 11 17 13 36 29.0800000  0  4G13G 6G 3G 9
  20493807.554    20493812.322   -36198006.766 9   2487026.076 8
  23354294.182    23354299.494    11908988.492 9   7562581.939 9
  23353306.681    23353311.054   -66353101.305 9  77641931.132 8
  20766884.979    20766889.347   -15109824.099 8 -13314203.020 8
 89 11 17 13 36 59.0800000  0  4G13G 6G 3G 9
  20493116.474    20493120.563   -36201640.451 8   2484194.622 7
  23375943.077    23375947.253    12022747.050 9   7651224.860 9
  23338807.259    23338812.086   -66429292.491 9  77582561.381 8
  20777541.287    20777543.889   -15053829.219 9 -13270570.651 9
 89 11 17 13 37 29.0800000  0  4G13G 6G 3G 9
  20492501.461    20492504.961   -36204872.465 9   2481676.148 8
  23397641.446    23397645.799    12136774.993 9   7740077.700 9
  23324359.687    23324363.676   -66505218.701 9  77523398.122 8
  20788309.802    20788312.985   -14997241.298 9 -13226476.183 8
 89 11 17 13 37 59.0800000  0  4G13G 6G 3G 9
  20491962.450    20491966.600   -36207704.158 9   2479469.634 7
  23419390.369    23419396.059    12251069.604 9   7829138.323 9
  23309961.996    23309965.653   -66580879.269 9  77464441.840 9
  20799189.882    20799194.442   -14940061.630 8 -13181920.617 8
 89 11 17 13 38 29.0800000  0  4G13G 6G 3G 9
  20491499.345    20491504.302   -36210137.295 8   2477573.666 8
  23441191.336    23441195.663    12365628.125 9   7918404.561 9
  23295613.658    23295619.086   -66656274.039 9  77405692.685 9
  20810182.977    20810186.956   -14882291.821 8 -13136905.200 8
 89 11 17 13 38 59.0800000  0  4G13G 6G 3G 9
  20491112.071    20491116.952   -36212173.063 9   2475987.344 8
  23463040.716    23463045.171    12480447.887 9   8007874.364 8
  23281318.075    23281322.133   -66731402.247 9  77347151.233 9
  20821287.940    20821292.135   -14823933.312 9 -13091431.059 8
 89 11 17 13 39 29.0800000  0  4G13G 6G 3G 9
  20490800.576    20490803.822   -36213812.804 8   2474709.608 7
  23484939.191    23484944.908    12595526.166 9   8097545.596 9
  23267072.450    23267077.496   -66806263.934 9  77288817.462 9
  20832505.369    20832509.039   -14764987.602 9 -13045499.356 8
 89 11 17 13 39 59.0800000  0  4G13G 6G 3G 9
  20490562.868    20490568.612   -36215057.672 8   2473739.561 7
  23506887.721    23506892.117    12710860.458 9   8187416.320 9
  23252877.855    23252882.168   -66880858.109 9  77230692.143 9
  20843834.301    20843837.149   -14705455.992 9 -12999111.108 9
 89 11 17 13 40 29.0800000  0  4G13G 6G 3G 9
  20490401.031    20490405.589   -36215909.480 8   2473075.800 7
  23528881.480    23528887.703    12826447.888 9   8277484.258 9
  23238732.972    23238738.984   -66955184.646 9  77172775.372 9
  20855273.911    20855277.944   -14645339.999 8 -12952267.493 8
 89 11 17 13 40 59.0800000  0  4G13G 6G 3G 9
  20490313.767    20490318.168   -36216369.539 9   2472717.292 7
  23550925.293    23550930.926    12942285.510 9   8367747.141 9
  23224640.727    23224645.010   -67029243.370 9  77115067.279 9
  20866824.824    20866827.357   -14584641.453 9 -12904969.952 8
 89 11 17 13 41 29.0800000  0  4G13G 6G 3G 9
  20490300.167    20490304.701   -36216439.641 9   2472662.665 8
  23573016.361    23573021.779    13058370.734 9   8458202.967 9
  23210599.289    23210602.934   -67103033.890 9  77057568.195 9
  20878485.888    20878489.942   -14523361.662 9 -12857219.483 8
 89 11 17 13 41 59.0800000  0  4G13G 6G 3G 9
  20490360.309    20490365.597   -36216120.806 8   2472911.087 8
  23595153.022    23595158.813    13174700.911 9   8548849.636 9
  23196608.735    23196613.047   -67176555.822 9  77000278.394 9
  20890256.796    20890261.145   -14461502.363 9 -12809017.438 9
 89 11 17 13 42 29.0800000  0  4G13G 6G 3G 9
  20490494.758    20490498.235   -36215415.035 9   2473461.033 8
  23617336.374    23617341.842    13291273.294 9   8639685.045 9
  23182669.402    23182672.613   -67249808.636 9  76943198.303 9
  20902137.810    20902143.123   -14399065.057 8 -12760365.027 8
 89 11 17 13 42 59.0800000  0  4G13G 6G 3G 9
  20490702.975    20490707.190   -36214323.865 9   2474311.284 7
  23639564.944    23639570.951    13408085.018 9   8730706.937 9
  23168779.914    23168784.683   -67322792.101 9  76886328.094 9
  20914129.400    20914133.182   -14336051.493 9 -12711263.565 8
 89 11 17 13 43 29.0800000  0  4G13G 6G 3G 9
  20490983.770    20490988.546   -36212848.010 9   2475461.266 8
  23661839.281    23661843.496    13525133.528 9   8821913.331 9
  23154943.622    23154948.106   -67395505.831 9  76829668.058 9
  20926229.826    20926234.320   -14272463.184 9 -12661714.258 8
 89 11 17 13 43 59.0800000  0  4G13G 6G 3G 9
  20491337.177    20491341.430   -36210989.436 9   2476909.475 8
  23684157.259    23684162.752    13642416.083 9   8913302.103 9
  23141158.653    23141162.831   -67467949.300 9  76773218.611 9
  20938438.888    20938443.791   -14208301.531 9 -12611718.207 8
 89 11 17 13 44 29.0800000  0  4G13G 6G 3G 9
  20491763.415    20491769.079   -36208749.872 9   2478654.559 8
  23706519.867    23706525.131    13759929.854 9   9004871.022 9
  23127423.437    23127428.287   -67540122.532 9  76716979.725 9
  20950757.379    20950761.960   -14143568.638 9 -12561277.019 8
 89 11 17 13 44 59.0800000  0  4G13G 6G 3G 9
  20492262.384    20492266.475   -36206130.946 9   2480695.240 8
  23728925.149    23728931.008    13877671.848 9   9096617.761 9
  23113740.243    23113744.933   -67612025.327 9  76660951.586 9
  20963185.074    20963187.957   -14078266.228 9 -12510392.046 9
 89 11 17 13 45 29.0800000  0  4G13G 6G 3G 9
  20492833.286    20492836.594   -36203133.582 8   2483030.821 8
  23751373.954    23751379.584    13995639.495 9   9188540.360 9
  23100109.891    23100113.872   -67683657.036 9  76605134.657 9
  20975720.052    20975723.350   -14012396.005 9 -12459064.623 8
 89 11 17 13 45 59.0800000  0  4G13G 6G 3G 9
  20493475.477    20493478.663   -36199759.781 9   2485659.719 8
  23773864.961    23773870.546    14113830.013 9   9280636.634 9
  23086530.868    23086534.775   -67755017.475 9  76549529.116 9
  20988362.121    20988364.944   -13945959.763 9 -12407296.150 8
 89 11 17 13 46 29.0800000  0  4G13G 6G 3G 9
  20494187.615    20494192.385   -36196010.516 9   2488581.206 8
  23796398.632    23796404.464    14232240.884 9   9372904.614 9
  23073002.619    23073007.190   -67826106.361 9  76494135.161 9
  21001111.749    21001115.124   -13878959.148 9 -12355087.905 9
 89 11 17 13 46 59.0800000  0  4G13G 6G 3G 9
  20494972.862    20494977.089   -36191887.735 9   2491793.729 9
  23818972.647    23818977.709    14350868.937 9   9465341.840 8
  23059527.226    23059532.052   -67896923.401 9  76438953.065 9
  21013968.347    21013972.730   -13811395.957 9 -12302441.278 8
 89 11 17 13 47 29.0800000  0  4G13G 6G 3G 9
  20495827.722    20495833.020   -36187392.487 9   2495296.515 8
  23841587.610    23841592.351    14469711.559 9   9557946.254 7
  23046102.553    23046107.121   -67967468.428 9  76383982.905 9
  21026932.785    21026936.371   -13743272.122 9 -12249357.815 8
 89 11 17 13 47 59.0800000  0  4G13G 6G 3G 9
  20496754.495    20496758.052   -36182527.399 9   2499087.480 7
  23864243.045    23864249.130    14588765.880 9   9650715.607 9
  23032730.040    23032733.885   -68037741.152 9  76329224.959 9
  21040002.252    21040005.982   -13674589.562 9 -12195838.955 8
 89 11 17 13 48 29.0800000  0  4G13G 6G 3G 9
  20497749.545    20497754.920   -36177293.031 8   2503166.194 7
  23886938.833    23886944.086    14708029.131 8   9743647.745 8
  23019409.147    23019413.544   -68107741.297 9  76274679.389 9
  21053177.447    21053181.240   -13605349.982 9 -12141886.059 8
 89 11 17 13 48 59.0800000  0  4G13G 6G 3G 9
  20498815.254    20498820.354   -36171691.348 9   2507531.115 9
  23909672.889    23909677.560    14827498.435 8   9836740.421 9
  23006140.586    23006145.165   -68177468.828 9  76220346.255 8
  21066460.046    21066462.399   -13535555.567 9 -12087500.842 9
 89 11 17 13 49 29.0800000  0  4G13G 6G 3G 9
  20499951.602    20499956.418   -36165723.679 9   2512181.237 8
  23932445.635    23932451.989    14947171.159 8   9929991.586 9
  22992924.650    22992928.041   -68246923.374 9  76166225.816 9
  21079846.159    21079850.224   -13465208.032 9 -12032684.609 8
 89 11 17 13 49 59.0800000  0  4G13G 6G 3G 9
  20501157.256    20501160.868   -36159392.015 9   2517114.987 8
  23955255.998    23955263.196    15067044.464 8  10023399.062 9
  22979758.486    22979763.223   -68316104.708 9  76112318.284 9
  21093338.102    21093341.274   -13394309.244 9 -11977438.829 9
 89 11 17 13 50 29.0800000  0  4G13G 6G 3G 9
  20502430.024    20502435.044   -36152697.579 9   2522331.410 8
  23978105.122    23978112.801    15187115.553 8  10116960.678 9
  22966646.404    22966650.558   -68385012.858 9  76058623.618 8
  21106933.890    21106938.097   -13322861.441 9 -11921765.255 8
 89 11 17 13 50 59.0800000  0  4G13G 6G 3G 9
  20503772.821    20503776.515   -36145642.527 8   2527828.858 8
  24000992.274    24000998.810    15307381.423 9  10210674.038 9
  22953585.889    22953590.005   -68453647.670 9  76005141.930 8
  21120633.688    21120638.386   -13250866.506 8 -11865665.338 8
 89 11 17 13 51 29.0800000  0  4G13G 6G 3G 9
  20505183.106    20505188.206   -36138228.309 9   2533606.151 8
  24023915.034    24023921.223    15427839.538 9  10304537.267 9
  22940576.543    22940581.653   -68522008.719 8  75951873.573 8
  21134437.675    21134441.494   -13178326.451 9 -11809140.644 8
 89 11 17 13 51 59.0800000  0  4G13G 6G 3G 9
  20506662.828    20506667.589   -36130456.324 8   2539662.226 9
  24046873.287    24046880.358    15548486.959 9  10398548.059 9
  22927620.363    22927624.688   -68590095.845 9  75898818.655 9
  21148345.185    21148348.827   -13105243.328 9 -11752192.808 8
 89 11 17 13 52 29.0800000  0  4G13G 6G 3G 9
  20508209.249    20508214.445   -36122328.315 9   2545995.726 7
  24069867.332    24069873.365    15669320.730 9  10492704.064 9
  22914716.687    22914719.535   -68657909.081 9  75845977.157 9
  21162355.081    21162358.951   -13031619.163 9 -11694823.373 9
 89 11 17 13 52 59.0800000  0  4G13G 6G 3G 9
  20509823.824    20509828.469   -36113846.155 8   2552605.193 8
  24092896.568    24092903.838    15790337.929 9  10587002.881 9
  22901864.563    22901867.973   -68725448.181 9  75793349.275 8
  21176468.461    21176473.153   -12957456.026 9 -11637033.960 8
 89 11 17 13 53 29.0800000  0  4G13G 6G 3G 9
  20511504.137    20511509.905   -36105010.860 8   2559489.839 8
  24115960.451    24115967.092    15911535.879 9  10681442.511 9
  22889064.066    22889068.602   -68792713.027 8  75740935.091 8
  21190684.101    21190687.195   -12882756.087 9 -11578826.257 9
 89 11 17 13 53 59.0800000  0  4G13G 6G 3G 9
  20513253.194    20513258.329   -36095824.432 8   2566648.089 8
  24139056.950    24139064.904    16032911.774 9  10776020.792 9
  22876315.335    22876320.448   -68859703.445 9  75688734.758 8
  21205000.190    21205004.221   -12807521.187 9 -11520201.702 8
 89 11 17 13 54 29.0800000  0  4G13G 6G 3G 9
  20515067.025    20515071.721   -36086288.320 8   2574078.817 8
  24162188.007    24162195.001    16154462.887 9  10870735.590 9
  22863619.905    22863623.989   -68926419.242 9  75636748.399 9
  21219417.497    21219421.482   -12731753.520 9 -11461162.008 9
 89 11 17 13 54 59.0800000  0  4G13G 6G 3G 9
  20516948.447    20516953.678   -36076404.190 9   2581780.731 7
  24185351.582    24185358.634    16276186.139 9  10965584.522 9
  22850976.920    22850981.370   -68992860.664 9  75584975.846 8
  21233937.178    21233942.082   -12655455.574 9 -11401709.106 9
 89 11 17 13 55 29.0800000  0  4G13G 6G 3G 9
  20518895.552    20518899.666   -36066173.796 9   2589752.447 8
  24208546.817    24208553.893    16398078.871 9  11060565.496 9
  22838386.620    22838390.149   -69059027.371 9  75533417.352 8
  21248556.616    21248559.840   -12578629.302 9 -11341844.523 9
 89 11 17 13 55 59.0800000  0  4G13G 6G 3G 9
  20520907.387    20520912.287   -36055598.764 8   2597992.714 8
  24231774.492    24231781.663    16520138.238 9  11155676.339 9
  22825845.966    22825851.111   -69124919.443 9  75482072.858 8
  21263276.597    21263279.635   -12501277.035 8 -11281570.080 8
 89 11 17 13 56 29.0800000  0  4G13G12G 3G 9
  20522984.313    20522990.248   -36044680.670 9   2606500.296 8
                  20648307.503   -77446291.154 9
  22813360.718    22813364.570   -69190536.521 9  75430942.643 8
  21278096.226    21278099.897   -12423400.768 9 -11220887.322 8
 89 11 17 13 56 59.0800000  0  4G13G12G 3G 9
  20525127.448    20525132.409   -36033421.385 8   2615273.726 8
  20643228.632    20643232.802   -77473103.641 9  98376714.035 8
  22800926.082    22800930.740   -69255878.816 9  75380026.556 8
  21293015.122    21293018.510   -12345002.905 9 -11159798.119 8
 89 11 17 13 57 29.0800000  0  4G13G12G 3G 9
  20527334.733    20527339.303   -36021822.577 9   2624311.714 8
  20638237.592    20638242.264   -77499332.409 9  98356276.023 8
  22788544.273    22788549.047   -69320946.177 9  75329324.685 9
  21308031.687    21308036.986   -12266085.541 9 -11098304.129 8
 89 11 17 13 57 59.0800000  0  4G13G12G 3G 9
  20529606.795    20529611.337   -36009885.825 9   2633613.028 8
  20633356.989    20633361.860   -77524975.533 9  98336294.354 9
  22776214.528    22776218.530   -69385738.255 9  75278837.321 9
  21323148.118    21323151.697   -12186651.246 9 -11036407.321 8
 89 11 17 13 58 29.0800000  0  4G13G12G 3G 9
  20531941.986    20531948.379   -35997612.678 9   2643176.472 8
  20628589.038    20628594.867   -77550031.528 9  98316770.191 8
  22763937.129    22763941.520   -69450255.715 9  75228563.947 8
  21338362.230    21338365.111   -12106702.095 9 -10974109.323 8
 89 11 17 13 58 59.0800000  0  4G13G12G 3G 9
  20534341.780    20534346.040   -35985004.793 8   2653000.770 8
  20623933.205    20623938.858   -77574498.864 9  98297704.728 8
  22751713.106    22751716.433   -69514497.966 9  75178505.046 9
  21353673.718    21353676.785   -12026240.199 9 -10911411.802 9
 89 11 17 13 59 29.0800000  0  4G13G12G 3G 9
  20536803.583    20536807.654   -35972064.256 9   2663084.268 8
  20619390.189    20619394.377   -77598376.072 9  98279099.115 8
  22739539.571    22739544.473   -69578465.008 9  75128660.613 9
  21369081.691    21369085.863   -11945268.118 9 -10848316.711 9
 89 11 17 13 59 59.0800000  0  4G13G12G 3G 9
  20539329.497    20539334.191   -35958792.461 9   2673425.925 7
  20614959.471    20614963.516   -77621661.397 9  98260954.730 8
  22727420.231    22727424.846   -69642156.906 9  75079030.571 8
  21384587.120    21384590.090   -11863788.275 9 -10784825.965 8
 89 11 17 14  0 29.0800000  0  4G13G12G 3G 9
  20541917.019    20541922.945   -35945190.781 9   2684024.628 8
  20610640.507    20610644.944   -77644353.248 9  98243272.774 8
  22715352.116    22715356.178   -69705573.572 9  75029615.000 9
  21400187.855    21400191.898   -11781802.681 9 -10720941.128 9
 89 11 17 14  0 59.0800000  0  4G13G12G 3G 9
  20544568.358    20544573.674   -35931261.364 9   2694878.690 8
  20606435.496    20606440.016   -77666450.325 9  98226054.275 8
  22703336.988    22703341.161   -69768715.139 9  74980413.792 9
  21415885.051    21415889.262   -11699313.897 9 -10656664.213 8
 89 11 17 14  1 29.0800000  0  4G13G12G 3G 9
  20547282.320    20547285.409   -35917005.672 9   2705986.992 8
  20602344.514    20602348.216   -77687951.164 9  98209300.378 8
  22691373.951    22691377.780   -69831581.764 9  74931426.819 8
  21431678.668    21431682.529   -11616324.335 8 -10591997.071 8
 89 11 17 14  1 59.0800000  0  4G13G12G 3G 9
  20550056.415    20550061.057   -35902425.140 9   2717348.422 8
  20598366.618    20598371.783   -77708854.482 9  98193012.073 9
  22679462.598    22679466.017   -69894173.369 9  74882654.149 8
  21447565.048    21447569.895   -11532836.581 9 -10526941.728 8
 89 11 17 14  2 29.0800000  0  4G13G12G 3G 9
  20552892.033    20552897.073   -35887521.956 9   2728961.261 8
  20594502.402    20594507.153   -77729158.928 9  98177190.434 9
  22667603.990    22667608.334   -69956490.231 9  74834095.566 9
  21463546.659    21463550.976   -11448852.935 9 -10461499.980 8
 89 11 17 14  2 59.0800000  0  4G13G12G 3G 9
  20555788.718    20555794.002   -35872297.873 9   2740824.162 8
  20590753.543    20590757.050   -77748862.725 9  98161836.798 7
  22655798.474    22655803.108   -70018532.224 9  74785751.165 8
  21479622.064    21479625.874   -11364375.892 9 -10395673.780 9
 89 11 17 14  3 29.0800000  0  4G13G12G 3G 9
  20558747.571    20558750.780   -35856754.116 8   2752936.167 8
  20587118.323    20587123.170   -77767964.509 9  98146952.302 9
  22644044.471    22644048.098   -70080299.186 9  74737621.075 8
  21495791.051    21495794.664   -11279407.783 9 -10329464.906 9
 89 11 17 14  3 59.0800000  0  4G13G12G 3G 9
  20561765.087    20561769.545   -35840892.878 9   2765295.535 7
  20583598.479    20583602.425   -77786463.138 9  98132537.773 9
  22632342.437    22632346.508   -70141791.419 9  74689705.051 9
  21512053.191    21512056.887   -11193950.960 9 -10262875.215 8
 89 11 17 14  4 29.0800000  0  4G13G12G 3G 9
  20564844.137    20564847.759   -35824715.937 9   2777900.937 8
  20580193.072    20580196.678   -77804357.234 9  98118594.322 8
  22620693.173    22620697.033   -70203008.586 9  74642003.381 8
  21528407.482    21528410.966   -11108008.324 9 -10195906.979 8
 89 11 17 14  4 59.0800000  0  4G13G12G 3G 9
  20567982.478    20567986.043   -35808224.722 9   2790751.223 8
  20576903.710    20576907.522   -77821645.618 9  98105122.845 9
  22609096.082    22609100.005   -70263951.208 9  74594515.625 8
  21544854.061    21544857.803   -11021582.100 9 -10128561.932 8
 89 11 17 14  5 29.0800000  0  4G13G12G 3G 9
  20571179.233    20571183.624   -35791420.968 9   2803845.026 9
  20573728.482    20573733.075   -77838326.581 9  98092124.693 8
  22597551.933    22597556.628   -70324619.260 9  74547241.820 8
  21561391.767    21561396.056   -10934674.916 9 -10060842.104 8
 89 11 17 14  5 59.0800000  0  4G13G12G 3G 9
  20574437.461    20574440.466   -35774306.540 9   2817180.911 8
  20570670.699    20570674.812   -77854399.327 9  98079600.459 7
  22586058.919    22586064.004   -70385013.095 9  74500181.682 7
  21578020.399    21578023.907   -10847289.226 9  -9992749.440 7
 89 11 17 14  6 29.0800000  0  4G13G12G 3G 9
  20577752.261    20577756.833   -35756883.036 9   2830757.621 8
  20567727.478    20567731.841   -77869862.422 9  98067551.286 9
  22574619.022    22574623.098   -70445132.463 9  74453335.418 9
  21594740.616    21594745.083   -10759427.623 9  -9924285.912 9
 89 11 17 14  6 59.0800000  0  4G13G12G 3G 9
  20581126.391    20581130.299   -35739152.174 9   2844573.854 8
  20564901.652    20564905.759   -77884714.874 9  98055977.947 8
  22563230.002    22563234.860   -70504977.505 9  74406702.901 8
  21611550.094    21611552.741   -10671092.776 9  -9855453.623 8
 89 11 17 14  7 29.0800000  0  4G13G12G 3G 9
  20584558.334    20584563.017   -35721116.039 9   2858627.967 8
  20562191.756    20562196.536   -77898955.550 9  98044881.307 9
  22551894.923    22551898.099   -70564548.676 9  74360283.803 9
  21628449.629    21628452.933   -10582287.231 9  -9786254.544 9
 89 11 17 14  7 59.0800000  0  4G13G12G 3G 9
  20588048.285    20588052.465   -35702776.103 9   2872918.782 8
  20559598.711    20559602.256   -77912583.452 9  98034262.151 8
  22540610.767    22540614.690   -70623845.865 9  74314078.211 8
  21645437.788    21645440.875   -10493013.653 9  -9716690.771 7
 89 11 17 14  8 29.0800000  0  4G13G12G 3G 9
  20591596.120    20591600.727   -35684133.715 9   2887445.277 7
  20557121.710    20557126.502   -77925597.942 9  98024120.963 8
  22529379.146    22529383.252   -70682869.321 8  74268085.896 8
  21662513.811    21662517.365   -10403274.782 9  -9646764.448 8
 89 11 17 14  8 59.0800000  0  4G13G12G 3G 9
  20595200.179    20595205.127   -35665190.881 9   2902205.901 8
  20554762.049    20554766.210   -77937997.216 9  98014459.186 9
  22518199.062    22518203.359   -70741619.245 9  74222306.741 8
  21679679.199    21679682.838   -10313072.969 9  -9576477.377 9
 89 11 17 14  9 29.0800000  0  4G13G12G 3G 9
  20598861.788    20598865.206   -35645949.095 9   2917199.483 7
  20552519.690    20552522.474   -77949780.062 9  98005277.753 9
  22507072.351    22507075.425   -70800095.462 9  74176740.866 8
  21696931.678    21696935.074   -10222410.685 9  -9505831.496 8
 89 11 17 14  9 59.0800000  0  4G13G12G 3G 9
  20602580.249    20602584.909   -35626410.579 9   2932424.287 8
  20550395.240    20550399.861   -77960945.656 9  97996577.286 8
  22495996.021    22496000.703   -70858298.505 9  74131387.853 9
  21714270.968    21714274.358   -10131290.902 9  -9434829.125 7
 89 11 17 14 10 29.0800000  0  4G13G12G 3G 9
  20606354.727    20606358.897   -35606576.566 9   2947879.323 8
  20548387.668    20548391.702   -77971492.929 9  97988358.622 8
  22484972.388    22484976.550   -70916228.347 9  74086247.720 8
  21731697.303    21731700.600   -10039716.196 9  -9363472.270 8
 89 11 17 14 10 59.0800000  0  4G13G12G 3G 9
  20610184.682    20610189.079   -35586448.842 9   2963563.244 8
  20546498.948    20546503.807   -77981420.870 9  97980622.568 7
  22474000.121    22474004.672   -70973885.039 9  74041320.445 9
  21749209.586    21749213.408    -9947689.232 9  -9291762.994 9
 89 11 17 14 11 29.0800000  0  4G13G12G 3G 9
  20614070.936    20614075.374   -35566029.529 9   2979474.366 8
  20544727.448    20544731.699   -77990728.727 8  97973369.675 9
  22463080.784    22463084.097   -71031268.923 9  73996605.727 9
  21766807.265    21766810.556    -9855212.722 9  -9219703.458 8
 89 11 17 14 11 59.0800000  0  4G13G12G 3G 9
  20618011.400    20618016.191   -35545319.681 9   2995611.896 7
  20543075.010    20543078.994   -77999415.396 9  97966600.819 9
  22452212.942    22452216.598   -71088380.385 9  73952103.299 8
  21784489.421    21784493.467    -9762289.349 9  -9147295.691 8
 89 11 17 14 12 29.0800000  0  4G13G12G 3G 9
  20622007.215    20622012.049   -35524321.323 9   3011974.254 8
  20541539.722    20541544.510   -78007480.355 9  97960316.418 8
  22441396.893    22441399.750   -71145219.430 9  73907813.145 9
  21802257.409    21802261.182    -9668922.175 9  -9074542.112 9
 89 11 17 14 12 59.0800000  0  4G13G12G 3G 9
  20626057.728    20626061.399   -35503036.136 9   3028560.098 8
  20540124.044    20540128.319   -78014922.428 9  97954517.398 8
  22430632.795    22430637.081   -71201786.270 9  73863735.081 9
  21820108.887    21820112.315    -9575113.446 9  -9001444.468 9
 89 11 17 14 13 29.0800000  0  4G13G12G 3G 9
  20630162.291    20630166.927   -35481466.155 9   3045367.853 8
  20538826.238    20538831.270   -78021741.053 9  97949204.174 8
  22419919.675    22419923.064   -71258081.197 9  73819868.901 9
  21838043.491    21838046.767    -9480866.173 9  -8928005.086 9
 89 11 17 14 13 59.0800000  0  4G13G12G 3G 9
  20634321.137    20634326.082   -35459612.570 9   3062396.614 8
  20537647.679    20537651.913   -78027935.070 9  97944377.656 9
  22409258.850    22409263.348   -71314104.530 9  73776214.353 8
  21856060.750    21856065.136    -9386183.009 9  -8854226.057 9
 89 11 17 14 14 29.0800000  0  4G13G12G 3G 9
  20638533.559    20638537.600   -35437477.960 9   3079644.329 7
  20536587.974    20536591.951   -78033503.582 9  97940038.541 8
  22398650.007    22398653.168   -71369856.591 9  73732771.172 9
  21874160.242    21874164.124    -9291066.983 9  -8780109.751 9
 89 11 17 14 14 59.0800000  0  4G13G12G 3G 9
  20642799.469    20642803.416   -35415063.318 9   3097110.252 8
  20535648.132    20535651.719   -78038446.077 9  97936187.207 9
  22388091.488    22388096.553   -71425337.492 9  73689539.291 8
  21892342.378    21892346.601    -9195520.865 9  -8705658.306 8
 89 11 17 14 15 29.0800000  0  4G13G12G 3G 9
  20647117.002    20647121.464   -35392370.731 9   3114792.740 8
  20534825.905    20534830.676   -78042762.178 9  97932823.995 9
  22377585.804    22377589.904   -71480547.561 9  73646518.452 8
  21910605.921    21910610.364    -9099547.441 9  -8630873.878 9
 89 11 17 14 15 59.0800000  0  4G13G12G 3G 9
  20651487.689    20651492.174   -35369401.848 9   3132690.521 8
  20534124.219    20534128.941   -78046450.815 9  97929949.709 9
  22367130.823    22367136.306   -71535487.152 9  73603708.361 8
  21928950.037    21928954.455    -9003149.341 8  -8555758.562 9
 89 11 17 14 16 29.0800000  0  4G13G12G 3G 9
  20655910.826    20655915.333   -35346158.478 9   3150802.201 8
  20533541.782    20533546.464   -78049511.221 9  97927564.958 9
  22356727.611    22356731.969   -71590156.473 9  73561108.889 8
  21947373.941    21947378.370    -8906329.709 9  -8480314.774 9
 89 11 17 14 16 59.0800000  0  4G13G12G 3G 9
  20660385.478    20660390.288   -35322642.286 9   3169126.462 9
  20533079.777    20533083.745   -78051942.597 9  97925670.369 8
  22346375.704    22346380.202   -71644555.724 8  73518719.847 7
  21965877.741    21965882.062    -8809091.054 9  -8404544.465 9
 89 11 17 14 17 29.0800000  0  4G13G12G 3G 9
  20664912.048    20664916.252   -35298854.768 8   3187662.138 8
  20532736.284    20532741.332   -78053744.452 9  97924266.301 8
  22336075.695    22336079.551   -71698685.226 9  73476541.006 8
  21984460.946    21984464.983    -8711436.431 9  -8328450.019 9
 89 11 17 14 17 59.0800000  0  4G13G12G 3G 9
  20669489.924    20669494.004   -35274797.726 9   3206407.847 8
  20532513.471    20532518.230   -78054916.368 9  97923353.105 9
  22325826.031    22325831.023   -71752545.229 9  73434572.176 9
  22003122.343    22003127.705    -8613368.618 9  -8252033.620 9
 89 11 17 14 18 29.0800000  0  4G13G12G 3G 9
  20674119.764    20674123.788   -35250473.017 9   3225362.143 8
  20532411.048    20532414.605   -78055457.439 9  97922931.463 9
  22315628.624    22315632.852   -71806136.296 9  73392812.879 9
  22021862.794    22021867.655    -8514890.550 9  -8175297.552 9
 89 11 17 14 18 59.0800000  0  4G13G12G 3G 9
  20678798.522    20678803.115   -35225882.731 9   3244523.362 8
  20532427.515    20532431.709   -78055367.697 9  97923001.372 8
  22305480.640    22305485.222   -71859458.764 9  73351262.900 8
  22040679.875    22040684.006    -8416005.476 9  -8098244.336 8
 89 11 17 14 19 29.0800000  0  4G13G12G 3G 9
  20683527.477    20683532.990   -35201028.062 9   3263890.599 9
  20532564.461    20532569.328   -78054646.366 9  97923563.419 9
  22295385.263    22295390.184   -71912512.636 9  73309922.208 8
  22059574.430    22059578.865    -8316715.770 9  -8020875.828 8
 89 11 17 14 19 59.0800000  0  4G13G12G 3G 9
  20688307.916    20688312.366   -35175910.593 9   3283462.606 7
  20532821.976    20532827.030   -78053292.816 9  97924618.103 8
  22285340.902    22285345.160   -71965298.356 8  73268790.478 8
  22078545.152    22078550.113    -8217024.377 9  -7943194.307 8
 89 11 17 14 20 29.0800000  0  4G13G12G 3G 9
  20693137.773    20693141.469   -35150532.130 9   3303237.984 8
  20533200.458    20533204.458   -78051306.674 9  97926165.725 9
  22275347.055    22275351.574   -72017816.047 9  73227867.587 9
  22097592.089    22097594.549    -8116934.106 9  -7865201.984 8
 89 11 17 14 20 59.0800000  0  4G13G12G 3G 9
  20698016.098    20698020.928   -35124895.063 9   3323214.874 8
  20533698.230    20533702.923   -78048687.762 9  97928206.413 8
  22265404.583    22265408.041   -72070066.326 9  73187153.066 9
  22116713.749    22116718.121    -8016448.315 9  -7786901.439 9
 89 11 17 14 21 29.0800000  0  4G13G12G 3G 9
  20702943.849    20702949.341   -35099000.341 9   3343392.550 7
  20534317.978    20534322.240   -78045435.638 9  97930740.527 8
  22255512.407    22255516.364   -72122049.652 9  73146646.579 9
  22135910.080    22135914.106    -7915569.735 9  -7708294.824 9
 89 11 17 14 21 59.0800000  0  4G13G12G 3G 9
  20707919.762    20707924.843   -35072849.855 9   3363769.508 8
  20535056.939    20535061.641   -78041549.637 9  97933768.562 9
  22245670.831    22245675.228   -72173766.121 9  73106348.029 9
  22155181.220    22155185.024    -7814301.196 9  -7629384.362 9
 89 11 17 14 22 29.0800000  0  4G13G12G 3G 9
  20712944.030    20712949.475   -35046445.161 9   3384344.555 9
  20535918.130    20535920.780   -78037029.156 9  97937290.992 9
  22235879.620    22235883.562   -72225215.922 8  73066257.266 9
  22174525.067    22174531.139    -7712645.514 9  -7550172.217 8
 89 11 17 14 22 59.0800000  0  4G13G12G 3G 9
  20718016.458    20718022.775   -35019787.772 9   3405116.513 8
  20536897.624    20536903.268   -78031874.066 9  97941307.911 9
  22226140.088    22226144.593   -72276400.054 9  73026373.514 8
  22193942.492    22193946.881    -7610606.051 9  -7470661.073 9
 89 11 17 14 23 29.0800000  0  4G13G12G 3G 9
  20723137.144    20723141.688   -34992879.971 9   3426083.578 8
  20537999.502    20538005.168   -78026084.465 9  97945819.258 8
  22216449.921    22216454.896   -72327318.782 9  72986696.562 9
  22213432.620    22213437.859    -7508185.766 9  -7390853.157 8
 89 11 17 14 23 59.0800000  0  4G13G12G 3G 9
  20728305.510    20728311.697   -34965723.332 9   3447244.560 8
  20539221.975    20539227.335   -78019660.144 9  97950825.186 8
  22206812.305    22206816.348   -72377972.207 8  72947226.339 9
  22232994.854    22232999.221    -7405387.502 9  -7310750.721 8
 89 11 17 14 24 29.0800000  0  4G13G12G 3G 9
  20733520.204    20733525.407   -34938319.687 9   3468598.055 7
  20540565.967    20540570.157   -78012600.747 9  97956326.008 7
  22197222.724    22197227.607   -72428360.828 9  72907962.476 9
  22252628.743    22252632.093    -7302214.448 9  -7230356.209 8
 89 11 17 14 24 59.0800000  0  4G13G12G 3G 9
  20738781.631    20738786.218   -34910670.215 9   3490143.098 8
  20542030.629    20542034.804   -78004906.054 9  97962321.872 9
  22187684.818    22187688.538   -72478485.017 9  72868904.675 9
  22272332.489    22272336.896    -7198669.262 9  -7149671.720 7
 89 11 17 14 25 29.0800000  0  4G13G12G 3G 9
  20744089.788    20744094.687   -34882776.877 9   3511878.164 8
  20543615.433    20543620.628   -77996575.614 9  97968813.100 8
  22178196.871    22178200.895   -72528345.035 9  72830052.727 8
  22292106.397    22292110.654    -7094755.102 9  -7068699.736 9
 89 11 17 14 25 59.0800000  0  4G13G12G 3G 9
  20749443.891    20749448.046   -34854641.274 9   3533802.005 8
  20545322.246    20545326.257   -77987609.231 9  97975799.877 9
  22168758.462    22168762.752   -72577941.482 9  72791406.144 9
  22311950.419    22311955.097    -6990474.755 9  -6987442.405 9
 89 11 17 14 26 29.0800000  0  4G13G12G 3G 9
  20754843.423    20754848.278   -34826265.392 9   3555913.060 9
  20547149.601    20547153.458   -77978006.785 9  97983282.310 8
  22159371.356    22159375.390   -72627274.581 9  72752964.778 8
  22331863.544    22331867.240    -6885831.542 9  -6905902.320 8
 89 11 17 14 26 59.0800000  0  4G13G12G 3G 9
  20760288.161    20760293.265   -34797650.529 9   3578210.376 8
  20549096.255    20549101.988   -77967768.679 9  97991260.024 8
  22150033.879    22150037.554   -72676344.837 9  72714728.231 8
  22351845.226    22351849.555    -6780828.472 9  -6824081.832 8
 89 11 17 14 27 29.0800000  0  4G13G12G 3G 9
  20765779.158    20765784.119   -34768798.486 9   3600692.501 7
  20551166.006    20551171.332   -77956895.056 9  97999732.968 7
  22140745.387    22140749.011   -72725152.965 9  72676695.932 9
  22371894.213    22371898.631    -6675468.538 9  -6741983.271 9
 89 11 17 14 27 59.0800000  0  4G13G12G 3G 9
  20771314.068    20771318.554   -34739710.867 9   3623358.158 8
  20553356.804    20553361.385   -77945385.670 9  98008701.298 9
  22131507.141    22131511.188   -72773698.863 9  72638867.954 9
  22392011.095    22392016.591    -6569754.990 9  -6659609.183 8
 89 11 17 14 28 29.0800000  0  4G13G12G 3G 9
  20776894.162    20776899.054   -34710389.213 9   3646206.190 8
  20555667.755    20555671.769   -77933240.234 8  98018165.250 8
  22122319.305    22122322.913   -72821983.749 9  72601243.360 8
  22412194.491    22412199.473    -6463690.603 9  -6576961.730 9
 89 11 17 14 28 59.0800000  0  4G13G12G 3G 9
  20782518.503    20782523.094   -34680835.186 9   3669235.281 8
  20558099.974    20558105.756   -77920458.896 9  98028124.701 9
  22113180.777    22113184.509   -72870007.580 9  72563822.184 8
  22432444.116    22432447.941    -6357278.486 9  -6494043.304 8
 89 11 17 14 29 29.0800000  0  4G13G12G 3G 9
  20788185.846    20788189.901   -34651051.058 9   3692443.660 8
  20560652.541    20560658.172   -77907041.552 9  98038579.751 9
  22104092.146    22104096.104   -72917770.884 9  72526604.007 8
  22452759.226    22452762.959    -6250521.742 9  -6410856.344 8
 89 11 17 14 29 59.0800000  0  4G13G12G 3G 9
  20793897.244    20793901.640   -34621037.960 9   3715830.461 8
  20563327.346    20563331.365   -77892988.858 9  98049529.875 9
  22095052.087    22095055.642   -72965274.269 9  72489588.360 9
  22473139.911    22473143.992    -6143423.583 9  -6327403.357 8
 89 11 17 14 30 29.0800000  0  4G13G12G 3G 9
  20799651.771    20799657.010   -34590797.831 9   3739394.152 8
  20566122.595    20566128.324   -77878300.607 9  98060975.206 8
  22086061.273    22086065.884   -73012517.847 9  72452775.167 8
  22493584.130    22493588.365    -6035987.115 9  -6243686.764 9
 89 11 17 14 30 59.0800000  0  4G13G12G 3G 9
  20805449.280    20805454.020   -34560332.090 9   3763133.653 8
  20569038.873    20569043.848   -77862976.985 9  98072915.663 9
  22077121.014    22077125.482   -73059502.665 9  72416163.596 8
  22514093.255    22514097.223    -5928215.259 9  -6159708.821 9
 89 11 17 14 31 29.0800000  0  4G13G12G 3G 9
  20811288.573    20811294.729   -34529642.473 9   3787047.622 8
  20572075.579    20572079.972   -77847018.195 9  98085351.053 8
  22068229.841    22068233.379   -73106228.601 9  72379753.748 8
  22534664.007    22534669.363    -5820111.031 9  -6075471.905 9
 89 11 17 14 31 59.0800000  0  4G13G12G 3G 9
  20817171.051    20817176.870   -34498730.185 9   3811135.091 8
  20575233.054    20575237.380   -77830424.652 9  98098281.037 9
  22059386.633    22059391.176   -73152696.428 9  72343545.018 8
  22555298.767    22555303.819    -5711677.822 9  -5990978.639 8
 89 11 17 14 32 29.0800000  0  4G13G12G 3G 9
  20823095.960    20823101.203   -34467596.788 9   3835394.881 8
  20578511.496    20578516.811   -77813196.628 9  98111705.428 9
  22050593.210    22050597.634   -73198906.765 9  72307536.945 8
  22575994.598    22575999.969    -5602918.595 9  -5906231.333 8
 89 11 17 14 32 59.0800000  0  4G13G12G 3G 9
  20829062.799    20829066.922   -34436244.891 9   3859824.895 8
  20581910.373    20581915.047   -77795333.967 8  98125624.344 7
  22041848.287    22041852.601   -73244859.822 9  72271729.338 7
  22596751.621    22596756.548    -5493836.664 9  -5821232.566 9
 89 11 17 14 33 29.0800000  0  4G13G12G 3G 9
  20835069.231    20835074.943   -34404675.574 9   3884424.342 8
  20585430.615    20585435.575   -77776836.778 9  98140037.706 8
  22033152.877    22033157.574   -73290556.153 9  72236121.788 8
  22617570.809    22617575.496    -5384434.728 9  -5735984.451 9
 89 11 17 14 33 59.0800000  0  4G13G12G 3G 9
  20841118.514    20841123.131   -34372890.240 9   3909192.125 9
  20589071.542    20589075.627   -77757705.629 8  98154945.064 9
  22024506.162    22024509.680   -73335996.515 9  72200713.706 8
  22638449.890    22638455.601    -5274716.170 9  -5650489.629 8
 89 11 17 14 34 29.0800000  0  4G13G12G 3G 9
  20847207.734    20847213.394   -34340890.570 9   3934126.903 8
  20592831.687    20592837.863   -77737941.026 9  98170346.005 9
  22015907.847    22015912.156   -73381181.397 9  72165504.695 8
  22659388.262    22659392.628    -5164684.011 9  -5564750.421 9
 89 11 17 14 34 59.0800000  0  4G13G12G 3G 9
  20853338.536    20853342.143   -34308678.296 9   3959227.346 8
  20596713.921    20596719.075   -77717543.091 9  98186240.458 8
  22007357.909    22007361.413   -73426111.143 9  72130494.488 9
  22680386.321    22680390.784    -5054341.630 9  -5478769.502 9
 89 11 17 14 35 29.0800000  0  4G13G12G 3G 9
  20859506.821    20859512.238   -34276255.161 9   3984492.109 8
  20600716.122    20600721.136   -77696512.498 9  98202627.901 9
  21998855.951    21998859.978   -73470786.711 9  72095682.347 8
  22701441.187    22701446.938    -4943692.113 7  -5392549.237 9
 89 11 17 14 35 59.0800000  0  4G13G12G 3G 9
  20865716.575    20865722.362   -34243622.615 9   4009920.031 7
  20604838.212    20604842.905   -77674849.708 9  98219507.965 8
  21990402.385    21990407.683   -73515208.012 9  72061068.337 9
  22722556.002    22722561.265    -4832738.598 9  -5306092.111 9
 89 11 17 14 36 29.0800000  0  4G13G12G 3G 9
  20871966.601    20871971.325   -34210781.961 9   4035510.127 8
  20609081.067    20609085.972   -77652555.202 9  98236880.262 8
  21981998.531    21982002.350   -73559375.835 9  72026651.832 8
  22743726.996    22743733.171    -4721483.994 9  -5219400.357 8
 89 11 17 14 36 59.0800000  0  4G13G12G 3G 9
  20878255.056    20878259.704   -34177735.403 9   4061260.668 8
  20613443.892    20613447.607   -77629629.567 9  98254744.353 8
  21973641.244    21973645.009   -73603290.552 9  71992432.565 8
  22764954.672    22764960.045    -4609931.531 9  -5132476.516 9
 89 11 17 14 37 29.0800000  0  4G13G12G 3G 9
  20884582.920    20884588.030   -34144484.282 9   4087170.603 8
  20617925.945    20617930.867   -77606072.938 9  98273100.142 9
  21965333.208    21965337.007   -73646952.923 9  71958409.931 8
  22786239.361    22786244.308    -4498084.551 9  -5045323.199 9
 89 11 17 14 37 59.0800000  0  4G13G12G 3G 9
  20890948.622    20890953.552   -34111029.867 9   4113238.966 8
  20622529.020    20622532.877   -77581886.124 9  98291946.960 9
  21957072.401    21957076.711   -73690363.534 9  71924583.446 8
  22807577.996    22807582.974    -4385946.211 9  -4957942.849 8
 89 11 17 14 38 29.0800000  0  4G13G12G 3G 9
  20897353.097    20897358.453   -34077373.662 9   4139464.527 8
  20627251.516    20627256.014   -77557069.848 9  98311284.278 8
  21948859.632    21948863.399   -73733522.941 9  71890952.699 8
  22828972.092    22828977.208    -4273519.642 9  -4870337.939 8
 89 11 17 14 38 59.0800000  0  4G13G12G 3G 9
  20903796.210    20903801.212   -34043517.651 9   4165845.776 8
  20632093.980    20632099.179   -77531624.795 9  98331111.550 9
  21940693.530    21940698.794   -73776431.834 9  71857517.168 8
  22850420.754    22850427.112    -4160808.076 9  -4782510.933 9
 89 11 17 14 39 29.0800000  0  4G13G12G 3G 9
  20910276.119    20910281.191   -34009462.998 9   4192381.775 7
  20637055.107    20637060.309   -77505551.648 9  98351428.239 8
  21932576.179    21932581.458   -73819090.514 9  71824276.606 7
  22871922.616    22871928.401    -4047814.540 9  -4694464.215 8
 89 11 17 14 39 59.0800000  0  4G13G12G 3G 9
  20916794.821    20916798.848   -33975211.759 9   4219070.935 9
  20642136.046    20642140.883   -77478850.857 9  98372233.994 9
  21924506.740    21924510.596   -73861499.554 9  71791230.575 8
  22893477.600    22893483.371    -3934542.411 9  -4606200.415 9
 89 11 17 14 40 29.0800000  0  4G13G12G 3G 9
  20923349.645    20923354.432   -33940765.361 9   4245912.248 9
  20647337.081    20647341.005   -77451523.451 9  98393528.019 9
  21916482.550    21916488.072   -73903659.965 9  71758378.261 9
  22915085.991    22915090.571    -3820994.766 9  -4517721.925 9
 89 11 17 14 40 59.0800000  0  4G13G12G 3G 9
  20929940.882    20929945.475   -33906124.814 9   4272904.859 8
  20652656.241    20652660.237   -77423569.616 9  98415310.186 8
  21908507.179    21908512.072   -73945571.755 9  71725719.699 9
  22936744.757    22936750.359    -3707174.890 9  -4429031.286 9
 89 11 17 14 41 29.0800000  0  4G13G12G 3G 9
  20936568.959    20936575.120   -33871291.834 9   4300047.465 8
  20658094.856    20658099.625   -77394990.129 9  98437579.885 8
  21900579.774    21900584.704   -73987235.514 8  71693254.406 8
  22958456.100    22958460.389    -3593085.749 9  -4340130.844 9
 89 11 17 14 41 59.0800000  0  4G13G12G 3G 9
  20943234.467    20943239.336   -33836267.728 9   4327338.969 9
  20663652.297    20663655.938   -77365785.661 9  98460336.589 8
  21892697.623    21892702.066   -74028651.770 9  71660982.000 9
  22980216.375    22980223.182    -3478730.320 9  -4251022.889 8
 89 11 17 14 42 29.0800000  0  4G13G12G 3G 9
  20949935.057    20949939.105   -33801054.762 9   4354777.623 9
  20669328.562    20669332.559   -77335956.940 9  98483579.707 8
  21884864.333    21884867.937   -74069821.197 9  71628901.906 9
  23002028.243    23002033.413    -3364111.733 8  -4161709.879 8
 89 11 17 14 42 59.0800000  0  4G13G12G 3G 9
  20956671.561    20956677.495   -33765653.572 9   4382362.930 8
  20675122.449    20675128.335   -77305504.806 9  98507308.591 8
  21877076.408    21877081.656   -74110744.473 9  71597013.609 8
  23023889.112    23023893.695    -3249233.558 9  -4072194.612 8
 89 11 17 14 43 29.0800000  0  4G13G12G 3G 9
  20963444.331    20963449.500   -33730065.729 9   4410093.662 8
  20681036.222    20681040.219   -77274430.826 9  98531522.031 8
  21869335.579    21869340.462   -74151422.195 9  71565316.647 8
  23045797.905    23045803.820    -3134098.929 9  -3982479.521 9
 89 11 17 14 43 59.0800000  0  4G13G12G 3G 9
  20970251.121    20970255.802   -33694292.985 9   4437968.483 7
  20687067.093    20687072.138   -77242735.533 9  98556219.620 8
  21861641.685    21861646.219   -74191854.866 9  71533810.648 8
  23067756.116    23067761.621    -3018711.278 9  -3892567.268 9
 89 11 17 14 44 29.0800000  0  4G13G12G 3G 9
  20977093.237    20977099.076   -33658336.842 9   4465986.185 8
  20693217.134    20693220.956   -77210420.159 9  98581400.403 9
  21853994.171    21853998.425   -74232043.374 9  71502494.910 8
  23089761.742    23089767.428    -2903073.551 9  -3802460.161 9
 89 11 17 14 44 59.0800000  0  4G13G12G 3G 9
  20983971.372    20983975.399   -33622199.313 9   4494145.249 8
  20699484.770    20699488.755   -77177485.748 9  98607063.521 8
  21846393.481    21846397.391   -74271988.223 9  71471369.031 9
  23111814.216    23111819.313    -2787189.146 9  -3712160.829 9
 89 11 17 14 45 29.0800000  0  4G13G12G 3G 9
  20990882.303    20990886.890   -33585881.980 9   4522444.404 8
  20705868.824    20705874.816   -77143932.939 9  98633208.503 7
  21838838.265    21838842.406   -74311689.913 9  71440432.611 8
  23133911.357    23133918.531    -2671061.149 9  -3621671.681 9
 89 11 17 14 45 59.0800000  0  4G13G12G 3G 9
  20997826.098    20997831.856   -33549385.887 9   4550882.891 8
  20712371.469    20712377.539   -77109762.982 9  98659834.398 9
  21831329.368    21831333.136   -74351149.486 9  71409684.870 9
  23156056.511    23156062.545    -2554692.922 8  -3530995.338 9
 89 11 17 14 46 29.0800000  0  4G13G12G 3G 9
  21004805.572    21004809.754   -33512712.768 9   4579459.300 9
  20718991.799    20718996.230   -77074976.889 9  98686940.383 8
  21823866.011    21823870.384   -74390367.320 9  71379125.469 9
  23178245.728    23178251.877    -2438087.767 9  -3440134.412 9
 89 11 17 14 46 59.0800000  0  4G13G12G 3G 9
  21011817.536    21011822.366   -33475863.705 9   4608172.803 9
  20725728.089    20725732.984   -77039575.827 9  98714525.579 8
  21816449.039    21816453.791   -74429344.118 9  71348753.900 9
  23200479.123    23200485.820    -2321248.854 9  -3349091.324 9
 89 11 17 14 47 29.0800000  0  4G13G12G 3G 9
  21018863.145    21018869.005   -33438840.197 9   4637022.211 9
  20732581.171    20732585.819   -77003560.972 9  98742589.050 8
  21809078.096    21809082.074   -74468080.233 9  71318569.879 8
  23222757.067    23222763.067    -2204179.260 9  -3257868.469 9
 89 11 17 14 47 59.0800000  0  4G13G12G 3G 9
  21025941.246    21025946.540   -33401643.375 9   4666006.684 9
  20739550.778    20739556.306   -76966932.886 9  98771130.342 9
  21801752.674    21801757.416   -74506576.528 9  71288572.718 9
  23245078.578    23245084.808    -2086882.099 9  -3166468.303 9
 89 11 17 14 48 29.0800000  0  4G13G12G 3G 9
  21033052.393    21033057.808   -33364275.123 9   4695124.693 9
  20746637.762    20746642.516   -76929692.663 9  98800148.638 8
  21794472.232    21794476.854   -74544833.491 9  71258762.045 8
  23267442.003    23267448.210    -1969360.883 9  -3074893.550 9
 89 11 17 14 48 59.0800000  0  4G13G12G 3G 9
  21040195.248    21040200.556   -33326736.851 9   4724375.217 9
  20753840.538    20753846.402   -76891842.312 9  98829642.361 9
  21787238.065    21787242.298   -74582851.846 9  71229137.310 8
  23289848.140    23289854.149    -1851618.588 9  -2983146.532 9
 89 11 17 14 49 29.0800000  0  4G13G12G 3G 9
  21047370.967    21047377.446   -33289029.883 9   4753757.180 8
  20761159.722    20761164.683   -76853382.675 9  98859610.863 9
  21780048.123    21780052.593   -74620632.318 9  71199697.946 9
  23312295.093    23312301.233    -1733658.572 9  -2891229.862 9
 89 11 17 14 49 59.0800000  0  4G13G12G 3G 9
  21054578.417    21054583.167   -33251155.753 9   4783269.426 9
  20768593.843    20768598.489   -76814314.961 9  98890053.186 9
  21772904.972    21772908.460   -74658175.269 9  71170443.665 9
  23334782.266    23334790.223    -1615484.051 9  -2799146.054 9
 89 11 17 14 50 29.0800000  0  4G13G12G 3G 9
  21061816.433    21061822.404   -33213115.588 9   4812911.079 7
  20776143.724    20776149.446   -76774640.502 9  98920968.294 8
  21765804.922    21765810.237   -74695481.766 9  71141373.628 9
  23357311.613    23357318.220    -1497098.292 9  -2706897.656 8
 89 11 17 14 50 59.0800000  0  4G13G12G 3G 9
  21069087.504    21069092.496   -33174910.826 9   4842680.962 9
  20783808.455    20783814.104   -76734360.544 9  98952355.205 8
  21758751.535    21758755.719   -74732552.428 9  71112487.366 8
  23379879.022    23379885.705    -1378504.489 9  -2614487.128 9
 89 11 17 14 51 29.0800000  0  4G13G12G 3G 9
  21076388.506    21076393.749   -33136542.676 9   4872578.187 8
  20791588.397    20791593.591   -76693476.383 9  98984212.929 9
  21751741.594    21751746.007   -74769387.602 9  71083784.581 9
  23402485.400    23402492.779    -1259705.888 8  -2521917.035 9
 89 11 17 14 51 59.0800000  0  4G13G12G 3G 9
  21083721.020    21083726.151   -33098013.319 9   4902600.991 8
  20799483.729    20799488.844   -76651989.272 9  99016540.476 9
  21744776.729    21744781.505   -74805987.849 9  71055264.866 9
  23425131.911    23425137.242    -1140705.701 9  -2429189.857 9
 89 11 17 14 52 29.0800000  0  4G13G12G 3G 9
  21091082.860    21091088.193   -33059323.238 9   4932749.060 8
  20807493.337    20807497.835   -76609900.675 9  99049336.722 9
  21737855.943    21737860.836   -74842354.109 9  71026927.491 9
  23447814.527    23447821.474    -1021507.305 9  -2336308.233 9
 89 11 17 14 52 59.0800000  0  4G13G12G 3G 9
  21098476.199    21098481.238   -33020474.120 9   4963021.001 8
  20815616.247    20815620.994   -76567212.364 9  99082600.266 9
  21730980.745    21730984.846   -74878486.951 9  70998771.977 9
  23470534.550    23470540.792     -902113.573 9  -2243274.396 9
 89 11 17 14 53 29.0800000  0  4G13G12G 3G 9
  21105898.109    21105904.810   -32981467.648 9   4993415.584 8
  20823853.626    20823858.631   -76523925.540 9  99116330.178 9
  21724149.869    21724153.741   -74914387.129 9  70970797.766 9
  23493290.238    23493298.228     -782527.874 9  -2150091.010 8
 89 11 17 14 53 59.0800000  0  4G13G12G 3G 9
  21113351.116    21113356.375   -32942304.534 9   5023932.215 8
  20832203.988    20832209.841   -76480041.727 9  99150525.286 9
  21717362.665    21717366.731   -74950055.096 9  70943004.503 8
  23516083.409    23516090.668     -662753.561 8  -2056760.644 9
 89 11 17 14 54 29.0800000  0  4G13G12G 3G 9
  21120833.069    21120838.087   -32902986.697 9   5054569.404 9
  20840668.773    20840673.533   -76435562.061 9  99185184.687 9
  21710618.636    21710622.219   -74985491.665 9  70915391.542 9
  23538911.397    23538918.505     -542793.715 9  -1963285.700 9
 89 11 17 14 54 59.0800000  0  4G13G12G 3G 9
  21128344.588    21128348.994   -32863515.494 9   5085326.090 8
  20849245.858    20849251.404   -76390488.384 9  99220306.943 8
  21703918.423    21703923.497   -75020697.565 9  70887958.324 8
  23561773.423    23561780.650     -422651.824 8  -1869668.911 9
 89 11 17 14 55 29.0800000  0  4G13G12G 3G 9
  21135884.418    21135889.861   -32823892.167 9   5116201.359 8
  20857935.769    20857941.163   -76344822.290 9  99255890.820 9
  21697262.889    21697267.513   -75055673.691 9  70860704.142 8
  23584669.553    23584677.009     -302331.239 8  -1775912.879 9
 89 11 17 14 55 59.0800000  0  4G13G12G 3G 9
  21143453.320    21143458.819   -32784118.107 9   5147194.099 8
  20866738.921    20866743.211   -76298565.444 9  99291935.049 9
  21690651.699    21690657.136   -75090420.456 9  70833628.688 9
  23607599.680    23607607.066     -181834.895 9  -1682019.892 9
 89 11 17 14 56 29.0800000  0  4G13G12G 3G 9
  21151050.892    21151056.121   -32744194.625 9   5178303.336 7
  20875653.119    20875658.699   -76251719.179 9  99328438.554 8
  21684082.652    21684086.183   -75124938.295 9  70806731.631 8
  23630562.758    23630570.301      -61165.723 8  -1587992.266 9
 89 11 17 14 56 59.0800000  0  4G13G12G 3G 9
  21158675.721    21158681.865   -32704122.783 9   5209528.088 8
  20884679.449    20884684.638   -76204284.888 9  99365400.259 9
  21677557.850    21677562.439   -75159228.224 9  70780012.147 8
  23653557.306    23653565.727       59672.652 9  -1493832.783 9
 89 11 17 14 57 29.0800000  0  4G13G12G 3G 9
  21166328.812    21166333.759   -32663903.740 9   5240867.610 8
  20893817.283    20893823.903   -76156264.386 9  99402818.740 9
  21671076.158    21671080.645   -75193290.648 9  70753469.926 8
  23676584.726    23676591.563      180677.096 8  -1399543.902 9
 89 11 17 14 57 59.0800000  0  4G13G12G 3G 9
  21174010.381    21174015.289   -32623539.076 9   5272320.589 8
  20903067.148    20903071.940   -76107659.402 9  99440692.667 8
  21664636.673    21664642.058   -75227126.474 9  70727104.286 9
  23699642.121    23699649.786      301844.395 9  -1305128.109 8
 89 11 17 14 58 29.0800000  0  4G13G12G 3G 9
  21181718.976    21181725.278   -32583029.664 9   5303886.294 8
  20912427.204    20912432.508   -76058471.506 9  99479020.815 9
  21658241.351    21658245.741   -75260736.096 9  70700914.917 9
  23722730.042    23722736.978      423171.317 9  -1210587.942 9
 89 11 17 14 58 59.0800000  0  4G13G12G 3G 9
  21189454.783    21189460.439   -32542377.460 9   5335563.264 7
  20921898.318    20921903.434   -76008702.563 9  99517801.720 8
  21651888.791    21651893.170   -75294120.637 9  70674900.961 8
  23745847.811    23745855.533      544654.495 9  -1115926.009 9
 89 11 17 14 59 29.0800000  0  4G13G12G 3G 9
  21197218.632    21197222.374   -32501582.915 8   5367351.150 8
  20931478.705    20931484.633   -75958354.145 9  99557034.155 9
  21645578.326    21645583.096   -75327280.249 9  70649062.256 9
  23768994.982    23769002.184      666290.971 9  -1021144.618 8
 89 11 17 14 59 59.0800000  0  4G13G12G 3G 9
  21205008.294    21205014.535   -32460647.950 9   5399248.464 8
  20941169.696    20941175.973   -75907428.046 9  99596716.759 9
  21639311.601    21639316.014   -75360215.869 9  70623398.099 9
  23792169.596    23792178.257      788077.522 9   -926246.297 9
 89 11 17 15  0 29.0800000  0  4G13G12G 3G 9
  21212824.151    21212828.956   -32419573.381 9   5431254.557 8
  20950970.215    20950976.529   -75855926.045 9  99636848.106 8
  21633086.622    21633090.342   -75392928.282 8  70597907.872 9
  23815372.582    23815381.010      910010.885 9   -831233.588 8
 89 11 17 15  0 59.0800000  0  4G13G12G 3G 9
  21220667.005    21220672.503   -32378360.973 9   5463368.041 8
  20960879.682    20960886.137   -75803850.550 9  99677426.340 8
  21626903.912    21626908.691   -75425418.529 9  70572590.754 9
  23838604.145    23838611.307     1032087.369 9   -736109.366 8
 89 11 17 15  1 29.0800000  0  4G13G12G 3G 9
  21228535.253    21228540.556   -32337011.131 9   5495588.662 8
  20970899.191    20970904.899   -75751202.547 9  99718450.674 9
  21620763.646    21620768.199   -75457686.896 9  70547446.528 7
  23861860.799    23861869.186     1154304.402 8   -640875.641 8
 89 11 17 15  1 59.0800000  0  4G13G12G 3G 9
  21236429.635    21236434.348   -32295525.456 9   5527915.128 8
  20981025.930    20981031.250   -75697984.028 9  99759919.561 9
  21614664.476    21614669.541   -75489733.800 9  70522474.871 8
  23885144.546    23885152.435     1276658.288 9   -545535.270 9
 89 11 17 15  2 29.0800000  0  4G13G12G 3G 9
  21244350.004    21244355.921   -32253905.568 9   5560346.187 8
  20991261.527    20991267.164   -75644196.925 9  99801831.503 8
  21608608.912    21608612.941   -75521560.298 9  70497674.953 8
  23908453.504    23908461.729     1399146.222 8   -450090.462 9
 89 11 17 15  2 59.0800000  0  4G13G12G 3G 9
  21252295.215    21252300.699   -32212152.385 9   5592881.104 8
  21001605.082    21001610.818   -75589843.287 9  99844184.902 8
  21602594.157    21602599.171   -75553166.787 9  70473046.489 9
  23931787.230    23931796.273     1521765.009 8   -354543.689 9
 89 11 17 15  3 29.0800000  0  4G13G12G 3G 9
  21260265.685    21260270.368   -32170267.332 9   5625518.789 8
  21012055.199    21012060.312   -75534925.418 9  99886977.955 8
  21596620.983    21596625.255   -75584554.425 9  70448588.542 9
  23955144.430    23955153.711     1644511.144 8   -258897.702 9
 89 11 17 15  3 59.0800000  0  4G13G12G 3G 9
  21268260.741    21268267.146   -32128251.433 9   5658258.406 8
  21022613.133    21022618.524   -75479444.849 9  99930209.477 9
  21590689.837    21590694.324   -75615723.554 9  70424300.870 9
  23978527.204    23978536.034     1767381.416 7   -163155.007 9
 89 11 17 15  4 29.0800000  0  4G13G12G 3G 9
  21276281.530    21276286.781   -32086105.474 9   5691099.379 7
  21033276.608    21033282.532   -75423403.845 9  99973877.693 9
  21584800.669    21584804.884   -75646674.873 9  70400182.907 9
  24001931.489    24001940.664     1890372.775 9    -67317.960 9
 89 11 17 15  4 59.0800000  0  4G13G12G 3G 9
  21284325.960    21284331.217   -32043831.132 9   5724040.362 8
  21044048.178    21044053.296   -75366804.179 9 100017981.244 8
  21578952.090    21578956.460   -75677409.251 9  70376233.986 9
  24025359.034    24025368.022     2013482.060 8     28610.962 9
 89 11 17 15  5 29.0800000  0  4G13G12G 3G 9
  21292394.308    21292401.152   -32001429.158 9   5757080.771 7
  21054924.574    21054930.425   -75309647.927 9 100062518.490 9
  21573145.057    21573149.412   -75707927.097 9  70352453.792 8
  24048807.986    24048816.295     2136705.942 8    124629.181 9
 89 11 17 15  5 59.0800000  0  4G13G12G 3G 9
  21300487.242    21300493.028   -31958900.408 9   5790219.990 8
  21065906.314    21065911.890   -75251937.140 9 100107487.848 8
  21567378.155    21567383.523   -75738229.162 9  70328841.741 8
  24072277.893    24072287.363     2260041.322 9    220734.290 8
 89 11 17 15  6 29.0800000  0  4G13G12G 3G 9
  21308604.703    21308609.730   -31916246.573 9   5823456.682 8
  21076994.283    21076999.322   -75193673.822 9 100152887.757 8
  21561652.893    21561657.557   -75768316.161 9  70305397.297 8
  24095768.257    24095778.282     2383485.194 8    316923.910 9
 89 11 17 15  6 59.0800000  0  4G13G12G 3G 9
  21316745.023    21316750.568   -31873468.855 9   5856789.906 8
  21088185.998    21088191.829   -75134860.072 9 100198716.573 8
  21555968.506    21555972.721   -75798188.823 9  70282119.864 8
  24119280.644    24119289.191     2507034.154 9    413195.413 9
 89 11 17 15  7 29.0800000  0  4G13G12G 3G 9
  21324908.734    21324914.077   -31830567.933 9   5890219.164 8
  21099482.024    21099486.876   -75075497.981 9 100244972.668 9
  21550324.017    21550329.187   -75827847.907 9  70259008.856 8
  24142809.974    24142820.706     2630684.999 9    509546.314 9
 89 11 17 15  7 59.0800000  0  4G13G12G 3G 9
  21333095.066    21333101.282   -31787545.472 8   5923743.095 8
  21110882.911    21110887.371   -75015589.841 9 100291654.219 8
  21544721.010    21544725.468   -75857294.088 9  70236063.739 9
  24166359.499    24166368.442     2754434.565 9    605974.138 9
 89 11 17 15  8 29.0800000  0  4G13G12G 3G 9
  21341305.369    21341311.491   -31744402.147 9   5957361.180 8
  21122386.332    21122391.879   -74955137.568 9 100338759.799 8
  21539157.862    21539162.672   -75886527.912 9  70213284.095 9
  24189927.311    24189935.673     2878279.875 9    702476.552 9
 89 11 17 15  8 59.0800000  0  4G13G12G 3G 9
  21349538.649    21349544.113   -31701138.783 9   5991072.832 8
  21133992.528    21133998.020   -74894143.421 9 100386287.605 9
  21533635.066    21533640.910   -75915550.106 9  70190669.362 8
  24213512.170    24213521.829     3002217.799 9    799051.123 9
 89 11 17 15  9 29.0800000  0  4G13G12G 3G 9
  21357793.048    21357799.409   -31657757.207 9   6024876.600 8
  21145701.715    21145708.481   -74832609.968 9 100434235.658 8
  21528152.668    21528157.404   -75944361.661 9  70168218.748 9
  24237114.123    24237124.108     3126244.778 9    895695.058 8
 89 11 17 15  9 59.0800000  0  4G13G12G 3G 9
  21366071.629    21366077.212   -31614257.839 9   6058772.180 9
  21157514.100    21157520.096   -74770539.102 9 100482602.467 9
  21522710.050    21522714.308   -75972962.919 9  70145931.990 9
  24260731.902    24260741.830     3250357.601 8    992405.868 9
 89 11 17 15 10 29.0800000  0  4G13G12G 3G 9
  21374371.071    21374376.801   -31570642.380 9   6092758.180 8
  21169428.029    21169432.409   -74707933.293 9 100531386.114 9
  21517307.417    21517311.392   -76001354.767 9  70123808.445 9
  24284365.767    24284375.360     3374553.264 9   1089181.226 8
 89 11 17 15 10 59.0800000  0  4G13G12G 3G 9
  21382692.177    21382698.986   -31526911.774 9   6126833.886 8
  21181442.869    21181449.100   -74644794.617 9 100580584.990 9
  21511944.501    21511949.405   -76029537.877 9  70101847.547 9
  24308014.702    24308025.369     3498828.948 7   1186018.947 8
 89 11 17 15 11 29.0800000  0  4G13G12G 3G 9
  21391036.012    21391042.692   -31483066.560 9   6160998.920 7
  21193558.608    21193564.222   -74581125.225 9 100630197.416 9
  21506620.688    21506626.707   -76057512.785 9  70080048.857 8
  24331678.940    24331688.547     3623181.213 7   1282916.334 9
 89 11 17 15 11 59.0800000  0  4G13G12G 3G 9
  21399401.824    21399406.967   -31439107.777 9   6195252.463 8
  21205775.926    21205780.570   -74516927.735 9 100680221.322 9
  21501337.243    21501342.053   -76085280.150 9  70058411.909 9
  24355357.115    24355366.673     3747606.936 7   1379870.957 9
 89 11 17 15 12 29.0800000  0  4G13G12G 3G 9
  21407788.838    21407793.985   -31395036.559 9   6229593.587 9
  21218091.879    21218097.642   -74452204.004 9 100730655.309 8
  21496092.200    21496097.706   -76112840.812 9  70036936.014 9
  24379048.491    24379058.116     3872103.149 8   1476880.486 9
 89 11 17 15 12 59.0800000  0  4G13G12G 3G 9
  21416195.624    21416201.445   -31350854.098 9   6264021.416 8
  21230507.515    21230513.404   -74386956.721 9 100781497.242 9
  21490886.943    21490892.113   -76140195.489 9  70015620.637 9
  24402750.961    24402761.517     3996666.643 7   1573942.438 8
 89 11 17 15 13 29.0800000  0  4G13G12G 3G 9
  21424624.114    21424629.657   -31306561.317 9   6298535.221 9
  21243023.487    21243028.379   -74321188.169 9 100832745.370 8
  21485721.015    21485725.860   -76167344.674 9  69994465.402 9
  24426467.839    24426479.133     4121293.887 8   1671054.064 9
 89 11 17 15 13 59.0800000  0  4G13G12G 3G 9
  21433074.372    21433079.975   -31262159.479 9   6333134.005 8
  21255637.127    21255643.486   -74254900.840 9 100884397.734 8
  21480592.973    21480597.766   -76194289.131 9  69973469.661 9
  24450194.929    24450206.201     4245981.838 9   1768212.995 9
 89 11 17 15 14 29.0800000  0  4G13G12G 3G 9
  21441543.581    21441550.571   -31217649.441 9   6367817.080 8
  21268349.080    21268356.062   -74188097.247 9 100936452.380 8
  21475505.423    21475510.442   -76221029.457 9  69952632.999 9
  24473934.556    24473944.750     4370727.758 9   1865417.073 9
 89 11 17 15 14 59.0800000  0  4G13G12G 3G 9
  21450033.944    21450038.903   -31173032.131 9   6402583.777 8
  21281159.848    21281166.910   -74120779.141 9 100988907.943 8
  21470455.165    21470459.939   -76247566.537 9  69931954.716 9
  24497684.745    24497695.483     4495528.359 9   1962663.774 9
 89 11 17 15 15 29.0800000  0  4G13G12G 3G 9
  21458544.761    21458551.163   -31128308.427 9   6437433.358 8
  21294067.802    21294072.914   -74052949.486 9 101041762.113 8
  21465443.777    21465449.203   -76273900.902 9  69911434.392 9
  24521442.707    24521454.546     4620380.297 9   2059950.460 9
 89 11 17 15 15 59.0800000  0  4G13G12G 3G 9
  21467076.390    21467082.030   -31083479.335 9   6472365.038 8
  21307072.692    21307077.171   -73984611.151 9 101095012.661 9
  21460471.427    21460475.443   -76300033.249 9  69891071.492 9
  24545211.315    24545221.342     4745280.667 9   2157274.893 9
 89 11 17 15 16 29.0800000  0  4G13G12G 3G 9
  21475626.705    21475632.590   -31038545.815 9   6507378.133 8
  21320172.994    21320179.290   -73915766.433 9 101148657.814 9
  21455536.865    21455541.576   -76325964.291 9  69870865.454 9
  24568987.242    24568999.332     4870226.370 9   2254634.634 8
 89 11 17 15 16 59.0800000  0  4G13G12G 3G 9
  21484196.928    21484201.404   -30993509.113 9   6542471.597 8
  21333369.681    21333374.788   -73846417.877 9 101202695.549 8
  21450640.163    21450644.959   -76351694.861 9  69850815.635 8
  24592771.587    24592784.309     4995214.068 9   2352027.107 9
 89 11 17 15 17 29.0800000  0  4G13G12G 3G 9
  21492786.374    21492791.858   -30948369.858 9   6577644.992 8
  21346661.755    21346667.671   -73776568.046 9 101257123.892 9
  21445782.044    21445787.355   -76377225.692 9  69830921.452 8
  24616564.598    24616576.233     5120240.682 9   2449449.870 9
 89 11 17 15 17 59.0800000  0  4G13G12G 3G 9
  21501394.945    21501401.797   -30903128.820 9   6612897.713 9
  21360048.525    21360054.597   -73706219.210 9 101311941.061 8
  21440961.411    21440967.298   -76402557.110 9  69811182.657 9
  24640363.762    24640374.970     5245303.192 8   2546900.616 9
 89 11 17 15 18 29.0800000  0  4G13G12G 3G 9
  21510024.108    21510029.304   -30857786.753 9   6648229.170 9
  21373530.250    21373536.178   -73635373.806 9 101367145.176 9
  21436179.068    21436184.136   -76427689.843 9  69791598.689 9
  24664168.696    24664180.353     5370398.621 9   2644376.993 9
 89 11 17 15 18 59.0800000  0  4G13G12G 3G 9
  21518670.689    21518677.346   -30812344.903 9   6683638.355 8
  21387105.878    21387111.953   -73564034.448 9 101422734.165 8
  21431434.031    21431439.253   -76452624.717 9  69772168.881 8
  24687979.631    24687992.098     5495523.853 8   2741876.588 8
 89 11 17 15 19 29.0800000  0  4G13G12G 3G 9
  21527337.247    21527344.514   -30766804.420 9   6719124.409 8
  21400774.541    21400780.564   -73492204.003 9 101478705.830 9
  21426726.195    21426731.438   -76477362.422 9  69752892.726 9
  24711795.803    24711808.606     5620675.509 8   2839396.769 9
 89 11 17 15 19 59.0800000  0  4G13G12G 3G 9
  21536022.267    21536028.268   -30721166.064 9   6754686.684 9
  21414536.383    21414542.048   -73419885.336 9 101535057.917 8
  21422056.579    21422061.490   -76501903.891 9  69733769.487 8
  24735615.429    24735628.145     5745850.476 9   2936935.092 8
 89 11 17 15 20 29.0800000  0  4G13G12G 3G 9
  21544723.807    21544731.033   -30675432.479 9   6790323.236 8
  21428390.086    21428396.331   -73347082.775 9 101591787.073 9
  21417422.857    21417428.815   -76526251.315 9  69714797.427 8
  24759439.984    24759452.276     5871043.926 8   3034487.827 8
 89 11 17 15 20 59.0800000  0  4G13G12G 3G 9
  21553446.253    21553451.447   -30629603.041 9   6826034.485 8
  21442336.750    21442342.932   -73273796.954 9 101648892.782 8
  21412827.128    21412832.118   -76550403.595 9  69695977.442 9
  24783267.461    24783281.704     5996254.763 8   3132054.087 8
 89 11 17 15 21 29.0800000  0  4G13G12G 3G 9
  21562184.703    21562191.252   -30583678.170 9   6861820.043 8
  21456373.816    21456379.969   -73200030.567 9 101706372.974 9
  21408267.856    21408273.267   -76574361.339 9  69677309.040 9
  24807097.561    24807110.935     6121479.840 8   3229631.469 8
 89 11 17 15 21 59.0800000  0  4G13G12G 3G 9
  21570941.955    21570949.009   -30537658.516 9   6897679.447 7
  21470501.604    21470508.630   -73125786.395 9 101764225.455 9
  21403746.291    21403751.093   -76598125.227 9  69658791.720 9
  24830928.890    24830942.231     6246716.184 7   3327217.646 8
 89 11 17 15 22 29.0800000  0  4G13G12G 3G 9
  21579717.351    21579724.387   -30491545.387 9   6933611.664 8
  21484720.796    21484726.748   -73051066.820 9 101822448.383 9
  21399261.255    21399265.877   -76621695.830 9  69640425.000 8
  24854763.435    24854776.862     6371960.757 9   3424810.242 8
 89 11 17 15 22 59.0800000  0  4G13G12G 3G 9
  21588509.888    21588516.776   -30445339.312 9   6969616.338 8
  21499029.453    21499036.131   -72975874.606 9 101881039.605 9
  21394812.631    21394816.703   -76645073.660 8  69622208.492 8
  24878597.932    24878611.559     6497210.397 9   3522406.753 8
 89 11 17 15 23 29.0800000  0  4G13G12G 3G 9
  21597320.687    21597327.134   -30399040.824 9   7005693.080 7
  21513427.968    21513433.063   -72900212.840 9 101939996.697 9
  21390399.914    21390405.534   -76668259.292 9  69604141.748 9
  24902433.593    24902446.305     6622462.333 9   3620005.027 9
 89 11 17 15 23 59.0800000  0  4G13G12G 3G 9
  21606148.571    21606154.217   -30352651.165 9   7041840.865 8
  21527915.032    21527920.688   -72824084.051 9 101999317.706 9
  21386023.782    21386029.915   -76691253.597 9  69586224.075 9
  24926268.625    24926282.253     6747713.218 9   3717602.491 8
 89 11 17 15 24 29.0800000  0  4G13G12G 3G 9
  21614993.134    21614999.649   -30306170.627 9   7078059.456 9
  21542489.810    21542497.182   -72747490.957 9 102059000.507 8
  21381685.058    21381690.125   -76714057.056 9  69568455.123 8
  24950102.931    24950117.178     6872960.280 8   3815196.969 8
 89 11 17 15 24 59.0800000  0  4G13G12G 3G 9
  21623854.711    21623861.581   -30259600.299 9   7114347.962 8
  21557153.075    21557159.315   -72670436.307 9 102119042.971 8
  21377381.557    21377386.917   -76736670.406 9  69550834.315 9
  24973935.224    24973949.023     6998200.370 9   3912785.988 9
 89 11 17 15 25 29.0800000  0  4G13G12G 3G 9
  21632734.213    21632739.993   -30212941.448 9   7150705.445 8
  21571903.166    21571910.092   -72592922.704 9 102179443.078 8
  21373114.679    21373120.849   -76759094.320 9  69533361.099 9
  24997766.763    24997780.197     7123430.737 9   4010367.412 9
 89 11 17 15 25 59.0800000  0  4G13G12G 3G 9
  21641628.921    21641635.638   -30166194.262 9   7187131.781 9
  21586739.861    21586746.860   -72514952.970 9 102240198.570 8
  21368883.709    21368888.911   -76781329.438 9  69516035.002 8
  25021595.317    25021608.638     7248647.986 9   4107938.637 9
 89 11 17 15 26 29.0800000  0  4G13G12G 3G 9
  21650541.624    21650548.699   -30119359.677 9   7223626.221 8
  21601663.837    21601670.463   -72436529.992 9 102301307.261 9
  21364688.451    21364693.845   -76803375.957 9  69498855.878 8
  25045420.400    25045435.583     7373849.371 8   4205497.473 9
 89 11 17 15 26 59.0800000  0  4G13G12G 3G 9
  21659470.648    21659477.463   -30072438.264 9   7260188.292 9
  21616673.356    21616680.192   -72357656.636 9 102362766.889 9
  21360528.577    21360534.232   -76825234.945 9  69481822.893 8
  25069243.859    25069256.470     7499031.921 7   4303041.610 9
 89 11 17 15 27 29.0800000  0  4G13G12G 3G 9
  21668415.811    21668422.490   -30025430.729 9   7296817.450 8
  21631767.874    21631774.294   -72278336.042 9 102424575.018 8
  21356404.734    21356410.271   -76846907.067 9  69464935.501 9
  25093060.365    25093075.437     7624192.245 8   4400568.426 8
 89 11 17 15 27 59.0800000  0  4G13G12G 3G 9
  21677377.627    21677384.141   -29978338.043 9   7333512.966 9
  21646946.264    21646953.138   -72198570.902 9 102486729.538 8
  21352315.691    21352320.997   -76868392.866 9  69448193.292 9
  25116872.196    25116887.994     7749327.700 6   4498075.836 8
 89 11 17 15 28 29.0800000  0  4G13G12G 3G 9
  21686354.873    21686361.585   -29931160.849 9   7370274.356 9
  21662209.887    21662215.640   -72118363.941 9 102549228.351 9
  21348262.867    21348267.317   -76889692.629 9  69431596.061 9
  25140680.059    25140696.000     7874435.087 6   4595561.352 9
 89 11 17 15 28 59.0800000  0  4G13G12G 3G 9
  21695348.564    21695355.211   -29883899.654 9   7407101.211 9
  21677555.673    21677562.640   -72037718.659 9 102612068.704 9
  21344244.509    21344249.393   -76910807.390 9  69415142.961 8
  25164481.523    25164498.186     7999511.480 6   4693022.707 9
 89 11 17 15 29 29.0800000  0  4G13G12G 3G 9
  21704358.007    21704363.992   -29836555.582 9   7443992.640 8
  21692984.936    21692992.849   -71956637.542 8 102675248.662 9
  21340262.289    21340266.899   -76931737.583 9  69398833.712 8
  25188277.106    25188292.952     8124554.091 7   4790457.739 8
 89 11 17 15 29 59.0800000  0  4G13G12G 3G 9
  21713383.150    21713388.890   -29789129.216 9   7480948.182 8
  21708496.762    21708503.593   -71875123.634 9 102738765.853 9
  21336313.874    21336318.810   -76952483.975 9  69382667.675 8
  25212065.555    25212082.671     8249559.778 7   4887864.021 8
 89 11 17 15 30 29.0800000  0  4G13G12G 3G 9
  21722424.131    21722430.913   -29741620.844 9   7517967.634 8
  21724090.439    21724097.894   -71793179.709 9 102802618.131 9
  21332401.199    21332406.505   -76973046.864 9  69366644.621 9
  25235847.318    25235864.477     8374525.483 9   4985239.143 8
 89 11 17 15 30 59.0800000  0  4G13G12G 3G 9
  21731479.950    21731486.878   -29694031.624 9   7555050.080 9
  21739764.967    21739772.265   -71710809.038 9 102866802.932 9
  21328523.775    21328527.942   -76993427.295 9  69350763.750 9
  25259620.257    25259635.826     8499448.281 9   5082580.854 8
 89 11 17 15 31 29.0800000  0  3G13G12G 3
  21740551.238    21740557.401   -29646361.743 9   7592195.380 8
  21755520.324    21755527.313   -71628014.305 9 102931318.185 8
  21324681.025    21324683.058   -77013625.483 1  69335024.879 1
 89 11 17 15 31 59.0800000  0  3G13G12G 3
  21749637.148    21749643.971   -29598612.520 9   7629402.514 8
  21771355.643    21771362.471   -71544798.458 9 102996161.583 8
  21320871.071    21320874.873   -77033642.155 9  69319427.470 8
 89 11 17 15 32 29.0800000  0  3G13G12G 3
  21758739.163    21758744.583   -29550784.233 9   7666671.290 7
  21787270.579    21787277.726   -71461164.482 9 103061330.789 8
  21317095.727    21317100.574   -77053477.894 9  69303971.031 8
 89 11 17 15 32 59.0800000  0  3G13G12G 3
  21767855.581    21767862.136   -29502877.774 9   7704000.974 9
  21803264.963    21803272.084   -71377115.696 9 103126823.208 9
  21313355.701    21313360.858   -77073133.404 9  69288655.031 8
 89 11 17 15 33 29.0800000  0  3G13G12G 3
  21776986.049    21776993.643   -29454893.516 9   7741391.214 8
  21819337.712    21819343.831   -71292654.972 9 103192636.629 9
  21309648.878    21309654.336   -77092609.107 9  69273479.150 8
 89 11 17 15 33 59.0800000  0  3G13G12G 3
  21786132.402    21786138.905   -29406831.874 9   7778841.751 9
  21835487.572    21835493.958   -71207785.058 9 103258768.900 9
  21305977.450    21305983.108   -77111905.350 9  69258443.099 9
 89 11 17 15 34 29.0800000  0  3G13G12G 3
  21795293.145    21795299.983   -29358692.900 9   7816352.553 8
  21851716.289    21851723.942   -71122509.119 9 103325217.542 9
  21302340.249    21302344.616   -77131022.816 9  69243546.348 8
 89 11 17 15 34 59.0800000  0  3G13G12G 3
  21804467.883    21804475.476   -29310477.909 8   7853922.604 8
  21868019.662    21868027.012   -71036829.995 9 103391980.355 9
  21298735.652    21298740.637   -77149962.030 9  69228788.479 9
 89 11 17 15 35 29.0800000  0  3G13G12G 3
  21813657.546    21813664.724   -29262186.986 9   7891551.820 8
  21884399.555    21884407.077   -70950751.053 9 103459054.733 9
  21295165.410    21295171.238   -77168723.823 9  69214168.876 8
 89 11 17 15 35 59.0800000  0  3G13G12G 3
  21822861.148    21822868.655   -29213821.707 9   7929238.962 8
  21900855.887    21900863.518   -70864274.938 9 103526438.578 9
  21291628.863    21291633.805   -77187308.705 9  69199687.109 9
 89 11 17 15 36 29.0800000  0  3G13G12G 3
  21832078.739    21832084.808   -29165381.994 9   7966984.086 9
  21917386.797    21917393.274   -70777405.106 9 103594129.207 9
  21288126.030    21288130.956   -77205717.155 9  69185342.813 8
 89 11 17 15 36 59.0800000  0  3G13G12G 3
  21841311.053    21841317.178   -29116868.437 9   8004786.732 8
  21933991.991    21933998.588   -70690144.735 9 103662124.164 9
  21284656.390    21284660.870   -77223949.618 9  69171135.658 8
 89 11 17 15 37 29.0800000  0  3G13G12G 3
  21850556.683    21850562.446   -29068281.312 9   8042646.765 8
  21950671.106    21950678.865   -70602496.621 9 103730421.244 9
  21281220.376    21281224.730   -77242006.249 9  69157065.522 9
 89 11 17 15 37 59.0800000  0  3G13G12G 3
  21859816.791    21859823.085   -29019621.447 9   8080563.469 8
  21967422.714    21967430.385   -70514463.719 9 103799018.181 9
  21277817.452    21277821.788   -77259888.312 9  69143131.421 8
 89 11 17 15 38 29.0800000  0  3G13G12G 3
  21869089.965    21869096.875   -28970889.593 9   8118536.255 8
  21984247.566    21984255.803   -70426049.370 9 103867912.314 9
  21274448.275    21274452.611   -77277596.010 9  69129333.179 8
 89 11 17 15 38 59.0800000  0  3G13G12G 3
  21878376.959    21878383.149   -28922086.026 9   8156564.961 9
  22001144.216    22001152.652   -70337257.018 9 103937101.016 9
  21271111.235    21271116.562   -77295130.065 9  69115670.256 8
 89 11 17 15 39 29.0800000  0  3G13G12G 3
  21887677.730    21887683.255   -28873211.302 9   8194649.217 8
  22018112.743    22018119.955   -70248089.602 9 104006581.958 9
  21267807.297    21267812.909   -77312490.683 9  69102142.471 9
 89 11 17 15 39 59.0800000  0  3G13G12G 3
  21896991.535    21896998.798   -28824266.336 9   8232788.112 8
  22035151.304    22035159.313   -70158550.397 9 104076352.621 9
  21264536.935    21264541.230   -77329678.662 9  69088749.221 8
 89 11 17 15 40 29.0800000  0  3G13G12G 3
  21906318.848    21906325.722   -28775250.600 9   8270982.184 8
  22052260.889    22052267.704   -70068642.671 9 104146410.436 9
  21261299.023    21261304.528   -77346694.266 9  69075490.277 8
 89 11 17 15 40 59.0800000  0  3G13G12G 3
  21915659.866    21915666.160   -28726165.287 9   8309230.446 8
  22069439.195    22069447.658   -69978369.579 9 104216752.955 9
  21258093.412    21258098.365   -77363538.140 9  69062365.129 9
 89 11 17 15 41 29.0800000  0  3G13G12G 3
  21925012.950    21925020.500   -28677010.781 9   8347532.638 8
  22086686.960    22086694.779   -69887734.336 9 104287377.661 9
  21254921.776    21254925.666   -77380210.748 9  69049373.439 8
 89 11 17 15 41 59.0800000  0  3G13G12G 3
  21934380.220    21934387.086   -28627786.938 9   8385888.807 8
  22104002.013    22104010.413   -69796739.980 9 104358282.222 9
  21251780.530    21251786.584   -77396712.568 9  69036514.866 8
 89 11 17 15 42 29.0800000  0  3G13G12G 3
  21943760.473    21943767.296   -28578494.512 9   8424298.405 7
  22121386.552    22121393.507   -69705389.484 9 104429464.243 9
  21248672.690    21248679.748   -77413044.098 9  69023788.978 8
 89 11 17 15 42 59.0800000  0  3G13G12G 3
  21953153.766    21953160.136   -28529134.240 9   8462760.852 8
  22138836.800    22138845.038   -69613686.268 9 104500921.141 8
  21245596.949    21245602.536   -77429205.885 9  69011195.360 8
 89 11 17 15 43 29.0800000  0  3G13G12G 3
  21962558.896    21962566.857   -28479706.791 9   8501275.634 7
  22156353.994    22156361.510   -69521633.345 9 104572650.525 9
  21242554.447    21242560.013   -77445198.256 9  68998733.740 8
 89 11 17 15 43 59.0800000  0  3G13G12G 3
  21971977.971    21971984.757   -28430211.730 9   8539843.135 8
  22173936.892    22173944.834   -69429234.097 9 104644649.773 9
  21239543.014    21239548.521   -77461021.813 9  68986403.657 8
 89 11 17 15 44 29.0800000  0  3G13G12G 3
  21981409.146    21981415.727   -28380650.116 9   8578462.502 9
  22191585.589    22191593.363   -69336491.987 9 104716916.170 9
  21236564.460    21236569.621   -77476676.881 9  68974204.879 9
 89 11 17 15 44 59.0800000  0  3G13G12G 3
  21990852.430    21990859.726   -28331022.041 9   8617133.740 8
  22209298.696    22209305.756   -69243410.001 9 104789447.404 9
  21233617.539    21233622.532   -77492163.986 9  68962136.979 8
 89 11 17 15 45 29.0800000  0  3G13G12G 3
  22000310.359    22000316.977   -28281327.547 9   8655856.625 8
  22227075.088    22227082.798   -69149991.178 9 104862241.087 8
  21230701.982    21230707.660   -77507483.496 9  68950199.684 8
 89 11 17 15 45 59.0800000  0  3G13G12G 3
  22009779.295    22009786.552   -28231567.621 9   8694630.433 8
  22244916.310    22244924.124   -69056238.820 9 104935294.674 9
  21227818.726    21227823.773   -77522635.827 9  68938392.666 9
 89 11 17 15 46 29.0800000  0  3G13G12G 3
  22019260.232    22019266.966   -28181742.333 9   8733455.188 8
  22262819.456    22262828.392   -68962156.079 9 105008605.717 9
  21224966.140    21224971.559   -77537621.485 9  68926715.514 7
 89 11 17 15 46 59.0800000  0  3G13G12G 3
  22028755.279    22028761.993   -28131852.794 9   8772329.965 8
  22280785.798    22280793.279   -68867746.480 9 105082171.428 9
  21222146.389    21222151.238   -77552440.900 9  68915167.909 9
 89 11 17 15 47 29.0800000  0  3G13G12G 3
  22038259.892    22038267.255   -28081898.237 9   8811255.522 9
  22298813.108    22298821.213   -68773013.068 9 105155989.483 9
  21219358.738    21219363.030   -77567094.610 9  68903749.371 9
 89 11 17 15 47 59.0800000  0  3G13G12G 3
  22047778.252    22047785.463   -28031878.648 9   8850231.888 8
  22316901.158    22316909.235   -68677959.204 9 105230057.230 9
  21216601.376    21216606.287   -77581582.839 9  68892459.792 8
 89 11 17 15 48 29.0800000  0  3G13G12G 3
  22057309.181    22057316.205   -27981795.581 9   8889257.613 8
  22335049.998    22335057.555   -68582588.323 9 105304371.983 8
  21213875.702    21213881.579   -77595906.493 9  68881298.478 8
 89 11 17 15 48 59.0800000  0  3G13G12G 3
  22066852.062    22066858.911   -27931649.255 9   8928332.644 8
  22353258.288    22353267.187   -68486903.675 9 105378931.254 9
  21211182.138    21211185.915   -77610065.624 9  68870265.362 8
 89 11 17 15 49 29.0800000  0  3G13G12G 3
  22076405.752    22076414.151   -27881439.487 9   8967457.138 8
  22371525.638    22371533.924   -68390908.415 9 105453732.547 9
  21208517.533    21208524.038   -77624060.644 9  68859360.101 8
 89 11 17 15 49 59.0800000  0  3G13G12G 3
  22085972.964    22085980.142   -27831166.860 9   9006630.494 8
  22389851.828    22389859.804   -68294605.825 9 105528773.308 9
  21205885.923    21205892.230   -77637891.761 9  68848582.597 8
 89 11 17 15 50 29.0800000  0  3G13G12G 3
  22095551.179    22095558.086   -27780831.712 9   9045852.634 9
  22408234.647    22408243.694   -68197999.528 9 105604050.738 9
  21203285.398    21203291.509   -77651559.805 9  68837932.133 9
 89 11 17 15 50 59.0800000  0  3G13G12G 3
  22105142.183    22105149.472   -27730434.394 9   9085123.192 8
  22426675.796    22426685.690   -68101093.135 9 105679561.996 8
  21200714.868    21200720.941   -77665065.023 9  68827408.567 9
 89 11 17 15 51 29.0800000  0  3G13G12G 3
  22114744.400    22114751.093   -27679975.133 9   9124442.027 9
  22445173.257    22445181.763   -68003889.770 9 105755304.667 9
  21198176.863    21198181.407   -77678407.911 9  68817011.504 8
 89 11 17 15 51 59.0800000  0  3G13G12G 3
  22124357.564    22124364.884   -27629453.900 9   9163809.189 9
  22463726.659    22463735.268   -67906392.479 8 105831276.371 9
  21195667.662    21195673.897   -77691588.615 9  68806740.816 9
 89 11 17 15 52 29.0800000  0  3G13G12G 3
  22133983.147    22133990.153   -27578871.241 8   9203224.171 8
  22482334.951    22482344.161   -67808604.467 9 105907474.603 9
  21193190.330    21193195.785   -77704607.594 9  68796596.144 8
 89 11 17 15 52 59.0800000  0  3G13G12G 3
  22143620.742    22143627.711   -27528227.079 9   9242687.111 8
  22500998.648    22501007.560   -67710529.057 9 105983896.786 9
  21190744.129    21190749.829   -77717465.373 9  68786577.096 8
 89 11 17 15 53 29.0800000  0  3G13G12G 3
  22153270.042    22153276.520   -27477522.069 9   9282197.438 9
  22519715.916    22519725.025   -67612170.051 9 106060539.944 8
  21188327.036    21188333.191   -77730162.171 8  68776683.460 9
 89 11 17 15 53 59.0800000  0  3G13G12G 3
  22162930.120    22162937.402   -27426756.369 9   9321755.046 8
  22538486.333    22538495.212   -67513530.784 8 106137401.510 9
  21185942.123    21185948.376   -77742698.573 9  68766914.826 9
 89 11 17 15 54 29.0800000  0  3G13G12G 3
  22172602.322    22172609.185   -27375930.615 9   9361359.439 8
  22557309.661    22557318.331   -67414614.215 9 106214479.150 9
  21183587.259    21183592.270   -77755074.357 8  68757271.359 9
 89 11 17 15 54 59.0800000  0  3G13G12G 3
  22182284.629    22182292.865   -27325044.671 9   9401010.763 9
  22576185.366    22576193.992   -67315423.935 9 106291770.071 9
  21181262.864    21181269.875   -77767289.937 9  68747752.743 9
 89 11 17 15 55 29.0800000  0  3G13G12G 3
  22191980.680    22191987.086   -27274098.250 8   9440709.193 8
  22595112.885    22595121.568   -67215963.154 9 106369271.772 9
  21178968.726    21178974.141   -77779345.916 9  68738358.485 8
 89 11 17 15 55 59.0800000  0  3G13G12G 3
  22201687.105    22201694.155   -27223091.620 9   9480454.538 8
  22614089.933    22614099.329   -67116235.552 9 106446981.398 9
  21176704.728    21176710.075   -77791242.589 9  68729088.372 8
 89 11 17 15 56 29.0800000  0  3G13G12G 3
  22211404.397    22211410.286   -27172025.185 9   9520246.552 8
  22633117.696    22633126.995   -67016244.451 9 106524896.348 9
  21174471.106    21174477.023   -77802980.019 9  68719942.322 8
 89 11 17 15 56 59.0800000  0  3G13G12G 3
  22221132.902    22221141.166   -27120899.397 9   9560084.771 9
  22652195.152    22652204.686   -66915992.818 9 106603014.316 9
  21172268.406    21172272.374   -77814558.842 9  68710919.880 8
 89 11 17 15 57 29.0800000  0  3G13G12G 3
  22230873.185    22230879.440   -27069713.680 9   9599969.681 8
  22671320.947    22671330.106   -66815483.971 9 106681332.724 9
  21170094.498    21170099.948   -77825979.082 9  68702020.967 8
 89 11 17 15 57 59.0800000  0  3G13G12G 3
  22240625.425    22240632.061   -27018469.011 9   9639900.552 8
  22690495.488    22690505.288   -66714721.454 9 106759848.803 9
  21167951.748    21167956.435   -77837241.457 9  68693245.047 9
 89 11 17 15 58 29.0800000  0  3G13G12G 3
  22250388.443    22250395.128   -26967165.219 9   9679877.532 8
  22709717.427    22709727.187   -66613708.832 8 106838559.765 9
  21165837.930    21165843.793   -77848346.060 9  68684592.047 7
 89 11 17 15 58 59.0800000  0  3G13G12G 3
  22260162.088    22260168.410   -26915802.691 9   9719900.220 8
  22728987.242    22728996.741   -66512449.287 9 106917463.120 9
  21163755.857    21163761.348   -77859293.018 9  68676061.940 8
 89 11 17 15 59 29.0800000  0  3G13G12G 3
  22269946.580    22269954.305   -26864381.663 9   9759968.432 8
  22748302.442    22748312.508   -66410945.988 9 106996556.392 9
  21161702.376    21161706.687   -77870082.636 8  68667654.429 8
 89 11 17 15 59 59.0800000  0  3G13G12G 3
  22279743.866    22279750.515   -26812902.197 9   9800082.232 8
  22767663.772    22767673.841   -66309203.000 9 107075836.455 9
  21159678.428    21159682.725   -77880715.631 9  68659368.971 9
 89 11 17 16  0 29.0800000  0  3G13G12G 3
  22289550.403    22289558.128   -26761364.420 9   9840241.451 8
  22787070.537    22787079.258   -66207223.159 9 107155301.066 9
  21157684.774    21157689.966   -77891191.728 9  68651205.774 8
 89 11 17 16  0 59.0800000  0  3G13G12G 3
  22299368.938    22299377.859   -26709767.952 9   9880446.361 8
  22806520.313    22806530.733   -66105010.156 9 107234947.355 9
  21155722.006    21155726.953   -77901511.472 9  68643164.433 8
 89 11 17 16  1 29.0800000  0  3G13G12G 3
  22309198.932    22309206.109   -26658112.495 9   9920697.337 7
  22826014.915    22826024.678   -66002567.078 8 107314772.914 9
  21153786.858    21153792.522   -77911674.722 9  68635245.002 8
 89 11 17 16  1 59.0800000  0  3G13G12G 3
  22319040.170    22319046.465   -26606399.201 9   9960993.129 8
  22845552.217    22845562.329   -65899897.416 9 107394775.024 9
  21151882.756    21151889.048   -77921682.190 9  68627446.942 9
 89 11 17 16  2 29.0800000  0  3G13G12G 3
  22328891.653    22328898.905   -26554627.596 8  10001334.552 8
  22865132.704    22865142.742   -65797004.473 9 107474951.125 9
  21150008.262    21150013.897   -77931533.741 9  68619770.411 8
 89 11 17 16  2 59.0800000  0  3G13G12G 3
  22338754.927    22338762.349   -26502797.776 9  10041721.313 7
  22884755.280    22884764.846   -65693892.190 9 107555298.107 9
  21148163.312    21148169.508   -77941230.011 9  68612214.789 8
 89 11 17 16  3 29.0800000  0  3G13G12G 3
  22348628.361    22348635.651   -26450909.675 8  10082153.604 7
  22904417.464    22904428.274   -65590563.433 8 107635813.769 9
  21146347.012    21146354.354   -77950770.866 9  68604780.320 8
 89 11 17 16  3 59.0800000  0  3G13G12G 3
  22358513.952    22358521.425   -26398963.682 9  10122630.969 8
  22924120.782    22924131.620   -65487021.673 9 107716495.398 9
  21144561.966    21144566.605   -77960156.462 9  68597466.897 8
 89 11 17 16  4 29.0800000  0  3G13G12G 3
  22368409.895    22368416.728   -26346959.717 9  10163153.538 8
  22943864.496    22943873.961   -65383270.732 9 107797340.026 9
  21142804.969    21142810.732   -77969387.157 9  68590274.121 8
 89 11 17 16  4 59.0800000  0  3G13G12G 3
  22378317.473    22378323.821   -26294898.505 9  10203720.642 7
  22963647.221    22963657.484   -65279314.113 9 107878344.905 9
  21141078.561    21141083.776   -77978463.605 9  68583201.474 9
 89 11 17 16  5 29.0800000  0  3G13G12G 3
  22388234.292    22388242.333   -26242779.690 8  10244332.619 8
  22983468.085    22983478.417   -65175154.634 9 107959507.854 9
  21139379.523    21139386.317   -77987385.344 9  68576249.484 9
 89 11 17 16  5 59.0800000  0  3G13G12G 3
  22398163.885    22398169.860   -26190603.013 9  10284989.733 7
  23003326.806    23003337.917   -65070795.678 9 108040826.259 9
  21137711.429    21137718.393   -77996152.828 9  68569417.693 8
 89 11 17 16  6 29.0800000  0  3G13G12G 3
  22408103.851    22408111.028   -26138368.757 9  10325691.592 8
  23023223.703    23023233.840   -64966240.710 9 108122297.373 8
  21136072.680    21136077.868   -78004765.850 9  68562706.265 9
 89 11 17 16  6 59.0800000  0  3G13G12G 3
  22418054.412    22418061.593   -26086076.722 9  10366438.530 8
  23043156.500    23043166.998   -64861493.329 9 108203918.433 9
  21134463.608    21134468.211   -78013224.827 8  68556114.882 7
 89 11 17 16  7 29.0800000  0  3G13G12G 3
  22428016.867    22428023.127   -26033727.202 9  10407230.173 8
  23063125.911    23063136.392   -64756557.172 9 108285686.574 9
  21132882.843    21132888.227   -78021530.013 9  68549643.298 8
 89 11 17 16  7 59.0800000  0  3G13G12G 3
  22437989.697    22437995.940   -25981319.872 9  10448066.980 8
  23083130.454    23083140.075   -64651435.240 9 108367599.489 9
  21131331.546    21131337.180   -78029681.554 9  68543291.457 8
 89 11 17 16  8 29.0800000  0  3G13G12G 3
  22447973.153    22447980.292   -25928854.528 9  10488949.020 7
  23103168.600    23103179.710   -64546131.030 9 108449654.424 9
  21129809.759    21129814.461   -78037679.810 9  68537059.060 8
 89 11 17 16  8 59.0800000  0  3G13G12G 3
  22457969.173    22457975.494   -25876331.258 8  10529876.166 8
  23123241.881    23123251.620   -64440647.902 9 108531848.790 9
  21128317.201    21128321.056   -78045524.781 9  68530946.048 8
 89 11 17 16  9 29.0800000  0  3G13G12G 3
  22467974.271    22467981.728   -25823750.385 9  10570848.259 8
  23143347.985    23143359.767   -64334989.586 9 108614179.667 9
  21126852.857    21126858.350   -78053216.408 9  68524952.558 8
 89 11 17 16  9 59.0800000  0  3G13G12G 3
  22477990.711    22477998.239   -25771111.915 9  10611865.146 7
  23163487.268    23163497.741   -64229159.073 9 108696644.718 8
  21125419.205    21125423.563   -78060754.661 9  68519078.568 9
 89 11 17 16 10 29.0800000  0  3G13G12G 3
  22488018.574    22488026.619   -25718415.963 9  10652926.884 8
  23183658.468    23183669.581   -64123160.027 9 108779241.082 9
  21124013.245    21124019.500   -78068140.057 9  68513323.624 8
 89 11 17 16 10 59.0800000  0  3G13G12G 3
  22498057.373    22498065.175   -25665661.664 9  10694034.111 8
  23203860.262    23203871.762   -64016995.418 9 108861966.463 8
  21122636.985    21122642.199   -78075372.494 9  68507687.836 8
 89 11 17 16 11 29.0800000  0  3G13G12G 3
  22508106.490    22508115.523   -25612849.714 9  10735186.195 8
  23224094.496    23224105.120   -63910669.010 9 108944817.909 9
  21121288.999    21121295.594   -78082451.886 9  68502171.392 9
 89 11 17 16 11 59.0800000  0  3G13G12G 3
  22518168.227    22518175.419   -25559979.542 9  10776383.647 9
  23244357.978    23244368.653   -63804184.161 9 109027792.816 9
  21119972.433    21119977.668   -78089378.494 9  68496774.042 8
 89 11 17 16 12 29.0800000  0  3G13G12G 3
  22528240.459    22528246.992   -25507050.944 9  10817626.626 8
  23264651.134    23264661.841   -63697544.276 9 109110888.554 9
  21118683.743    21118687.972   -78096152.533 9  68491495.545 8
 89 11 17 16 12 59.0800000  0  3G13G12G 3
  22538322.987    22538330.862   -25454064.105 9  10858915.022 7
  23284972.354    23284984.781   -63590752.509 8 109194102.628 8
  21117422.962    21117428.939   -78102773.943 9  68486335.953 9
 89 11 17 16 13 29.0800000  0  3G13G12G 3
  22548417.589    22548425.137   -25401019.798 9  10900248.005 8
  23305323.185    23305333.952   -63483812.337 9 109277432.336 9
  21116191.969    21116197.000   -78109242.681 9  68481295.347 9
 89 11 17 16 13 59.0800000  0  3G13G12G 3
  22558523.112    22558530.270   -25347916.259 9  10941627.399 8
  23325701.472    23325713.584   -63376727.244 9 109360874.964 8
  21114989.306    21114995.506   -78115559.018 9  68476373.474 8
 89 11 17 16 14 29.0800000  0  3G13G12G 3
  22568639.430    22568646.221   -25294754.912 9  10983051.569 7
  23346106.566    23346117.943   -63269500.264 9 109444428.149 8
  21113817.267    21113822.520   -78121722.686 9  68471570.569 9
 89 11 17 16 14 59.0800000  0  3G13G12G 3
  22578767.468    22578774.364   -25241534.691 9  11024521.779 8
  23366537.068    23366548.682   -63162135.339 9 109528088.821 9
  21112672.842    21112678.721   -78127734.174 9  68466886.235 9
 89 11 17 16 15 29.0800000  0  3G13G12G 3
  22588905.195    22588913.177   -25188256.948 8  11066036.521 8
  23386993.698    23387006.117   -63054635.901 9 109611854.295 8
  21111558.781    21111564.023   -78133593.490 9  68462320.468 7
 89 11 17 16 15 59.0800000  0  3G13G12G 3
  22599055.254    22599063.118   -25134919.904 9  11107597.637 8
  23407475.246    23407487.882   -62947004.719 9 109695722.422 9
  21110471.990    21110477.174   -78139300.195 9  68457873.632 9
 89 11 17 16 16 29.0800000  0  3G13G12G 3
  22609216.203    22609225.106   -25081523.459 9  11149205.399 7
  23427982.099    23427993.126   -62839245.647 9 109779690.204 8
  21109415.338    21109421.037   -78144854.703 9  68453545.375 8
 89 11 17 16 16 59.0800000  0  3G13G12G 3
  22619388.574    22619396.671   -25028067.800 9  11190859.331 8
  23448512.044    23448522.902   -62731362.121 8 109863754.941 9
  21108388.054    21108393.396   -78150256.929 9  68449335.769 8
 89 11 17 16 17 29.0800000  0  3G13G12G 3
  22629571.763    22629579.455   -24974552.417 8  11232559.705 9
  23469064.016    23469076.431   -62623357.550 9 109947913.980 9
  21107387.809    21107393.911   -78155506.383 9  68445245.234 7
 89 11 17 16 17 59.0800000  0  3G13G12G 3
  22639766.638    22639774.793   -24920977.900 9  11274306.119 8
  23489639.521    23489652.191   -62515235.153 9 110032164.835 9
  21106417.619    21106424.790   -78160603.567 9  68441273.351 8
 89 11 17 16 18 29.0800000  0  3G13G12G 3
  22649972.875    22649980.948   -24867344.113 9  11316098.697 8
  23510236.399    23510249.055   -62406997.712 9 110116505.321 9
  21105478.078    21105483.204   -78165548.129 9  68437420.430 9
 89 11 17 16 18 59.0800000  0  3G13G12G 3
  22660191.269    22660198.217   -24813651.168 9  11357937.254 8
  23530855.564    23530867.822   -62298648.840 9 110200932.602 9
  21104565.944    21104572.101   -78170340.450 9  68433686.109 9
 89 11 17 16 19 29.0800000  0  3G13G12G 3
  22670418.746    22670427.326   -24759898.164 9  11399822.678 8
  23551494.839    23551506.147   -62190191.839 9 110285444.138 9
  21103683.206    21103687.732   -78174980.139 9  68430070.759 9
 89 11 17 16 19 59.0800000  0  3G13G12G 3
  22680659.864    22680667.250   -24706085.308 9  11441754.682 8
  23572152.949    23572165.719   -62081630.468 9 110370036.997 9
  21102829.407    21102835.186   -78179467.247 9  68426574.303 9
 89 11 17 16 20 29.0800000  0  3G13G12G 3
  22690910.865    22690919.042   -24652212.286 9  11483733.523 8
  23592830.951    23592844.385   -61972968.061 9 110454708.585 9
  21102004.137    21102009.440   -78183802.067 9  68423196.489 9
 89 11 17 16 20 59.0800000  0  3G13G12G 3
  22701174.809    22701182.635   -24598278.872 8  11525759.474 8
  23613528.021    23613539.798   -61864208.143 9 110539456.139 9
  21101208.026    21101213.439   -78187983.982 8  68419937.896 9
 89 11 17 16 21 29.0800000  0  3G13G12G 3
  22711449.463    22711456.102   -24544284.839 8  11567832.714 8
  23634242.345    23634254.941   -61755353.913 9 110624277.199 9
  21100442.023    21100446.524   -78192013.333 9  68416798.166 9
 89 11 17 16 21 59.0800000  0  3G13G12G 3
  22721736.065    22721744.001   -24490230.394 9  11609952.978 8
  23654974.894    23654987.776   -61646408.774 9 110709169.070 9
  21099704.265    21099709.977   -78195889.718 9  68413777.638 8
 89 11 17 16 22 29.0800000  0  3G13G12G 3
  22732033.136    22732041.087   -24436115.121 9  11652120.636 8
  23675723.157    23675736.511   -61537375.964 9 110794129.272 9
  21098995.760    21099000.989   -78199613.554 9  68410875.949 7
 89 11 17 16 22 59.0800000  0  3G13G12G 3
  22742343.154    22742349.810   -24381936.789 8  11694337.456 8
  23696488.110    23696500.785   -61428257.734 9 110879156.018 9
  21098316.155    21098321.895   -78203183.163 9  68408094.471 9
 89 11 17 16 23 29.0800000  0  3G13G12G 3
  22752664.340    22752673.236   -24327696.614 9  11736602.453 7
  23717268.700    23717281.499   -61319058.281 9 110964246.056 9
  21097665.856    21097671.301   -78206599.284 9  68405432.600 8
 89 11 17 16 23 59.0800000  0  3G13G12G 3
  22762998.335    22763005.561   -24273395.032 9  11778915.308 8
  23738062.770    23738076.539   -61209781.210 9 111049396.570 9
  21097044.978    21097050.961   -78209862.380 9  68402889.931 8
 89 11 17 16 24 29.0800000  0  3G13G12G 3
  22773343.121    22773351.535   -24219031.724 9  11821276.278 8
  23758872.960    23758885.842   -61100430.042 9 111134604.818 9
  21096452.413    21096458.634   -78212972.622 9  68400466.361 9
 89 11 17 16 24 59.0800000  0  3G13G12G 3
  22783699.180    22783708.424   -24164606.601 9  11863685.368 8
  23779693.888    23779707.210   -60991007.850 8 111219868.381 9
  21095889.703    21095895.960   -78215929.615 9  68398162.212 9
 89 11 17 16 25 29.0800000  0  3G13G12G 3
  22794068.700    22794077.132   -24110119.363 9  11906142.852 8
  23800530.974    23800544.153   -60881517.898 9 111305184.727 7
  21095356.920    21095362.513   -78218733.357 9  68395977.464 9
 89 11 17 16 25 59.0800000  0  3G13G12G 3
  22804449.289    22804457.630   -24055569.309 9  11948649.280 8
  23821378.937    23821392.057   -60771963.949 8 111390550.912 8
  21094852.339    21094858.482   -78221383.766 9  68393912.204 8
 89 11 17 16 26 29.0800000  0  3G13G12G 3
  22814841.597    22814849.995   -24000956.538 9  11991204.587 8
  23842236.892    23842252.238   -60662348.890 8 111475964.708 9
  21094376.904    21094383.331   -78223880.521 9  68391966.650 8
 89 11 17 16 26 59.0800000  0  3G13G12G 3
  22825246.770    22825254.284   -23946280.973 9  12033808.839 8
  23863108.580    23863121.966   -60552676.449 9 111561423.196 8
  21093931.504    21093936.381   -78226223.566 9  68390140.891 8
 89 11 17 16 27 29.0800000  0  3G13G12G 3
  22835663.251    22835670.079   -23891542.068 9  12076462.459 8
  23883989.283    23884003.593   -60442949.671 9 111646924.027 9
  21093514.683    21093520.421   -78228412.563 9  68388435.174 8
 89 11 17 16 27 59.0800000  0  3G13G12G 3
  22846092.472    22846100.394   -23836739.911 9  12119165.343 8
  23904879.942    23904894.344   -60333172.089 8 111732464.437 8
  21093127.534    21093133.729   -78230447.483 9  68386849.515 8
 89 11 17 16 28 29.0800000  0  3G13G12G 3
  22856532.045    22856540.161   -23781874.046 9  12161917.886 9
  23925778.360    23925793.795   -60223346.953 9 111818041.892 9
  21092769.714    21092775.325   -78232328.310 9  68385383.927 9
 89 11 17 16 28 59.0800000  0  3G13G12G 3
  22866985.058    22866993.112   -23726944.331 9  12204720.173 9
  23946687.095    23946701.700   -60113477.740 9 111903653.684 9
  21092441.569    21092446.508   -78234054.910 9  68384038.515 9
 89 11 17 16 29 29.0800000  0  3G13G12G 3
  22877449.929    22877459.228   -23671950.639 9  12247572.304 9
  23967602.529    23967617.217   -60003567.465 9 111989297.470 9
  21092143.272    21092147.577   -78235627.000 9  68382813.501 9
 89 11 17 16 29 59.0800000  0  3G13G12G 3
  22887927.304    22887936.324   -23616892.000 9  12290475.120 8
  23988525.190    23988540.736   -59893619.290 9 112074970.769 9
  21091871.655    21091878.347   -78237043.797 9  68381709.509 8
 89 11 17 16 30 29.0800000  0  3G13G12G 3
  22898416.673    22898425.839   -23561768.329 8  12333428.613 9
  24009455.532    24009470.202   -59783636.488 9 112160671.040 9
  21091632.838    21091637.245   -78238305.551 9  68380726.319 8
 89 11 17 16 30 59.0800000  0  3G13G12G 3
  22908918.595    22908927.652   -23506579.021 9  12376433.220 9
  24030390.993    24030405.878   -59673622.387 9 112246395.692 9
  21091422.996    21091427.796   -78239411.898 9  68379864.217 9
 89 11 17 16 31 29.0800000  0  3G13G12G 3
  22919433.700    22919442.608   -23451324.157 9  12419488.898 8
  24051331.431    24051347.260   -59563580.135 9 112332142.267 9
  21091240.437    21091247.177   -78240362.770 9  68379123.227 9
 89 11 17 16 31 59.0800000  0  3G13G12G 3
  22929960.639    22929969.441   -23396003.484 9  12462595.880 8
  24072276.892    24072293.302   -59453512.615 9 112417908.519 9
  21091088.997    21091094.976   -78241157.839 9  68378503.680 8
 89 11 17 16 32 29.0800000  0  3G13G12G 3
  22940500.618    22940510.690   -23340616.965 8  12505754.052 7
  24093226.643    24093242.200   -59343423.589 9 112503691.514 8
  21090967.845    21090973.307   -78241796.978 9  68378005.622 8
 89 11 17 16 32 59.0800000  0  3G13G12G 3
  22951052.693    22951061.449   -23285164.161 9  12548963.905 8
  24114179.893    24114195.162   -59233316.816 9 112589488.335 9
  21090875.635    21090881.835   -78242280.078 9  68377629.160 8
 89 11 17 16 33 29.0800000  0  3G13G12G 3
  22961618.254    22961628.351   -23229644.364 9  12592225.937 8
  24135135.064    24135151.644   -59123195.133 9 112675296.780 9
  21090813.698    21090819.389   -78242606.899 9  68377374.477 8
 89 11 17 16 33 59.0800000  0  3G13G12G 3
  22972195.331    22972205.780   -23174057.192 9  12635540.485 9
  24156093.517    24156109.962   -59013061.645 9 112761114.391 8
  21090781.359    21090788.269   -78242776.809 9  68377242.030 8
 89 11 17 16 34 29.0800000  0  3G13G12G 3
  22982786.532    22982796.052   -23118402.791 8  12678907.433 8
  24177052.646    24177069.604   -58902919.692 8 112846938.597 8
  21090779.779    21090784.789   -78242789.899 9  68377231.812 9
 89 11 17 16 34 59.0800000  0  3G13G12G 3
  22993391.305    22993399.469   -23062681.180 8  12722326.772 8
  24198013.844    24198030.481   -58792772.711 8 112932766.715 7
  21090806.740    21090811.253   -78242645.686 9  68377344.189 8
 89 11 17 16 35 29.0800000  0  3G13G12G 3
  23004006.244    23004017.175   -23006891.234 8  12765799.329 8
  24218975.119    24218991.587   -58682623.666 8 113018596.440 7
  21090864.148    21090869.561   -78242343.858 9  68377579.367 8
 89 11 17 16 35 59.0800000  0  3G13G12G 3
  23014636.577    23014646.177   -22951032.614 9  12809325.411 8
  24239935.845    24239954.147   -58572475.791 9 113104425.262 8
  21090952.117    21090957.955   -78241884.309 9  68377937.443 8
 89 11 17 16 36 29.0800000  0  3G13G12G 3
  23025279.169    23025287.732   -22895105.356 8  12852904.992 9
  24260896.674    24260913.165   -58462332.139 9 113190250.773 7
  21091068.443    21091074.424   -78241266.664 9  68378418.688 9
 89 11 17 16 36 59.0800000  0  3G13G12G 3
  23035934.886    23035944.427   -22839108.705 9  12896538.617 8
  24281855.159    24281872.554   -58352195.917 9 113276070.510 9
  21091216.177    21091221.661   -78240490.466 9  68379023.505 8
 89 11 17 16 37 29.0800000  0  3G13G12G 3
  23046604.930    23046613.782   -22783042.299 9  12940226.633 8
  24302812.001    24302829.619   -58242070.752 9 113361881.626 7
  21091395.001    21091400.596   -78239555.605 9  68379751.963 9
 89 11 17 16 37 59.0800000  0  3G13G12G 3
  23057287.291    23057297.053   -22726906.024 8  12983969.081 8
  24323765.798    24323784.235   -58131959.602 9 113447681.824 8
  21091602.948    21091607.809   -78238461.452 9  68380604.549 8
 89 11 17 16 38 29.0800000  0  3G13G12G 3
  23067982.205    23067991.199   -22670699.980 9  13027765.832 8
  24344717.146    24344733.734   -58021865.735 9 113533468.549 9
  21091841.738    21091847.521   -78237207.930 9  68381581.302 9
 89 11 17 16 38 59.0800000  0  3G13G12G 3
  23078692.518    23078701.077   -22614423.237 9  13071617.745 8
  24365663.723    24365681.121   -57911792.039 9 113619239.558 8
  21092111.080    21092116.431   -78235794.775 9  68382682.445 8
 89 11 17 16 39 29.0800000  0  3G13G12G 3
  23089414.825    23089423.624   -22558075.084 9  13115525.274 9
  24386605.812    24386623.522   -57801742.024 9 113704992.103 8
  21092409.629    21092415.673   -78234221.658 9  68383908.245 8
 89 11 17 16 39 59.0800000  0  3G13G12G 3
  23100151.579    23100160.611   -22501655.151 9  13159488.758 8
  24407543.698    24407561.785   -57691718.540 9 113790723.977 9
  21092739.398    21092745.901   -78232487.991 9  68385259.084 9
 89 11 17 16 40 29.0800000  0  3G13G12G 3
  23110901.698    23110911.262   -22445163.441 9  13203508.200 7
  24428474.688    24428493.122   -57581724.972 9 113876432.531 9
  21093101.039    21093105.941   -78230593.540 9  68386735.240 9
